[[{"header":{"parameterUnit":"m.s-1","parameterCategory":1,"la1":31.0,"la2":29.5877,"lo1":-88.7671,"lo2":-86.6584,"dy":0.0162,"dx":0.0185,"nx":115,"ny":88,"refTime":"2023-04-23T18:00:00:Z","depth":0,"parameterNumber":2,"parameterNumberName":"U-component_of_WINDS"},"data":[0.0,0.0,0.0,0.0,0.0,0.0,0.0,0.0,0.0,0.0,0.0,0.0,0.0,0.0,0.0,0.0,0.0,0.0,0.0,0.0,0.0,0.0,0.0,0.0,0.0,0.0,0.0,0.0,0.0,0.0,0.0,0.0,0.0,0.0,0.0,0.0,0.0,0.0,0.0,0.0,0.0,0.0,0.0,0.0,0.0,0.0,0.0,0.0,0.0,0.0,0.0,0.0,0.0,0.0,0.0,0.0,0.0,0.0,0.0,0.0,0.0,0.0,0.0,0.0,0.0,0.0,0.0,0.0,0.0,0.0,0.0,0.0,0.0,0.0,0.0,0.0,0.0,0.0,0.0,0.0,0.0,0.0,0.0,0.0,0.0,0.0,0.0,0.0,0.0,0.0,0.0,0.0,0.0,0.0,0.0,0.0,0.0,0.0,0.0,0.0,0.0,0.0,0.0,0.0,0.0,0.0,0.0,0.0,0.0,0.0,0.0,0.0,0.0,0.0,0.0,0.0,0.0,0.0,0.0,0.0,0.0,0.0,0.0,0.0,0.0,0.0,0.0,0.0,0.0,0.0,0.0,0.0,0.0,0.0,0.0,0.0,0.0,0.0,0.0,0.0,0.0,0.0,0.0,0.0,0.0,0.0,0.0,0.0,0.0,0.0,0.0,0.0,0.0,0.0,0.0,0.0,0.0,0.0,0.0,0.0,0.0,0.0,0.0,0.0,0.0,0.0,0.0,0.0,0.0,0.0,0.0,0.0,0.0,0.0,0.0,0.0,0.0,0.0,0.0,0.0,0.0,0.0,0.0,0.0,0.0,0.0,0.0,0.0,0.0,0.0,0.0,0.0,0.0,0.0,0.0,0.0,0.0,0.0,0.0,0.0,0.0,0.0,0.0,0.0,0.0,0.0,0.0,0.0,0.0,0.0,0.0,0.0,0.0,0.0,0.0,0.0,0.0,0.0,0.0,0.0,0.0,0.0,0.0,0.0,0.0,0.0,0.0,0.0,0.0,0.0,0.0,0.0,0.0,0.0,0.0,0.0,0.0,0.0,0.0,0.0,0.0,0.0,0.0,0.0,0.0,0.0,0.0,0.0,0.0,0.0,0.0,0.0,0.0,0.0,0.0,0.0,0.0,0.0,0.0,0.0,0.0,0.0,0.0,0.0,0.0,0.0,0.0,0.0,0.0,0.0,0.0,0.0,0.0,0.0,0.0,0.0,0.0,0.0,0.0,0.0,0.0,0.0,0.0,0.0,0.0,0.0,0.0,0.0,0.0,0.0,0.0,0.0,0.0,0.0,0.0,0.0,0.0,0.0,0.0,0.0,0.0,0.0,0.0,0.0,0.0,0.0,0.0,0.0,0.0,0.0,0.0,0.0,0.0,0.0,0.0,0.0,0.0,0.0,0.0,0.0,0.0,0.0,0.0,0.0,0.0,0.0,0.0,0.0,0.0,0.0,0.0,0.0,0.0,0.0,0.0,0.0,0.0,0.0,0.0,0.0,0.0,0.0,0.0,0.0,0.0,0.0,0.0,0.0,0.0,0.0,0.0,0.0,0.0,0.0,0.0,0.0,0.0,0.0,0.0,0.0,0.0,0.0,0.0,0.0,0.0,0.0,0.0,0.0,0.0,0.0,0.0,0.0,0.0,0.0,0.0,0.0,0.0,0.0,0.0,0.0,0.0,0.0,0.0,0.0,0.0,0.0,0.0,0.0,0.0,0.0,0.0,0.0,0.0,0.0,0.0,0.0,0.0,0.0,0.0,0.0,0.0,0.0,0.0,0.0,0.0,0.0,0.0,0.0,0.0,0.0,0.0,0.0,0.0,0.0,0.0,0.0,0.0,0.0,0.0,0.0,0.0,0.0,0.0,0.0,0.0,0.0,0.0,0.0,0.0,0.0,0.0,0.0,0.0,0.0,0.0,0.0,0.0,0.0,0.0,0.0,0.0,0.0,0.0,0.0,0.0,0.0,0.0,0.0,0.0,0.0,0.0,0.0,0.0,0.0,0.0,0.0,0.0,0.0,0.0,0.0,0.0,0.0,0.0,0.0,0.0,0.0,0.0,0.0,0.0,0.0,0.0,0.0,0.0,0.0,0.0,0.0,0.0,0.0,0.0,0.0,0.0,0.0,0.0,0.0,0.0,0.0,0.0,0.0,0.0,0.0,0.0,0.0,0.0,0.0,0.0,0.0,0.0,0.0,0.0,0.0,0.0,0.0,0.0,0.0,0.0,0.0,0.0,0.0,0.0,0.0,0.0,0.0,0.0,0.0,0.0,0.0,0.0,0.0,0.0,0.0,0.0,0.0,0.0,0.0,0.0,0.0,0.0,0.0,0.0,0.0,0.0,0.0,0.0,0.0,0.0,0.0,0.0,0.0,0.0,0.0,0.0,0.0,0.0,0.0,0.0,0.0,0.0,0.0,0.0,0.0,0.0,0.0,0.0,0.0,0.0,0.0,0.0,0.0,0.0,0.0,0.0,0.0,0.0,0.0,0.0,0.0,0.0,0.0,0.0,0.0,0.0,0.0,0.0,0.0,0.0,0.0,0.0,0.0,0.0,0.0,0.0,0.0,0.0,0.0,0.0,0.0,0.0,0.0,0.0,0.0,0.0,0.0,0.0,0.0,0.0,0.0,0.0,0.0,0.0,0.0,0.0,0.0,0.0,0.0,0.0,0.0,0.0,0.0,0.0,0.0,0.0,0.0,0.0,0.0,0.0,0.0,0.0,0.0,0.0,0.0,0.0,0.0,0.0,0.0,0.0,0.0,0.0,0.0,0.0,0.0,0.0,0.0,0.0,0.0,0.0,0.0,0.0,0.0,0.0,0.0,0.0,0.0,0.0,0.0,0.0,0.0,0.0,0.0,0.0,0.0,0.0,0.0,0.0,0.0,0.0,0.0,0.0,0.0,0.0,0.0,0.0,0.0,0.0,0.0,0.0,0.0,0.0,0.0,0.0,0.0,0.0,0.0,0.0,0.0,0.0,0.0,0.0,0.0,0.0,0.0,0.0,0.0,0.0,0.0,0.0,0.0,0.0,0.0,0.0,0.0,0.0,0.0,0.0,0.0,0.0,0.0,0.0,0.0,0.0,0.0,0.0,0.0,0.0,0.0,0.0,0.0,0.0,0.0,0.0,0.0,0.0,0.0,0.0,0.0,0.0,0.0,0.0,0.0,0.0,0.0,0.0,0.0,0.0,0.0,0.0,0.0,0.0,0.0,0.0,0.0,0.0,0.0,0.0,0.0,0.0,0.0,0.0,0.0,0.0,0.0,0.0,0.0,0.0,0.0,0.0,0.0,0.0,0.0,0.0,0.0,0.0,0.0,0.0,0.0,0.0,0.0,0.0,0.0,0.0,0.0,0.0,0.0,0.0,0.0,0.0,0.0,0.0,0.0,0.0,0.0,0.0,0.0,0.0,0.0,0.0,0.0,0.0,0.0,0.0,0.0,0.0,0.0,0.0,0.0,0.0,0.0,0.0,0.0,0.0,0.0,0.0,0.0,0.0,0.0,0.0,0.0,0.0,0.0,0.0,0.0,0.0,0.0,0.0,0.0,0.0,0.0,0.0,0.0,0.0,0.0,0.0,0.0,0.0,0.0,0.0,0.0,0.0,0.0,0.0,0.0,0.0,0.0,0.0,0.0,0.0,0.0,0.0,0.0,0.0,0.0,0.0,0.0,0.0,0.0,0.0,0.0,0.0,0.0,0.0,0.0,0.0,0.0,0.0,0.0,0.0,0.0,0.0,0.0,0.0,0.0,0.0,0.0,0.0,0.0,0.0,0.0,0.0,0.0,0.0,0.0,0.0,0.0,0.0,0.0,0.0,0.0,0.0,0.0,0.0,0.0,0.0,0.0,0.0,0.0,0.0,0.0,0.0,0.0,0.0,0.0,0.0,0.0,0.0,0.0,0.0,0.0,0.0,0.0,0.0,0.0,0.0,0.0,0.0,0.0,0.0,0.0,0.0,0.0,0.0,0.0,0.0,0.0,0.0,0.0,0.0,0.0,0.0,0.0,0.0,0.0,0.0,0.0,0.0,0.0,0.0,0.0,0.0,0.0,0.0,0.0,0.0,0.0,0.0,0.0,0.0,0.0,0.0,0.0,0.0,0.0,0.0,0.0,0.0,0.0,0.0,0.0,0.0,0.0,0.0,0.0,0.0,0.0,0.0,0.0,0.0,0.0,0.0,0.0,0.0,0.0,0.0,0.0,0.0,0.0,0.0,0.0,0.0,0.0,0.0,0.0,0.0,0.0,0.0,0.0,0.0,0.0,-4.0291,0.0,0.0,0.0,0.0,0.0,0.0,0.0,0.0,0.0,0.0,0.0,0.0,0.0,0.0,0.0,0.0,0.0,0.0,0.0,0.0,0.0,0.0,0.0,0.0,0.0,0.0,0.0,0.0,0.0,0.0,0.0,0.0,0.0,0.0,0.0,0.0,0.0,0.0,0.0,0.0,0.0,0.0,0.0,0.0,0.0,0.0,0.0,0.0,0.0,0.0,0.0,0.0,0.0,0.0,0.0,0.0,0.0,0.0,0.0,0.0,0.0,0.0,0.0,0.0,0.0,0.0,0.0,0.0,0.0,0.0,0.0,0.0,0.0,0.0,0.0,0.0,0.0,0.0,0.0,0.0,0.0,0.0,0.0,0.0,0.0,0.0,0.0,0.0,0.0,0.0,0.0,0.0,0.0,0.0,0.0,0.0,0.0,0.0,0.0,0.0,0.0,0.0,0.0,0.0,0.0,0.0,0.0,0.0,0.0,0.0,-4.0087,-4.0205,-4.0157,-4.0176,-4.0282,0.0,0.0,0.0,0.0,0.0,0.0,0.0,0.0,0.0,0.0,0.0,0.0,0.0,0.0,0.0,0.0,0.0,0.0,0.0,0.0,0.0,0.0,0.0,0.0,0.0,0.0,0.0,0.0,0.0,0.0,0.0,0.0,0.0,0.0,0.0,0.0,0.0,0.0,0.0,0.0,0.0,0.0,0.0,0.0,0.0,0.0,0.0,0.0,0.0,0.0,0.0,0.0,0.0,0.0,0.0,0.0,0.0,0.0,0.0,0.0,0.0,0.0,0.0,0.0,0.0,0.0,0.0,0.0,0.0,0.0,0.0,0.0,0.0,0.0,0.0,0.0,0.0,0.0,0.0,0.0,0.0,0.0,0.0,0.0,0.0,0.0,0.0,0.0,0.0,0.0,0.0,0.0,0.0,0.0,0.0,0.0,0.0,0.0,0.0,0.0,0.0,0.0,0.0,0.0,0.0,0.0,0.0,0.0,0.0,0.0,0.0,0.0,-4.032,-4.032,-4.032,0.0,0.0,0.0,0.0,0.0,0.0,0.0,0.0,0.0,0.0,0.0,0.0,0.0,0.0,0.0,0.0,0.0,0.0,0.0,0.0,0.0,0.0,0.0,0.0,0.0,0.0,0.0,0.0,0.0,0.0,0.0,0.0,0.0,0.0,0.0,0.0,0.0,0.0,0.0,0.0,0.0,0.0,0.0,0.0,0.0,0.0,0.0,0.0,0.0,0.0,0.0,0.0,0.0,0.0,0.0,0.0,0.0,0.0,0.0,0.0,0.0,0.0,0.0,0.0,0.0,0.0,0.0,0.0,0.0,0.0,0.0,0.0,0.0,0.0,0.0,0.0,0.0,0.0,0.0,0.0,0.0,0.0,0.0,0.0,0.0,0.0,0.0,0.0,0.0,0.0,0.0,0.0,0.0,0.0,0.0,0.0,0.0,0.0,0.0,0.0,0.0,0.0,0.0,0.0,0.0,0.0,0.0,0.0,0.0,0.0,-4.032,-4.032,-4.0301,0.0,-4.032,0.0,0.0,0.0,0.0,0.0,0.0,0.0,0.0,0.0,0.0,0.0,0.0,0.0,0.0,0.0,0.0,0.0,0.0,0.0,0.0,0.0,0.0,0.0,0.0,0.0,0.0,0.0,0.0,0.0,0.0,0.0,0.0,0.0,0.0,0.0,0.0,0.0,0.0,0.0,0.0,0.0,0.0,0.0,0.0,0.0,0.0,0.0,0.0,0.0,0.0,0.0,0.0,0.0,0.0,0.0,0.0,0.0,0.0,0.0,0.0,0.0,0.0,0.0,0.0,0.0,0.0,0.0,0.0,0.0,0.0,0.0,0.0,0.0,0.0,0.0,0.0,0.0,0.0,0.0,0.0,0.0,0.0,0.0,0.0,0.0,0.0,0.0,0.0,0.0,0.0,0.0,0.0,0.0,0.0,0.0,0.0,0.0,0.0,0.0,0.0,0.0,0.0,0.0,0.0,0.0,0.0,0.0,0.0,0.0,0.0,-4.032,-4.032,-4.0225,-4.0225,0.0,0.0,0.0,0.0,0.0,0.0,0.0,0.0,0.0,0.0,0.0,0.0,0.0,0.0,0.0,0.0,0.0,0.0,0.0,0.0,0.0,0.0,0.0,0.0,0.0,0.0,0.0,0.0,0.0,0.0,0.0,0.0,0.0,0.0,0.0,0.0,0.0,0.0,0.0,0.0,0.0,0.0,0.0,0.0,0.0,0.0,0.0,0.0,0.0,0.0,0.0,0.0,0.0,0.0,0.0,0.0,0.0,0.0,0.0,0.0,0.0,0.0,0.0,0.0,0.0,0.0,0.0,0.0,0.0,0.0,0.0,0.0,0.0,0.0,0.0,0.0,0.0,0.0,0.0,0.0,0.0,0.0,0.0,0.0,0.0,0.0,0.0,0.0,0.0,0.0,0.0,0.0,0.0,0.0,0.0,0.0,0.0,0.0,0.0,0.0,0.0,0.0,0.0,0.0,0.0,0.0,0.0,0.0,0.0,0.0,-4.0253,-4.0253,-4.0282,-4.0215,-4.0186,-4.0282,0.0,0.0,0.0,0.0,0.0,0.0,0.0,0.0,0.0,0.0,0.0,0.0,0.0,0.0,0.0,0.0,0.0,0.0,0.0,0.0,0.0,0.0,0.0,0.0,0.0,0.0,0.0,0.0,0.0,0.0,0.0,0.0,0.0,0.0,0.0,0.0,0.0,0.0,0.0,0.0,0.0,0.0,0.0,0.0,0.0,0.0,0.0,0.0,0.0,0.0,0.0,0.0,0.0,0.0,0.0,0.0,0.0,0.0,0.0,0.0,0.0,0.0,0.0,0.0,0.0,0.0,0.0,0.0,0.0,0.0,0.0,0.0,0.0,0.0,0.0,0.0,0.0,0.0,0.0,0.0,0.0,0.0,0.0,0.0,0.0,0.0,0.0,0.0,0.0,0.0,0.0,0.0,0.0,0.0,0.0,0.0,0.0,0.0,0.0,0.0,0.0,0.0,0.0,0.0,0.0,0.0,0.0,0.0,-4.0263,-4.0166,-4.0166,-4.0301,-4.0272,-4.0282,0.0,0.0,0.0,0.0,0.0,0.0,0.0,0.0,0.0,0.0,0.0,0.0,0.0,0.0,0.0,0.0,0.0,0.0,0.0,0.0,0.0,0.0,0.0,0.0,0.0,0.0,0.0,0.0,0.0,0.0,0.0,0.0,0.0,0.0,0.0,0.0,0.0,0.0,0.0,0.0,0.0,0.0,0.0,0.0,0.0,0.0,0.0,0.0,0.0,0.0,0.0,0.0,0.0,0.0,0.0,0.0,0.0,0.0,0.0,0.0,0.0,0.0,0.0,0.0,0.0,0.0,0.0,0.0,0.0,0.0,0.0,0.0,0.0,0.0,0.0,0.0,0.0,0.0,0.0,0.0,0.0,0.0,0.0,0.0,0.0,0.0,0.0,0.0,0.0,0.0,0.0,0.0,0.0,0.0,0.0,0.0,0.0,0.0,0.0,0.0,0.0,0.0,0.0,0.0,0.0,0.0,0.0,0.0,0.0,-4.0157,-4.0215,-4.0244,-4.0282,-4.0225,-4.0215,0.0,0.0,0.0,0.0,0.0,0.0,0.0,0.0,0.0,0.0,0.0,0.0,0.0,0.0,0.0,0.0,0.0,0.0,0.0,0.0,0.0,0.0,0.0,0.0,0.0,0.0,0.0,0.0,0.0,0.0,0.0,0.0,0.0,0.0,0.0,0.0,0.0,0.0,0.0,0.0,0.0,0.0,0.0,0.0,0.0,0.0,0.0,0.0,0.0,0.0,0.0,0.0,0.0,0.0,0.0,0.0,0.0,0.0,0.0,0.0,0.0,0.0,0.0,0.0,0.0,0.0,0.0,0.0,0.0,0.0,0.0,0.0,0.0,0.0,0.0,0.0,0.0,0.0,0.0,0.0,0.0,0.0,0.0,0.0,0.0,0.0,0.0,0.0,0.0,0.0,0.0,0.0,0.0,0.0,0.0,0.0,0.0,0.0,0.0,0.0,0.0,0.0,0.0,0.0,0.0,0.0,0.0,0.0,0.0,-3.9943,0.0,-4.0128,-4.0099,-4.0138,-4.0196,0.0,0.0,0.0,0.0,0.0,0.0,0.0,0.0,0.0,0.0,0.0,0.0,0.0,0.0,0.0,0.0,0.0,0.0,0.0,0.0,0.0,0.0,0.0,0.0,0.0,0.0,0.0,0.0,0.0,0.0,0.0,0.0,0.0,0.0,0.0,0.0,0.0,0.0,0.0,0.0,0.0,0.0,0.0,0.0,0.0,0.0,0.0,0.0,0.0,0.0,0.0,0.0,0.0,0.0,0.0,0.0,0.0,0.0,0.0,0.0,0.0,0.0,0.0,0.0,0.0,0.0,0.0,0.0,0.0,0.0,0.0,0.0,0.0,0.0,0.0,0.0,0.0,0.0,0.0,0.0,0.0,0.0,0.0,0.0,0.0,0.0,0.0,0.0,0.0,0.0,0.0,0.0,0.0,0.0,0.0,0.0,0.0,0.0,0.0,0.0,0.0,0.0,0.0,0.0,0.0,0.0,0.0,0.0,-3.9792,-3.9623,-3.9671,-3.9731,-3.972,-4.0099,-4.0301,0.0,0.0,0.0,0.0,0.0,0.0,0.0,0.0,0.0,0.0,0.0,0.0,0.0,0.0,0.0,0.0,0.0,0.0,0.0,0.0,0.0,0.0,0.0,0.0,0.0,0.0,0.0,0.0,0.0,0.0,0.0,0.0,0.0,0.0,0.0,0.0,0.0,0.0,0.0,0.0,0.0,0.0,0.0,0.0,0.0,0.0,0.0,0.0,0.0,0.0,0.0,0.0,0.0,0.0,0.0,0.0,0.0,0.0,0.0,0.0,0.0,0.0,0.0,0.0,0.0,0.0,0.0,0.0,0.0,0.0,0.0,0.0,0.0,0.0,0.0,0.0,0.0,0.0,0.0,0.0,0.0,0.0,0.0,0.0,0.0,0.0,0.0,0.0,0.0,0.0,0.0,0.0,0.0,0.0,0.0,0.0,0.0,0.0,0.0,0.0,0.0,0.0,0.0,0.0,0.0,0.0,0.0,0.0,0.0,-3.9933,-3.978,-3.9835,-4.0099,-4.0244,-4.032,0.0,0.0,0.0,0.0,0.0,0.0,0.0,0.0,0.0,0.0,0.0,0.0,0.0,0.0,0.0,0.0,0.0,0.0,0.0,0.0,0.0,0.0,0.0,0.0,0.0,0.0,0.0,0.0,0.0,0.0,0.0,0.0,0.0,0.0,0.0,0.0,0.0,0.0,0.0,0.0,0.0,0.0,0.0,0.0,0.0,0.0,0.0,0.0,0.0,0.0,0.0,0.0,0.0,0.0,0.0,0.0,0.0,0.0,0.0,0.0,0.0,0.0,0.0,0.0,0.0,0.0,0.0,0.0,0.0,0.0,0.0,0.0,0.0,0.0,0.0,0.0,0.0,0.0,0.0,0.0,0.0,0.0,0.0,0.0,0.0,0.0,0.0,0.0,0.0,0.0,0.0,0.0,0.0,0.0,0.0,0.0,0.0,0.0,0.0,0.0,0.0,0.0,0.0,0.0,0.0,0.0,0.0,0.0,0.0,-4.2498,-4.1271,-4.0921,-4.1542,-4.1399,-4.0968,-4.0348,0.0,0.0,0.0,0.0,0.0,0.0,0.0,0.0,0.0,0.0,0.0,0.0,0.0,0.0,0.0,0.0,0.0,0.0,0.0,0.0,0.0,0.0,0.0,0.0,0.0,0.0,0.0,0.0,0.0,0.0,0.0,0.0,0.0,0.0,0.0,0.0,0.0,0.0,0.0,0.0,0.0,0.0,0.0,0.0,0.0,0.0,0.0,0.0,0.0,0.0,0.0,0.0,0.0,0.0,0.0,0.0,0.0,0.0,0.0,0.0,0.0,0.0,0.0,0.0,0.0,0.0,0.0,0.0,0.0,0.0,0.0,0.0,0.0,0.0,0.0,0.0,0.0,0.0,0.0,0.0,0.0,0.0,0.0,0.0,0.0,0.0,0.0,0.0,0.0,0.0,0.0,0.0,0.0,0.0,0.0,0.0,0.0,0.0,0.0,0.0,0.0,0.0,0.0,0.0,0.0,0.0,0.0,0.0,-4.6913,-4.4218,-4.3281,-4.4103,-4.3472,-4.2272,0.0,0.0,0.0,0.0,0.0,0.0,0.0,0.0,0.0,0.0,0.0,0.0,0.0,0.0,0.0,0.0,0.0,0.0,0.0,0.0,0.0,0.0,0.0,0.0,0.0,0.0,0.0,0.0,0.0,0.0,0.0,0.0,0.0,0.0,0.0,0.0,0.0,0.0,0.0,0.0,0.0,0.0,0.0,0.0,0.0,0.0,0.0,0.0,0.0,0.0,0.0,0.0,0.0,0.0,0.0,0.0,0.0,0.0,0.0,0.0,0.0,0.0,0.0,0.0,0.0,0.0,0.0,0.0,0.0,0.0,0.0,0.0,0.0,0.0,0.0,0.0,0.0,0.0,0.0,0.0,0.0,0.0,0.0,0.0,0.0,0.0,0.0,0.0,0.0,0.0,0.0,0.0,0.0,0.0,0.0,0.0,0.0,0.0,0.0,0.0,0.0,0.0,0.0,0.0,0.0,0.0,0.0,0.0,0.0,-4.973,-5.078,-5.061,-4.9069,-4.5754,-4.3745,0.0,0.0,0.0,0.0,0.0,0.0,0.0,0.0,0.0,0.0,0.0,0.0,0.0,0.0,0.0,0.0,0.0,0.0,0.0,0.0,0.0,0.0,0.0,0.0,0.0,0.0,0.0,0.0,0.0,0.0,0.0,0.0,0.0,0.0,0.0,0.0,0.0,0.0,0.0,0.0,0.0,0.0,0.0,0.0,0.0,0.0,0.0,0.0,0.0,0.0,0.0,0.0,0.0,0.0,0.0,0.0,0.0,0.0,0.0,0.0,0.0,0.0,0.0,0.0,0.0,0.0,0.0,0.0,0.0,0.0,0.0,0.0,0.0,0.0,0.0,0.0,0.0,0.0,0.0,0.0,0.0,0.0,0.0,0.0,0.0,0.0,0.0,0.0,0.0,0.0,0.0,0.0,0.0,0.0,0.0,0.0,0.0,0.0,0.0,0.0,0.0,0.0,0.0,0.0,0.0,0.0,0.0,0.0,-5.03,-5.196,-5.5993,-5.7467,-5.6086,-4.9505,-4.5453,0.0,0.0,0.0,0.0,0.0,0.0,0.0,0.0,0.0,0.0,0.0,0.0,0.0,0.0,0.0,0.0,0.0,0.0,0.0,0.0,0.0,0.0,0.0,0.0,0.0,0.0,0.0,0.0,0.0,0.0,0.0,0.0,0.0,0.0,0.0,0.0,0.0,0.0,0.0,0.0,0.0,0.0,0.0,0.0,0.0,0.0,0.0,0.0,0.0,0.0,0.0,0.0,0.0,0.0,0.0,0.0,0.0,0.0,0.0,0.0,0.0,0.0,0.0,0.0,0.0,0.0,0.0,0.0,0.0,0.0,0.0,0.0,0.0,0.0,0.0,0.0,0.0,0.0,0.0,0.0,0.0,0.0,0.0,0.0,0.0,0.0,0.0,0.0,0.0,0.0,0.0,0.0,0.0,0.0,0.0,0.0,0.0,0.0,0.0,0.0,0.0,0.0,0.0,0.0,0.0,0.0,0.0,0.0,-5.3765,-5.4173,-6.0115,-6.3174,-6.2736,-5.3526,-4.7318,0.0,0.0,0.0,0.0,0.0,0.0,0.0,0.0,0.0,0.0,0.0,0.0,0.0,0.0,0.0,0.0,0.0,0.0,0.0,0.0,0.0,0.0,0.0,0.0,0.0,0.0,0.0,0.0,0.0,0.0,0.0,0.0,0.0,0.0,0.0,0.0,0.0,0.0,0.0,0.0,0.0,0.0,0.0,0.0,0.0,0.0,0.0,0.0,0.0,0.0,0.0,0.0,0.0,0.0,0.0,0.0,0.0,0.0,0.0,0.0,0.0,0.0,0.0,0.0,0.0,0.0,0.0,0.0,0.0,0.0,0.0,0.0,0.0,0.0,0.0,0.0,0.0,0.0,0.0,0.0,0.0,0.0,0.0,0.0,0.0,0.0,0.0,0.0,0.0,0.0,0.0,0.0,0.0,0.0,0.0,0.0,0.0,0.0,0.0,0.0,0.0,0.0,0.0,0.0,0.0,0.0,0.0,0.0,-5.5279,-5.8724,-6.2876,-6.439,-6.2998,-5.4171,-4.9123,0.0,0.0,0.0,0.0,0.0,0.0,0.0,0.0,0.0,0.0,0.0,0.0,0.0,0.0,0.0,0.0,0.0,0.0,0.0,0.0,0.0,0.0,0.0,0.0,0.0,0.0,0.0,0.0,0.0,0.0,0.0,0.0,0.0,0.0,0.0,0.0,0.0,0.0,0.0,0.0,0.0,0.0,0.0,0.0,0.0,0.0,0.0,0.0,-4.5138,0.0,0.0,0.0,0.0,0.0,0.0,0.0,0.0,0.0,0.0,0.0,0.0,0.0,0.0,0.0,0.0,0.0,0.0,0.0,0.0,0.0,0.0,0.0,0.0,0.0,0.0,0.0,0.0,0.0,0.0,0.0,0.0,0.0,0.0,0.0,0.0,0.0,0.0,0.0,0.0,0.0,0.0,0.0,0.0,0.0,0.0,0.0,0.0,0.0,0.0,0.0,0.0,0.0,0.0,0.0,0.0,0.0,0.0,0.0,-5.5744,-6.0119,-6.3724,-6.5174,-6.4018,-5.719,-5.2397,0.0,0.0,0.0,0.0,0.0,0.0,0.0,0.0,0.0,0.0,0.0,0.0,0.0,0.0,0.0,0.0,0.0,0.0,0.0,0.0,0.0,0.0,0.0,0.0,0.0,0.0,0.0,0.0,0.0,0.0,0.0,0.0,0.0,0.0,0.0,0.0,0.0,0.0,0.0,0.0,0.0,0.0,0.0,0.0,0.0,0.0,0.0,0.0,0.0,0.0,0.0,0.0,0.0,0.0,0.0,0.0,0.0,0.0,0.0,0.0,0.0,0.0,0.0,0.0,0.0,0.0,0.0,0.0,0.0,0.0,0.0,0.0,0.0,0.0,0.0,0.0,0.0,0.0,0.0,0.0,0.0,0.0,0.0,0.0,0.0,0.0,0.0,0.0,0.0,0.0,0.0,0.0,0.0,0.0,0.0,0.0,0.0,0.0,0.0,0.0,0.0,0.0,0.0,0.0,0.0,0.0,0.0,-5.1666,-5.6083,-6.1087,-6.4235,-6.5742,-6.5526,-6.0653,-5.5962,-5.1661,0.0,0.0,0.0,0.0,0.0,0.0,0.0,0.0,0.0,0.0,0.0,0.0,0.0,0.0,0.0,0.0,0.0,0.0,0.0,0.0,0.0,0.0,0.0,0.0,0.0,0.0,0.0,0.0,0.0,0.0,0.0,0.0,0.0,0.0,0.0,0.0,0.0,0.0,-4.4172,-4.3962,0.0,0.0,0.0,0.0,0.0,0.0,0.0,0.0,-4.7486,0.0,0.0,0.0,0.0,0.0,0.0,0.0,0.0,0.0,0.0,0.0,0.0,0.0,0.0,0.0,0.0,0.0,0.0,0.0,0.0,0.0,0.0,0.0,0.0,0.0,0.0,0.0,0.0,0.0,0.0,0.0,0.0,0.0,0.0,0.0,0.0,0.0,0.0,0.0,0.0,0.0,0.0,0.0,0.0,0.0,0.0,0.0,0.0,0.0,0.0,0.0,0.0,0.0,0.0,0.0,0.0,-5.2442,-5.3262,-5.7558,-6.5565,-6.6367,-6.6328,-6.5547,-6.1807,-5.802,-5.4235,0.0,0.0,0.0,0.0,0.0,0.0,0.0,0.0,0.0,0.0,0.0,0.0,0.0,0.0,0.0,0.0,0.0,0.0,0.0,0.0,0.0,0.0,0.0,0.0,0.0,0.0,0.0,0.0,0.0,0.0,0.0,0.0,0.0,0.0,0.0,0.0,0.0,0.0,0.0,-4.648,-4.6258,0.0,0.0,0.0,0.0,0.0,0.0,0.0,0.0,-4.8654,0.0,0.0,0.0,0.0,0.0,0.0,0.0,0.0,0.0,0.0,0.0,0.0,0.0,0.0,0.0,0.0,0.0,0.0,0.0,0.0,0.0,0.0,0.0,0.0,0.0,0.0,0.0,0.0,0.0,0.0,0.0,0.0,0.0,0.0,0.0,0.0,0.0,0.0,0.0,0.0,0.0,0.0,0.0,0.0,0.0,0.0,0.0,0.0,0.0,0.0,0.0,0.0,0.0,0.0,0.0,-5.4055,-5.6117,-6.0234,-6.6621,-6.6894,-6.6699,-6.6211,-6.2334,-5.8722,0.0,0.0,0.0,0.0,0.0,0.0,0.0,0.0,0.0,0.0,0.0,0.0,0.0,0.0,0.0,0.0,0.0,0.0,0.0,0.0,0.0,0.0,0.0,0.0,0.0,0.0,0.0,0.0,0.0,0.0,0.0,0.0,0.0,0.0,0.0,0.0,0.0,0.0,0.0,0.0,-4.7856,-4.7972,-4.9709,0.0,0.0,0.0,0.0,0.0,0.0,-4.9132,-4.8866,0.0,0.0,0.0,0.0,0.0,0.0,0.0,0.0,0.0,0.0,0.0,0.0,0.0,0.0,0.0,0.0,0.0,0.0,0.0,0.0,0.0,0.0,0.0,0.0,0.0,0.0,0.0,0.0,0.0,0.0,0.0,0.0,0.0,0.0,0.0,0.0,0.0,0.0,0.0,0.0,0.0,0.0,0.0,0.0,0.0,0.0,0.0,0.0,0.0,0.0,0.0,0.0,0.0,0.0,0.0,-5.4947,-5.8443,-6.2366,-6.666,-6.6894,-6.6894,-6.6797,-6.2013,-5.8336,0.0,0.0,0.0,0.0,0.0,0.0,0.0,0.0,0.0,0.0,0.0,0.0,0.0,0.0,0.0,0.0,0.0,0.0,0.0,0.0,0.0,0.0,0.0,0.0,0.0,0.0,0.0,0.0,0.0,0.0,0.0,0.0,0.0,0.0,0.0,0.0,0.0,0.0,0.0,0.0,0.0,-4.924,-5.095,-4.9707,0.0,0.0,0.0,0.0,-4.9143,-4.9396,0.0,0.0,0.0,0.0,0.0,0.0,0.0,0.0,0.0,0.0,0.0,0.0,0.0,0.0,0.0,0.0,0.0,0.0,0.0,0.0,0.0,0.0,0.0,0.0,0.0,0.0,0.0,0.0,0.0,0.0,0.0,0.0,0.0,0.0,0.0,0.0,0.0,0.0,0.0,0.0,0.0,0.0,0.0,0.0,0.0,0.0,0.0,0.0,0.0,0.0,0.0,0.0,0.0,0.0,0.0,0.0,-5.5101,-5.8492,-6.2386,-6.6621,-6.6894,-6.6894,-6.6797,-6.0201,-5.6432,0.0,0.0,0.0,0.0,0.0,0.0,0.0,0.0,0.0,0.0,0.0,0.0,0.0,0.0,0.0,0.0,0.0,0.0,0.0,0.0,0.0,0.0,0.0,0.0,0.0,0.0,0.0,0.0,0.0,0.0,0.0,0.0,0.0,0.0,0.0,0.0,0.0,0.0,0.0,0.0,0.0,-4.924,-5.095,-4.9707,-4.858,0.0,0.0,-5.0911,-5.0891,-5.2135,0.0,0.0,0.0,0.0,0.0,0.0,0.0,0.0,0.0,0.0,0.0,0.0,0.0,0.0,0.0,0.0,0.0,0.0,0.0,0.0,0.0,0.0,0.0,0.0,0.0,0.0,0.0,0.0,0.0,0.0,0.0,0.0,0.0,0.0,0.0,0.0,0.0,0.0,0.0,0.0,0.0,0.0,0.0,0.0,0.0,0.0,0.0,0.0,0.0,0.0,0.0,0.0,0.0,0.0,0.0,-5.3528,-5.6023,-6.1256,-6.4938,-6.6816,-6.6894,-6.6894,-6.6875,-5.9879,-5.6085,0.0,0.0,0.0,0.0,0.0,0.0,0.0,0.0,0.0,0.0,0.0,0.0,0.0,0.0,0.0,0.0,0.0,0.0,0.0,0.0,0.0,0.0,0.0,0.0,0.0,0.0,0.0,0.0,0.0,0.0,0.0,0.0,0.0,0.0,0.0,0.0,0.0,0.0,0.0,0.0,0.0,0.0,-5.1105,-5.0561,0.0,0.0,0.0,-5.0853,-4.9881,0.0,0.0,0.0,0.0,0.0,0.0,0.0,0.0,0.0,0.0,0.0,0.0,0.0,0.0,0.0,0.0,0.0,0.0,0.0,0.0,0.0,0.0,0.0,0.0,0.0,0.0,0.0,0.0,0.0,0.0,0.0,0.0,0.0,0.0,0.0,0.0,0.0,0.0,0.0,0.0,0.0,0.0,0.0,0.0,0.0,0.0,0.0,0.0,0.0,0.0,0.0,0.0,0.0,0.0,0.0,0.0,0.0,-5.6619,-6.3357,-6.6894,-6.6894,-6.6894,-6.6894,-6.6777,-6.0759,0.0,0.0,0.0,0.0,0.0,0.0,0.0,0.0,0.0,0.0,0.0,0.0,0.0,0.0,0.0,0.0,0.0,0.0,0.0,0.0,0.0,0.0,0.0,0.0,0.0,0.0,0.0,-4.6526,0.0,0.0,0.0,0.0,0.0,0.0,0.0,0.0,0.0,0.0,0.0,0.0,0.0,0.0,-5.1202,-5.1202,-5.1358,-5.1649,0.0,0.0,-5.1532,-5.0658,-5.3009,-5.3805,0.0,0.0,0.0,0.0,0.0,0.0,0.0,0.0,0.0,0.0,0.0,0.0,0.0,0.0,0.0,0.0,0.0,0.0,0.0,0.0,0.0,0.0,0.0,0.0,0.0,0.0,0.0,0.0,0.0,0.0,0.0,0.0,0.0,0.0,0.0,0.0,0.0,0.0,0.0,0.0,0.0,0.0,0.0,0.0,0.0,0.0,0.0,0.0,0.0,0.0,0.0,0.0,0.0,0.0,-5.6493,-5.6717,-6.3357,-6.6894,-6.6894,-6.6894,-6.6894,-6.6836,-6.3162,-5.9888,0.0,0.0,0.0,0.0,0.0,0.0,0.0,0.0,0.0,0.0,0.0,0.0,0.0,0.0,0.0,0.0,0.0,0.0,0.0,0.0,0.0,0.0,0.0,0.0,0.0,0.0,0.0,0.0,0.0,0.0,0.0,0.0,0.0,0.0,0.0,0.0,0.0,0.0,0.0,0.0,0.0,-5.1222,-5.1202,-5.1843,-5.2892,0.0,-5.4058,-5.4044,-5.5534,-5.7243,-5.7301,-5.3889,0.0,0.0,0.0,0.0,0.0,0.0,0.0,0.0,0.0,0.0,0.0,0.0,0.0,0.0,0.0,0.0,0.0,0.0,0.0,0.0,0.0,0.0,0.0,0.0,0.0,0.0,0.0,0.0,0.0,0.0,0.0,0.0,0.0,0.0,0.0,0.0,0.0,0.0,0.0,0.0,0.0,0.0,0.0,0.0,0.0,0.0,0.0,0.0,0.0,0.0,0.0,0.0,0.0,-5.6574,-5.6649,-6.3378,-6.6894,-6.6894,-6.6894,-6.6894,-6.6894,-6.338,-6.0168,0.0,0.0,0.0,0.0,0.0,0.0,0.0,0.0,0.0,0.0,0.0,0.0,0.0,0.0,0.0,0.0,0.0,0.0,0.0,0.0,0.0,0.0,0.0,0.0,0.0,0.0,0.0,0.0,-4.9803,-4.9815,-4.8829,0.0,0.0,0.0,0.0,0.0,0.0,0.0,0.0,0.0,0.0,-5.2523,-5.4116,-5.4601,0.0,0.0,-5.5514,-5.5145,-5.4763,-5.6128,-5.6113,-5.2716,-5.2645,0.0,0.0,0.0,0.0,0.0,0.0,0.0,0.0,0.0,0.0,0.0,0.0,0.0,0.0,0.0,0.0,0.0,0.0,0.0,0.0,0.0,0.0,0.0,0.0,0.0,0.0,0.0,0.0,0.0,0.0,0.0,0.0,0.0,0.0,0.0,0.0,0.0,0.0,0.0,0.0,0.0,0.0,0.0,0.0,0.0,0.0,0.0,0.0,0.0,0.0,0.0,0.0,-5.7006,-5.7025,-6.3534,-6.6894,-6.6894,-6.6894,-6.6894,-6.6836,-6.4443,-6.1802,0.0,0.0,0.0,0.0,0.0,0.0,0.0,0.0,0.0,0.0,0.0,0.0,0.0,0.0,0.0,0.0,0.0,0.0,0.0,0.0,0.0,0.0,0.0,0.0,0.0,0.0,0.0,0.0,-5.0174,-5.0025,-4.8838,0.0,0.0,0.0,0.0,0.0,0.0,0.0,0.0,0.0,0.0,-5.405,-5.537,-5.5759,-5.5928,-5.5928,-5.5713,-5.5297,-5.4616,-5.5514,-5.5486,-5.3112,0.0,0.0,0.0,0.0,0.0,0.0,0.0,0.0,0.0,0.0,0.0,0.0,0.0,0.0,0.0,0.0,0.0,0.0,0.0,0.0,0.0,0.0,0.0,0.0,0.0,0.0,0.0,-4.3546,0.0,0.0,-4.3574,0.0,0.0,0.0,0.0,0.0,0.0,0.0,0.0,0.0,0.0,0.0,0.0,0.0,0.0,0.0,0.0,0.0,0.0,0.0,0.0,0.0,0.0,-5.7845,-5.7942,-6.3808,-6.6894,-6.6894,-6.6894,-6.6894,-6.6894,-6.6797,-6.5423,-6.2577,0.0,0.0,0.0,0.0,0.0,0.0,0.0,0.0,0.0,0.0,0.0,0.0,0.0,0.0,0.0,0.0,0.0,0.0,0.0,0.0,0.0,0.0,0.0,0.0,0.0,0.0,-4.6627,-4.7855,-4.8834,0.0,0.0,0.0,0.0,0.0,0.0,0.0,0.0,0.0,-5.1089,-5.4086,-5.5617,-5.4149,-5.4615,-5.5208,-5.5233,-5.447,-5.4463,-5.6037,-5.6295,-5.6283,0.0,0.0,0.0,0.0,0.0,0.0,0.0,0.0,0.0,0.0,0.0,0.0,0.0,0.0,0.0,0.0,0.0,0.0,0.0,0.0,0.0,0.0,0.0,0.0,0.0,0.0,0.0,-4.54,-4.5446,0.0,0.0,0.0,0.0,0.0,0.0,0.0,0.0,0.0,0.0,0.0,-5.3918,-5.4231,0.0,0.0,0.0,0.0,0.0,0.0,0.0,0.0,0.0,0.0,0.0,0.0,-5.7903,-5.8177,-6.3847,-6.6894,-6.6894,-6.6894,-6.6894,-6.6894,-6.6894,-6.5622,-6.2906,0.0,0.0,0.0,0.0,0.0,0.0,0.0,0.0,0.0,0.0,0.0,0.0,0.0,0.0,0.0,0.0,0.0,0.0,0.0,0.0,0.0,0.0,0.0,0.0,0.0,-4.849,0.0,0.0,0.0,0.0,0.0,0.0,0.0,0.0,0.0,0.0,-5.0192,-5.1635,-5.3603,-5.3855,-5.4237,-5.5341,-5.5789,-5.6373,0.0,0.0,0.0,0.0,0.0,0.0,0.0,0.0,0.0,0.0,0.0,0.0,0.0,0.0,-5.4005,-5.3184,-5.396,-5.4765,-5.4824,0.0,0.0,0.0,0.0,0.0,0.0,0.0,0.0,0.0,0.0,0.0,0.0,0.0,0.0,-4.7742,-4.7292,-4.8359,0.0,0.0,0.0,0.0,0.0,0.0,0.0,0.0,-5.4364,-5.6156,-5.7462,-5.7736,-5.8146,-5.8673,-5.754,-5.5402,0.0,0.0,0.0,0.0,0.0,0.0,0.0,0.0,-5.8289,-5.8494,-6.3962,-6.6894,-6.6894,-6.6894,-6.6894,-6.6894,-6.6894,-6.5937,-6.3901,-6.0737,-5.8348,0.0,0.0,0.0,0.0,0.0,0.0,0.0,0.0,0.0,0.0,0.0,0.0,0.0,0.0,0.0,0.0,0.0,0.0,0.0,0.0,0.0,0.0,0.0,-4.9861,0.0,0.0,0.0,0.0,0.0,0.0,0.0,0.0,0.0,-5.1029,-5.1979,-5.3442,-5.5389,-5.5182,-5.5002,-5.5463,0.0,0.0,0.0,0.0,0.0,0.0,0.0,-5.3751,-5.3247,-5.3663,-5.4415,-5.5555,-5.6149,-5.6488,-5.6488,0.0,0.0,-5.5093,-5.5706,-5.6522,-5.6559,-5.6072,-5.5838,-5.6442,-5.6074,-5.5797,0.0,0.0,0.0,0.0,-4.6501,0.0,0.0,0.0,-5.1099,-5.0514,0.0,-5.0793,0.0,0.0,0.0,0.0,-5.0454,-5.3629,0.0,0.0,-6.0408,-6.2538,-6.1747,-6.1005,-6.1453,-6.276,-5.9671,-5.8534,-5.9195,-5.7705,0.0,0.0,0.0,0.0,0.0,0.0,-5.9079,-5.9228,-6.425,-6.6894,-6.6894,-6.6894,-6.6894,-6.6894,-6.6894,-6.6504,-6.5586,-6.3163,-6.1385,-6.0428,-5.6476,0.0,0.0,0.0,0.0,0.0,0.0,0.0,0.0,0.0,0.0,0.0,0.0,0.0,0.0,0.0,0.0,0.0,0.0,0.0,0.0,-5.1382,0.0,0.0,0.0,0.0,0.0,0.0,0.0,0.0,0.0,-5.2813,-5.2768,-5.4105,-5.5467,-5.6254,0.0,0.0,0.0,0.0,-5.5276,-5.2197,-5.1613,-5.1687,-5.1783,-5.3033,-5.4577,-5.6192,0.0,0.0,-5.8959,-5.7697,-5.6764,-5.6706,-5.8111,-5.8641,-5.6925,-5.6782,-5.6816,-5.6836,-5.6855,-5.6699,-5.6715,-5.6932,-5.68,-5.1068,0.0,0.0,0.0,0.0,-5.0204,-5.1273,-5.2917,-5.3145,-5.2967,-5.2574,-5.3689,0.0,0.0,0.0,0.0,0.0,0.0,-5.6269,-5.8086,-6.082,-6.2909,-6.4472,-6.4862,-6.5292,-6.5702,-6.4743,-6.4411,-6.4627,-6.4179,-6.0895,-5.4984,0.0,0.0,0.0,0.0,-5.9983,-6.1903,-6.5175,-6.6894,-6.6894,-6.6894,-6.6894,-6.6894,-6.6894,-6.6777,-6.6523,-6.5215,-6.3496,-6.1405,-5.9567,0.0,0.0,0.0,0.0,0.0,0.0,0.0,0.0,0.0,0.0,0.0,0.0,0.0,0.0,0.0,0.0,0.0,0.0,0.0,-5.1381,-5.3002,-5.3055,0.0,0.0,0.0,0.0,0.0,0.0,0.0,0.0,0.0,-5.5445,-5.4779,-5.4448,0.0,0.0,-5.3228,-5.2262,-5.3589,-5.4799,-5.5075,-5.5099,0.0,-5.6723,-5.6287,-5.5989,-5.6497,-5.7955,-5.9065,-5.9073,-5.9697,-6.0205,-6.0185,-6.0603,-6.0756,-6.0336,-6.019,-6.0182,-6.0222,-6.0202,-6.0222,-6.02,-6.0152,-6.0083,-5.4419,-5.3338,-5.1971,-5.1789,-5.241,-5.2425,-5.3418,-5.5056,-5.5388,-5.5147,-5.4589,-5.6164,-5.5482,-5.3242,-5.4466,0.0,0.0,0.0,-5.9238,-6.1717,-6.2773,-6.4277,-6.6074,-6.664,-6.6894,-6.6894,-6.6894,-6.6894,-6.6875,-6.5819,-6.2984,-5.8449,0.0,-5.6185,-5.6782,-5.9337,-6.1373,-6.2936,-6.5545,-6.6894,-6.6894,-6.6894,-6.6894,-6.6894,-6.6894,-6.6894,-6.6875,-6.6055,-6.4726,-6.2812,-6.1229,-5.8942,0.0,0.0,0.0,0.0,0.0,0.0,0.0,0.0,0.0,0.0,0.0,-5.1901,-5.0943,0.0,0.0,0.0,-5.3435,-5.3403,-5.337,-5.418,0.0,0.0,0.0,0.0,0.0,0.0,0.0,-5.28,-5.4984,-5.6604,-5.6586,-5.5689,-5.5279,-5.5923,-5.5103,-5.4205,-5.3541,0.0,-5.6157,-5.6547,-5.6604,-5.6938,-5.7951,-5.7836,-5.7797,-5.8519,-5.9434,-6.0098,-6.0156,-6.1035,-6.1679,-6.1698,-6.1698,-6.1698,-6.1698,-6.1698,-6.1698,-6.1698,-6.1698,-6.1698,-6.1698,-6.1666,-6.1634,-5.6651,-5.6429,-5.3261,-5.2869,-5.4271,-5.4309,-5.5246,-5.6827,-5.7647,-5.7069,-5.5739,-5.8164,-5.7558,-5.4765,-5.6347,0.0,-5.9585,-6.125,-6.3261,-6.5605,-6.5664,-6.6133,-6.6875,-6.6894,-6.6894,-6.6894,-6.6894,-6.6894,-6.6777,-6.4429,-6.3138,-6.2987,-6.2987,-6.1726,-5.9488,-6.1705,-6.2997,-6.3059,-6.56,-6.6894,-6.6894,-6.6894,-6.6894,-6.6894,-6.6894,-6.6894,-6.6875,-6.6133,-6.5312,-6.4394,-6.205,-5.9881,-5.8065,0.0,0.0,0.0,0.0,0.0,0.0,0.0,0.0,0.0,0.0,0.0,0.0,0.0,0.0,-5.6255,-5.6584,0.0,-5.6624,-5.5213,0.0,0.0,0.0,-5.4849,-5.643,-5.6721,-5.674,-5.6623,0.0,0.0,-5.6801,-5.6801,-5.7426,-5.9083,-5.9083,-5.8341,-5.6821,-5.7894,-5.8538,-5.7096,-5.6959,-5.7038,-5.7528,-5.8484,-5.9773,-6.1137,-6.1701,-6.1603,-6.1581,-6.164,-6.1698,-6.1698,-6.1698,-6.1698,-6.1698,-6.1698,-6.1698,-6.1698,-6.1698,-6.1698,-6.1698,-6.1698,-6.1696,-5.6987,-5.7528,-5.6693,-5.66,-5.6972,-5.697,-5.7554,-5.8507,-5.8741,-5.8609,-5.8339,-5.9569,-6.037,-6.0859,-6.1289,-6.205,-6.3125,-6.418,-6.5,-6.5644,-6.6289,-6.6699,-6.6894,-6.6894,-6.6894,-6.6894,-6.6894,-6.6894,-6.6875,-6.6269,-6.494,-6.3084,-6.2987,-6.2673,-6.2081,-6.2627,-6.3919,-6.5895,-6.6562,-6.6894,-6.6894,-6.6894,-6.6894,-6.6894,-6.6894,-6.6894,-6.6894,-6.6699,-6.6191,-6.5312,-6.4062,-6.2011,-5.9022,-5.7045,0.0,0.0,0.0,0.0,0.0,0.0,0.0,0.0,0.0,-5.3332,-5.2115,0.0,-5.4053,0.0,-5.6951,-5.8487,-5.846,-5.8094,0.0,0.0,-5.6211,-5.6138,-5.6567,-5.7738,-5.8009,-5.674,-5.7719,-5.8497,-5.8497,-5.8497,-5.9141,-6.0781,-5.8829,-5.7055,-5.6684,-5.8039,-5.898,-5.8689,-5.9573,-6.0454,-6.0396,-6.0786,-6.1193,-6.1637,-6.1713,-6.1711,-6.1701,-6.1698,-6.1698,-6.1698,-6.1698,-6.1698,-6.1701,-6.1698,-6.1698,-6.1698,-6.1698,-6.1698,-6.1698,-6.1698,-6.1698,-5.7638,-5.843,-5.8433,-5.8652,-5.8984,-5.8632,-5.8729,-5.9157,-5.9528,-5.9686,-5.9804,-6.1015,-6.209,-6.3046,-6.3808,-6.4432,-6.492,-6.578,-6.6171,-6.621,-6.666,-6.6894,-6.6894,-6.6894,-6.6894,-6.6894,-6.6894,-6.6894,-6.6894,-6.6894,-6.6152,-6.4765,-6.4726,-6.4746,-6.4628,-6.2397,-6.1947,-6.3416,-6.457,-6.5722,-6.6855,-6.6894,-6.6347,-6.5215,-6.5156,-6.4609,-6.3475,-6.3436,-6.3045,-6.2206,-6.1717,-6.0252,-5.7614,-5.6184,-5.4637,0.0,0.0,0.0,0.0,0.0,0.0,0.0,0.0,0.0,0.0,0.0,-5.5087,-5.5159,-5.7562,-5.8792,-5.8068,-5.7992,-5.7914,-5.7738,-5.7719,-5.8011,-5.8773,-5.971,-5.9902,-5.8987,-5.969,-6.0256,-6.0254,-6.0241,-6.0575,-6.1573,-6.0052,-5.8882,-5.8939,-5.9725,-6.0259,-6.0318,-6.1082,-6.1709,-6.1709,-6.1709,-6.1708,-6.1704,-6.1702,-6.1701,-6.1715,-6.1713,-6.1715,-6.1715,-6.1715,-6.1715,-6.1715,-6.1715,-6.1715,-6.1715,-6.1715,-6.1711,-6.1701,-6.1698,-6.1698,-5.8471,-5.9237,-5.9258,-5.9764,-6.0503,-5.994,-5.9609,-5.959,-6.039,-6.0801,-6.0996,-6.25,-6.3222,-6.3434,-6.4919,-6.5658,-6.581,-6.6557,-6.6891,-6.6891,-6.6894,-6.6894,-6.6894,-6.6894,-6.6894,-6.6894,-6.6894,-6.6894,-6.6894,-6.6894,-6.6738,-6.6426,-6.6406,-6.623,-6.5722,-6.1363,-5.9427,-6.0112,-6.2029,-6.4101,-6.6328,-6.6074,-6.4824,-6.2635,-6.2498,-6.1442,-5.9231,-5.9114,-5.8782,-5.8099,-5.7962,-5.7278,-5.5872,-5.4872,-5.4087,0.0,-5.2713,0.0,0.0,0.0,0.0,0.0,0.0,0.0,0.0,-5.6604,-5.6701,-5.6879,-5.8243,-5.8597,-5.7367,-5.725,-5.7836,-5.9239,-5.9436,-6.0044,-6.1488,-6.1703,-6.1705,-6.1703,-6.1703,-6.1703,-6.1647,-6.1713,-6.1699,-6.1701,-6.1569,-6.1376,-6.1606,-6.155,-6.1574,-6.171,-6.171,-6.1712,-6.1712,-6.1711,-6.1711,-6.171,-6.171,-6.1709,-6.1708,-6.1708,-6.1708,-6.1708,-6.1708,-6.1708,-6.1709,-6.1708,-6.1708,-6.1708,-6.1708,-6.1704,-6.1709,-6.1703,-6.1701,-5.9248,-5.999,-6.0046,-6.0573,-6.1405,-6.2018,-6.1891,-6.1288,-6.2129,-6.291,-6.3574,-6.3905,-6.4432,-6.5114,-6.5462,-6.5986,-6.665,-6.6827,-6.6905,-6.6905,-6.6891,-6.6892,-6.6893,-6.6894,-6.6894,-6.6894,-6.6894,-6.6894,-6.6894,-6.6894,-6.582,-6.3788,-6.3729,-6.2674,-6.064,0.0,0.0,0.0,-6.3827,-6.3241,-6.3651,-6.1638,-6.0328,-5.9858,-5.9838,0.0,-5.9153,-5.9114,-5.9036,-5.886,-5.8255,0.0,0.0,0.0,0.0,0.0,0.0,0.0,0.0,0.0,0.0,0.0,-5.7576,-5.6928,-5.6626,-5.6604,-5.7172,-5.8497,-5.8927,-5.9551,-6.0625,-6.0725,-6.0859,-6.1154,-6.1202,-6.1342,-6.1676,-6.1701,-6.1705,-6.1705,-6.1704,-6.1705,-6.1704,-6.1707,-6.1707,-6.1708,-6.1712,-6.1715,-6.1715,-6.1715,-6.1716,-6.1716,-6.1717,-6.1698,-6.1699,-6.1699,-6.1717,-6.1716,-6.1716,-6.1714,-6.171,-6.1709,-6.1709,-6.1709,-6.1709,-6.1709,-6.1709,-6.1709,-6.1709,-6.1709,-6.1709,-6.1708,-6.1705,-6.1699,-6.1715,-6.0084,-6.0831,-6.087,-6.1143,0.0,-6.2562,-6.2718,-6.2413,-6.3261,-6.3886,-6.4335,-6.4744,-6.519,-6.5633,-6.6021,-6.6446,-6.6852,-6.6836,-6.6857,-6.6859,-6.6885,-6.6889,-6.6889,-6.689,-6.6892,-6.6892,-6.6892,-6.6892,-6.6892,-6.6892,-6.6227,-6.4937,-6.4937,-6.4253,-6.3003,-6.2947,-6.3632,-6.496,-6.3671,-6.3612,-6.4804,-6.3632,-6.2322,-6.107,-6.1031,0.0,0.0,0.0,0.0,0.0,0.0,0.0,0.0,-5.8334,0.0,-5.9078,-5.8724,-5.9053,-6.026,-6.0394,-6.0742,-6.1592,-6.128,-6.0104,-5.8011,-5.8614,-5.9454,-6.0293,-6.0371,-6.0746,-6.159,-6.1709,-6.1711,-6.1715,-6.1701,-6.1704,-6.1704,-6.1707,-6.1709,-6.1709,-6.1709,-6.1709,-6.1709,-6.1711,-6.1713,-6.1713,-6.1717,-6.1699,-6.1698,-6.1698,-6.1698,-6.1698,-6.1699,-6.1699,-6.1699,-6.1699,-6.1699,-6.1699,-6.1698,-6.1698,-6.1716,-6.1716,-6.1716,-6.1716,-6.1716,-6.1716,-6.1716,-6.1716,-6.1716,-6.1716,-6.1716,-6.1716,-6.1716,-6.171,-6.1704,-6.0807,-6.1454,-6.1456,-6.1495,-6.1563,-6.2646,-6.3323,-6.3712,-6.4295,0.0,0.0,-6.5504,-6.5832,-6.5879,-6.65,-6.6807,-6.68,-6.6807,-6.6809,-6.6811,-6.6859,-6.6881,-6.6881,-6.6902,-6.6904,-6.6904,-6.6904,-6.6904,-6.6904,-6.6904,-6.6904,-6.6904,-6.6904,-6.6906,-6.6892,-6.6894,-6.584,-6.3788,-6.3222,-6.4042,-6.6133,-6.5761,-6.4491,-6.2361,-6.2322,-6.1305,-5.9212,-5.9114,-5.9114,-5.9114,-5.9114,-5.9252,-5.9545,-5.9564,-5.978,-6.021,-6.0249,-6.0929,-6.2485,-6.2617,-6.3158,-6.4436,-6.4536,-6.3264,-6.0237,-6.133,-6.2149,-6.2169,-6.2169,-6.2156,-6.2166,-6.2168,-6.2152,-6.2157,-6.216,-6.2179,-6.2179,-6.2141,-6.224,-6.2142,-6.2083,-6.1927,-6.1947,-6.1813,-6.1717,-6.1717,-6.1699,-6.1699,-6.1699,-6.1699,-6.1699,-6.1699,-6.1699,-6.1699,-6.1699,-6.1699,-6.1699,-6.1699,-6.1699,-6.1699,-6.1699,-6.1699,-6.1699,-6.1699,-6.1699,-6.1699,-6.1699,-6.1699,-6.1699,-6.1699,-6.1699,-6.1699,-6.1699,-6.1717,-6.1712,-6.1204,-6.1337,-6.1388,-6.1409,-6.153,-6.32,-6.4818,-6.6192,-6.5664,-6.5839,-6.6543,-6.6655,-6.6711,-6.6733,-6.6781,-6.6811,-6.6809,-6.6802,-6.6798,-6.68,-6.6809,-6.6815,-6.6815,-6.686,-6.6904,-6.6904,-6.6904,-6.6904,-6.6904,-6.6904,-6.6904,-6.6904,-6.6904,-6.6906,-6.6891,-6.6892,-6.6718,-6.6328,-6.414,-6.3163,-6.3495,-6.1345,-6.0034,-5.9681,-5.9759,-5.9506,-5.9134,-5.9192,-5.9114,-5.9114,-5.9114,-5.976,-6.1229,-6.1365,-6.2323,-6.4472,-6.4686,-6.5133,-6.6069,-6.6118,-6.5889,-6.547,-6.5419,-6.4855,-6.3733,-6.3789,-6.3948,-6.3928,-6.3857,-6.3941,-6.3943,-6.3871,-6.3818,-6.3858,-6.3921,-6.3923,-6.3845,-6.3827,-6.3808,-6.3789,-6.3242,-6.2812,-6.2754,-6.2226,-6.1836,-6.1758,-6.1758,-6.1699,-6.1699,-6.1699,-6.1699,-6.1699,-6.1699,-6.1699,-6.1699,-6.1699,-6.1699,-6.1699,-6.1699,-6.1699,-6.1699,-6.1699,-6.1699,-6.1699,-6.1699,-6.1699,-6.1699,-6.1699,-6.1699,-6.1699,-6.1699,-6.1699,-6.1699,-6.1699,-6.1699,-6.1322,-6.1306,-6.1318,-6.1371,-6.1551,-6.3331,-6.486,-6.6075,-6.6201,-6.6463,-6.6816,-6.6836,-6.6854,-6.6852,-6.6806,-6.6797,-6.6811,-6.6802,-6.6798,-6.6798,-6.6802,-6.6805,-6.6805,-6.6828,-6.685,-6.685,-6.685,-6.685,-6.683,-6.685,-6.683,-6.6852,-6.6856,-6.6862,-6.6888,-6.689,-6.6893,-6.6875,-6.5722,-6.5117,-6.5097,-6.3944,-6.3319,-6.3319,-6.3319,-6.3338,-6.3338,-6.3338,-6.3338,-6.3338,-6.3338,-6.371,-6.4453,-6.4531,-6.5058,-6.6211,-6.6308,-6.6483,-6.6872,-6.6865,-6.6701,-6.6327,-6.6311,-6.6154,-6.5741,-6.4843,-6.4294,-6.4308,-6.4296,-6.4302,-6.4302,-6.4309,-6.4312,-6.4295,-6.4296,-6.4296,-6.4296,-6.4297,-6.4297,-6.4277,-6.3965,-6.3711,-6.3691,-6.3359,-6.2871,-6.2519,-6.207,-6.1738,-6.1719,-6.1699,-6.1699,-6.1699,-6.1699,-6.1699,-6.1699,-6.1699,-6.1699,-6.1699,-6.1699,-6.1699,-6.1699,-6.1699,-6.1699,-6.1699,-6.1699,-6.1699,-6.1699,-6.1699,-6.1699,-6.1699,-6.1699,-6.1699,-6.1699,-6.1699,-6.1699,-6.1317,-6.1317,-6.1317,-6.145,-6.1809,-6.3199,-6.4439,-6.5523,-6.6179,-6.659,-6.676,-6.6788,-6.6795,-6.6796,-6.6812,-6.6806,-6.6815,-6.6802,-6.6798,-6.6798,-6.6798,-6.6798,-6.6798,-6.6798,-6.6798,-6.6798,-6.6798,-6.6798,-6.6798,-6.6798,-6.6798,-6.6798,-6.6805,-6.6834,-6.6904,-6.6889,-6.6892,-6.6894,-6.6894,-6.6894,-6.6894,-6.6894,-6.6894,-6.6894,-6.6875,-6.6894,-6.6894,-6.6894,-6.6894,-6.6894,-6.6894,-6.6894,-6.6894,-6.6894,-6.6894,-6.6894,-6.6894,-6.6894,-6.6892,-6.6889,-6.6905,-6.6904,-6.6905,-6.6885,-6.6789,-6.5677,-6.4894,-6.4887,-6.4969,-6.4934,-6.4974,-6.4938,-6.4882,-6.4883,-6.4883,-6.5,-6.4902,-6.4883,-6.4883,-6.4883,-6.4726,-6.457,-6.457,-6.4433,-6.4004,-6.332,-6.2539,-6.2012,-6.1992,-6.1855,-6.1699,-6.1699,-6.1699,-6.1699,-6.1699,-6.1699,-6.1699,-6.1699,-6.1699,-6.1699,-6.1699,-6.1699,-6.1699,-6.1699,-6.1699,-6.1699,-6.1699,-6.1699,-6.1699,-6.1699,-6.1699,-6.1699,-6.1699,-6.1699,-6.1699,-6.1317,-6.1317,-6.1325,-6.1795,-6.2523,-6.2836,-6.39,-6.5313,-6.5533,-6.5991,-6.6633,-6.6773,-6.6782,-6.681,-6.6796,-6.6834,-6.6881,-6.6826,-6.6798,-6.6798,-6.6798,-6.6798,-6.6798,-6.6798,-6.6798,-6.6798,-6.6798,-6.6798,-6.6798,-6.6798,-6.6798,-6.6798,-6.6798,-6.6828,-6.6902,-6.6904,-6.689,-6.6894,-6.6894,-6.6894,-6.6894,-6.6894,-6.6894,-6.6894,-6.6894,-6.6894,-6.6894,-6.6894,-6.6894,-6.6894,-6.6894,-6.6894,-6.6894,-6.6894,-6.6894,-6.6894,-6.6894,-6.6894,-6.6892,-6.6891,-6.689,-6.6905,-6.6889,-6.6891,-6.6891,-6.6737,-6.6639,-6.6556,-6.6615,-6.654,-6.6657,-6.6581,-6.6484,-6.6426,-6.6484,-6.668,-6.6543,-6.666,-6.668,-6.666,-6.5879,-6.5469,-6.541,-6.4883,-6.4355,-6.4199,-6.3418,-6.2871,-6.2812,-6.2265,-6.1836,-6.1777,-6.1719,-6.1699,-6.1699,-6.1699,-6.1699,-6.1699,-6.1699,-6.1699,-6.1699,-6.1699,-6.1699,-6.1699,-6.1699,-6.1699,-6.1699,-6.1699,-6.1699,-6.1699,-6.1699,-6.1699,-6.1699,-6.1699,-6.1699,-6.1314,-6.1318,-6.1318,-6.155,-6.203,-6.3035,-6.391,-6.4616,-6.5678,-6.604,-6.5882,-6.5941,-6.6288,-6.68,-6.681,-6.6816,-6.6838,-6.6805,-6.6798,-6.6798,-6.6798,-6.6798,-6.6798,-6.6798,-6.6798,-6.6798,-6.6798,-6.6798,-6.6798,-6.6798,-6.6798,-6.6798,-6.6798,-6.6824,-6.6836,-6.6881,-6.6889,-6.6893,-6.6894,-6.6894,-6.6894,-6.6894,-6.6894,-6.6894,-6.6894,-6.6894,-6.6894,-6.6894,-6.6894,-6.6894,-6.6894,-6.6894,-6.6894,-6.6894,-6.6894,-6.6894,-6.6894,-6.6894,-6.6894,-6.6894,-6.6894,-6.6892,-6.6893,-6.6894,-6.6894,-6.6894,-6.6894,-6.6893,-6.6894,-6.6894,-6.6892,-6.6894,-6.6894,-6.6894,-6.6894,-6.6894,-6.6894,-6.6894,-6.6894,-6.6875,-6.6601,-6.6348,-6.625,-6.5605,-6.5117,-6.4961,-6.4316,-6.3789,-6.3711,-6.3027,-6.2539,-6.2402,-6.207,-6.1738,-6.1699,-6.1699,-6.1699,-6.1699,-6.1699,-6.1699,-6.1699,-6.1699,-6.1699,-6.1699,-6.1699,-6.1699,-6.1699,-6.1699,-6.1699,-6.1699,-6.1699,-6.1699,-6.1699,-6.1699,-6.1699,-6.131,-6.1322,-6.131,-6.1488,-6.1827,-6.2827,-6.3566,-6.4072,-6.511,-6.5311,-6.4973,-6.4988,-6.5397,-6.5989,-6.6085,-6.6093,-6.6151,-6.6353,-6.6463,-6.6502,-6.668,-6.6798,-6.6798,-6.6798,-6.6798,-6.6798,-6.6798,-6.6798,-6.6798,-6.6798,-6.6798,-6.6798,-6.6798,-6.6802,-6.6811,-6.686,-6.6906,-6.6892,-6.6894,-6.6894,-6.6894,-6.6894,-6.6894,-6.6894,-6.6894,-6.6894,-6.6894,-6.6894,-6.6894,-6.6894,-6.6894,-6.6894,-6.6894,-6.6894,-6.6894,-6.6894,-6.6894,-6.6894,-6.6894,-6.6894,-6.6894,-6.6894,-6.6894,-6.6894,-6.6894,-6.6894,-6.6894,-6.6894,-6.6894,-6.6894,-6.6893,-6.6894,-6.6894,-6.6894,-6.6894,-6.6894,-6.6894,-6.6894,-6.6894,-6.6894,-6.6855,-6.6894,-6.6816,-6.6328,-6.5957,-6.5859,-6.5215,-6.4648,-6.4531,-6.3926,-6.3359,-6.334,-6.2812,-6.2265,-6.1855,-6.1699,-6.1699,-6.1699,-6.1699,-6.1699,-6.1699,-6.1699,-6.1699,-6.1699,-6.1699,-6.1699,-6.1699,-6.1699,-6.1699,-6.1699,-6.1699,-6.1699,-6.1699,-6.1699,-6.1699,-6.1322,-6.131,-6.1359,-6.184,-6.2585,-6.1924,-6.2507,-6.3874,-6.3311,-6.3369,-6.4026,-6.4079,-6.4115,-6.4228,-6.4296,-6.4368,-6.4568,-6.5297,-6.5643,-6.5722,-6.6385,-6.6778,-6.6798,-6.6798,-6.6798,-6.6798,-6.6798,-6.6798,-6.6798,-6.6798,-6.6798,-6.6798,-6.6798,-6.6802,-6.6811,-6.688,-6.6906,-6.6891,-6.6894,-6.6894,-6.6894,-6.6894,-6.6894,-6.6894,-6.6894,-6.6894,-6.6894,-6.6894,-6.6894,-6.6894,-6.6894,-6.6894,-6.6894,-6.6894,-6.6894,-6.6894,-6.6894,-6.6894,-6.6894,-6.6894,-6.6894,-6.6894,-6.6894,-6.6894,-6.6894,-6.6894,-6.6894,-6.6894,-6.6894,-6.6894,-6.6894,-6.6894,-6.6894,-6.6894,-6.6894,-6.6894,-6.6894,-6.6894,-6.6894,-6.6894,-6.6894,-6.6894,-6.6894,-6.6894,-6.6758,-6.6601,-6.6055,-6.5547,-6.541,-6.4785,-6.4316,-6.4238,-6.4023,-6.3613,-6.2168,-6.1914,-6.1855,-6.1699,-6.1699,-6.1719,-6.1719,-6.1699,-6.1699,-6.1699,-6.1699,-6.1699,-6.1699,-6.1699,-6.1699,-6.1699,-6.1699,-6.1699,-6.1699,-6.1699,-6.1699,-6.1318,-6.1378,-6.1386,-6.1606,-6.1866,-6.2119,-6.2604,-6.3187,-6.3439,-6.3379,-6.3192,-6.321,-6.2967,-6.2496,-6.2572,-6.3238,-6.4265,-6.4631,-6.4765,-6.4863,-6.5624,-6.6034,-6.6092,-6.6541,-6.6798,-6.6798,-6.6798,-6.6798,-6.6798,-6.6798,-6.6798,-6.6798,-6.6798,-6.6798,-6.6805,-6.6857,-6.6905,-6.6888,-6.6893,-6.6894,-6.6894,-6.6894,-6.6894,-6.6894,-6.6894,-6.6894,-6.6894,-6.6894,-6.6894,-6.6894,-6.6894,-6.6894,-6.6894,-6.6894,-6.6894,-6.6894,-6.6894,-6.6894,-6.6894,-6.6894,-6.6894,-6.6894,-6.6894,-6.6894,-6.6894,-6.6894,-6.6894,-6.6894,-6.6894,-6.6894,-6.6894,-6.6894,-6.6894,-6.6894,-6.6894,-6.6894,-6.6894,-6.6894,-6.6894,-6.6894,-6.6894,-6.6894,-6.6894,-6.6894,-6.6894,-6.6875,-6.6601,-6.6426,-6.6289,-6.5683,-6.5117,-6.5039,-6.4648,-6.4101,-6.3613,-6.2851,-6.2422,-6.1933,-6.1719,-6.1719,-6.1719,-6.1719,-6.1699,-6.1699,-6.1699,-6.1699,-6.1699,-6.1699,-6.1699,-6.1699,-6.1699,-6.1699,-6.1699,-6.1699,-6.1699,-6.1352,-6.1393,-6.1393,-6.1568,-6.1847,-6.2157,-6.2449,-6.2701,-6.3012,-6.2841,-6.2372,-6.2373,-6.2073,-6.166,-6.168,-6.2286,-6.3418,-6.3731,-6.3887,-6.3965,-6.4785,-6.5175,-6.5312,-6.6014,-6.6405,-6.6463,-6.67,-6.6798,-6.6798,-6.6798,-6.6798,-6.6798,-6.6798,-6.6798,-6.682,-6.6856,-6.6904,-6.6906,-6.6893,-6.6894,-6.6933,-6.7187,-6.7324,-6.7363,-6.7558,-6.7422,-6.6953,-6.6894,-6.7051,-6.7265,-6.7324,-6.7441,-6.7695,-6.7461,-6.7305,-6.7285,-6.7031,-6.6894,-6.6894,-6.6894,-6.6894,-6.6894,-6.6894,-6.6894,-6.6894,-6.6894,-6.6894,-6.6894,-6.6894,-6.6894,-6.6894,-6.6894,-6.6894,-6.6894,-6.6894,-6.6894,-6.6894,-6.6894,-6.6894,-6.6894,-6.6894,-6.6894,-6.6894,-6.6894,-6.6894,-6.6894,-6.6894,-6.6894,-6.6797,-6.6445,-6.6015,-6.5976,-6.5605,-6.5137,-6.4726,-6.4199,-6.3301,-6.2695,-6.2187,-6.2051,-6.1797,-6.1777,-6.1699,-6.1699,-6.1699,-6.1699,-6.1699,-6.1699,-6.1699,-6.1699,-6.1699,-6.1699,-6.1699,-6.1699,-6.1699,-6.1393,-6.1393,-6.1393,-6.1827,-6.2332,-6.1781,-6.1917,-6.2429,-6.1873,-6.1653,-6.1654,-6.1562,-6.1649,-6.1601,-6.1678,-6.1776,-6.2032,-6.2676,-6.3008,-6.3086,-6.3887,-6.4299,-6.4338,-6.5175,-6.5663,-6.5761,-6.6444,-6.6798,-6.6798,-6.6798,-6.6798,-6.6798,-6.6798,-6.6798,-6.6798,-6.6856,-6.6883,-6.6926,-6.6971,-6.6992,-6.7012,-6.7773,-6.8183,-6.8281,-6.8867,-6.8535,-6.7109,-6.7051,-6.7461,-6.8086,-6.8222,-6.8613,-6.9062,-6.8613,-6.8203,-6.8086,-6.7422,-6.6992,-6.6972,-6.6933,-6.6894,-6.6894,-6.6894,-6.6894,-6.6894,-6.6894,-6.6894,-6.6894,-6.6894,-6.6894,-6.6894,-6.6894,-6.6894,-6.6894,-6.6894,-6.6894,-6.6894,-6.6894,-6.6894,-6.6894,-6.6894,-6.6894,-6.6894,-6.6894,-6.6894,-6.6894,-6.6894,-6.6894,-6.6894,-6.6758,-6.6836,-6.6816,-6.6523,-6.6094,-6.582,-6.5469,-6.4453,-6.3555,-6.3047,-6.2656,-6.2148,-6.1953,-6.1738,-6.1699,-6.1699,-6.1699,-6.1699,-6.1699,-6.1699,-6.1699,-6.1699,-6.1699,-6.1699,-6.1699,-6.1699,-6.1393,-6.1393,-6.1393,-6.1555,-6.1769,-6.1509,-6.1587,-6.1776,-6.1536,-6.15,-6.1504,-6.1549,-6.1621,-6.1666,-6.1686,-6.1698,-6.1737,-6.1993,-6.211,-6.2286,-6.3008,-6.3399,-6.3574,-6.4297,-6.5019,-6.5643,-6.6424,-6.6798,-6.6798,-6.6798,-6.6798,-6.6798,-6.6817,-6.6798,-6.6837,-6.6811,-6.6838,-6.6962,-6.7516,-6.7792,-6.7871,-6.8594,-6.9023,-6.9062,-6.9277,-6.914,-6.873,-6.8652,-6.875,-6.9023,-6.9062,-6.9199,-6.9336,-6.918,-6.9043,-6.8945,-6.8262,-6.7812,-6.7715,-6.7226,-6.6894,-6.6894,-6.6894,-6.6894,-6.6894,-6.6894,-6.6894,-6.6894,-6.6894,-6.6894,-6.6894,-6.6894,-6.6894,-6.6894,-6.6894,-6.6894,-6.6894,-6.6894,-6.6894,-6.6894,-6.6894,-6.6894,-6.6894,-6.6894,-6.6894,-6.6894,-6.6894,-6.6894,-6.6894,-6.6894,-6.6894,-6.6894,-6.6855,-6.6855,-6.6465,-6.6172,-6.5605,-6.4648,-6.4004,-6.3164,-6.2598,-6.2168,-6.1933,-6.1699,-6.1699,-6.1699,-6.1699,-6.1699,-6.1699,-6.1699,-6.1699,-6.1699,-6.1699,-6.1699,-6.1699,-6.1393,-6.1393,-6.1393,-6.1393,-6.1393,-6.1393,-6.1393,-6.1394,-6.1479,-6.1502,-6.151,-6.1579,-6.1616,-6.1688,-6.1698,-6.1698,-6.1698,-6.1698,-6.1698,-6.1757,-6.2208,-6.2501,-6.2637,-6.3399,-6.4492,-6.5487,-6.6112,-6.6522,-6.6798,-6.6798,-6.6798,-6.6817,-6.7107,-6.7303,-6.7344,-6.7607,-6.7793,-6.79,-6.8374,-6.8631,-6.8808,-6.9453,-6.9902,-6.9941,-7.0195,-7.0371,-7.041,-7.039,-7.0215,-7.0039,-7.0215,-7.041,-7.0351,-7.0097,-6.9883,-6.9687,-6.8867,-6.8203,-6.8125,-6.7383,-6.6894,-6.6894,-6.6894,-6.6894,-6.6894,-6.6894,-6.6894,-6.6894,-6.6894,-6.6894,-6.6894,-6.6894,-6.6894,-6.6894,-6.6894,-6.6894,-6.6894,-6.6894,-6.6894,-6.6894,-6.6894,-6.6894,-6.6894,-6.6894,-6.6894,-6.6894,-6.6894,-6.6894,-6.6894,-6.6894,-6.6894,-6.6894,-6.6894,-6.6875,-6.6894,-6.6758,-6.6621,-6.582,-6.498,-6.3945,-6.3066,-6.2656,-6.2363,-6.1875,-6.1699,-6.1699,-6.1699,-6.1699,-6.1699,-6.1699,-6.1699,-6.1699,-6.1699,-6.1699,-6.1699,-6.14,-6.14,-6.14,-6.1407,-6.1414,-6.1401,-6.1415,-6.1428,-6.1476,-6.1508,-6.1518,-6.1581,-6.1633,-6.1686,-6.1698,-6.1698,-6.1698,-6.1698,-6.1698,-6.1698,-6.1815,-6.1854,-6.1974,-6.2755,-6.3965,-6.5234,-6.5604,-6.6073,-6.6778,-6.6954,-6.6876,-6.7049,-6.7771,-6.8161,-6.8281,-6.8974,-6.9199,-6.9149,-6.9389,-6.9471,-6.9531,-7.0332,-7.0762,-7.0801,-7.1426,-7.1777,-7.1738,-7.1699,-7.1465,-7.0976,-7.1426,-7.1738,-7.1758,-7.1191,-7.0762,-7.0547,-6.914,-6.8418,-6.8066,-6.7402,-6.6894,-6.6894,-6.6894,-6.6894,-6.6894,-6.6894,-6.6894,-6.6894,-6.6894,-6.6894,-6.6894,-6.6894,-6.6894,-6.6894,-6.6894,-6.6894,-6.6894,-6.6894,-6.6894,-6.6894,-6.6894,-6.6894,-6.6894,-6.6894,-6.6894,-6.6894,-6.6894,-6.6894,-6.6894,-6.6894,-6.6894,-6.6894,-6.6894,-6.6894,-6.6894,-6.6875,-6.6758,-6.6504,-6.5781,-6.4941,-6.375,-6.3223,-6.2734,-6.2226,-6.1855,-6.1816,-6.1719,-6.1719,-6.1719,-6.1699,-6.1699,-6.1699,-6.1699,-6.1699,-6.1699,-6.1473,-6.1453,-6.1473,-6.1473,-6.1485,-6.1484,-6.1476,-6.1476,-6.1544,-6.1571,-6.1581,-6.1632,-6.1694,-6.1701,-6.1698,-6.1698,-6.1698,-6.1698,-6.1698,-6.1698,-6.1698,-6.1698,-6.1874,-6.2579,-6.3574,-6.4628,-6.5273,-6.6014,-6.6815,-6.74,-6.7732,-6.781,-6.861,-6.9059,-6.912,-6.9357,-6.9388,-6.9519,-7.0089,-7.0368,-7.0488,-7.1191,-7.164,-7.168,-7.1875,-7.1992,-7.1992,-7.1992,-7.1933,-7.1699,-7.1836,-7.1992,-7.1972,-7.1738,-7.1328,-7.0605,-6.9746,-6.8828,-6.8183,-6.7402,-6.6933,-6.6894,-6.6894,-6.6894,-6.6894,-6.6894,-6.6894,-6.6894,-6.6894,-6.6894,-6.6894,-6.6894,-6.6894,-6.6894,-6.6894,-6.6894,-6.6894,-6.6894,-6.6894,-6.6894,-6.6894,-6.6894,-6.6894,-6.6894,-6.6894,-6.6894,-6.6894,-6.6894,-6.6894,-6.6894,-6.6894,-6.6894,-6.6894,-6.6894,-6.6894,-6.6894,-6.6875,-6.6875,-6.6484,-6.6113,-6.4883,-6.3848,-6.3281,-6.2715,-6.2383,-6.2265,-6.1933,-6.1758,-6.1738,-6.1894,-6.1719,-6.1719,-6.1719,-6.1699,-6.1699,-6.1503,-6.1484,-6.1504,-6.15,-6.1505,-6.1489,-6.1499,-6.1517,-6.1566,-6.1581,-6.1601,-6.166,-6.1698,-6.1698,-6.1698,-6.1698,-6.1698,-6.1698,-6.1698,-6.1698,-6.1698,-6.1698,-6.1835,-6.2306,-6.3106,-6.426,-6.4804,-6.5917,-6.7185,-6.7869,-6.8239,-6.8747,-6.9508,-6.9938,-6.9996,-7.0348,-7.0477,-7.0611,-7.1005,-7.1245,-7.1308,-7.1719,-7.1933,-7.1992,-7.1992,-7.1992,-7.1992,-7.1992,-7.1992,-7.1992,-7.1992,-7.1992,-7.1992,-7.1992,-7.1601,-7.0742,-6.9941,-6.9121,-6.8262,-6.7402,-6.6933,-6.6894,-6.6894,-6.6894,-6.6894,-6.6894,-6.6894,-6.6894,-6.6894,-6.6894,-6.6894,-6.6894,-6.6894,-6.6894,-6.6894,-6.6894,-6.6894,-6.6894,-6.6894,-6.6894,-6.6894,-6.6894,-6.6894,-6.6894,-6.6894,-6.6894,-6.6894,-6.6894,-6.6894,-6.6894,-6.6894,-6.6894,-6.6894,-6.6894,-6.6894,-6.6894,-6.6894,-6.6894,-6.6836,-6.6562,-6.5723,-6.4531,-6.3984,-6.3457,-6.3027,-6.2734,-6.2578,-6.2402,-6.2344,-6.2344,-6.1992,-6.1758,-6.1777,-6.1699,-6.1699,-6.152,-6.1532,-6.1524,-6.1495,-6.1522,-6.1529,-6.1529,-6.1534,-6.1592,-6.16,-6.1619,-6.1657,-6.1701,-6.1698,-6.1698,-6.1698,-6.1698,-6.1698,-6.1698,-6.1698,-6.1698,-6.1698,-6.1718,-6.1796,-6.2794,-6.4084,-6.4299,-6.5819,-6.7478,-6.8161,-6.8747,-6.9547,-7.0406,-7.0797,-7.0933,-7.1521,-7.1924,-7.1783,-7.1768,-7.1831,-7.1836,-7.1953,-7.1992,-7.1992,-7.1992,-7.1992,-7.1992,-7.1992,-7.1992,-7.1992,-7.1992,-7.1992,-7.1992,-7.1953,-7.1367,-7.0527,-6.9687,-6.8867,-6.8105,-6.7265,-6.6894,-6.6894,-6.6894,-6.6894,-6.6894,-6.6894,-6.6894,-6.6894,-6.6894,-6.6894,-6.6894,-6.6894,-6.6894,-6.6894,-6.6894,-6.6894,-6.6894,-6.6894,-6.6894,-6.6894,-6.6894,-6.6894,-6.6894,-6.6894,-6.6894,-6.6894,-6.6894,-6.6894,-6.6894,-6.6894,-6.6894,-6.6894,-6.6894,-6.6894,-6.6894,-6.6894,-6.6894,-6.6894,-6.6894,-6.668,-6.6152,-6.5273,-6.4746,-6.4258,-6.3828,-6.3711,-6.3769,-6.3574,-6.3262,-6.293,-6.2676,-6.2246,-6.1894,-6.1758,-6.1699,-6.1586,-6.1576,-6.1586,-6.1573,-6.158,-6.1635,-6.1659,-6.166,-6.1672,-6.1666,-6.1674,-6.1703,-6.1698,-6.1698,-6.1698,-6.1698,-6.1698,-6.1698,-6.1698,-6.1698,-6.1698,-6.1698,-6.1698,-6.1718,-6.2676,-6.3928,-6.4299,-6.5702,-6.7654,-6.8825,-6.9567,-7.0426,-7.1148,-7.1694,-7.1733,-7.1819,-7.1989,-7.1999,-7.1986,-7.199,-7.1992,-7.1992,-7.1992,-7.1992,-7.1992,-7.1992,-7.1992,-7.1992,-7.1992,-7.1992,-7.1992,-7.1992,-7.1894,-7.1387,-7.0683,-6.9883,-6.9004,-6.8144,-6.7363,-6.7051,-6.6894,-6.6894,-6.6894,-6.6894,-6.6894,-6.6894,-6.6894,-6.6894,-6.6894,-6.6894,-6.6894,-6.6894,-6.6894,-6.6894,-6.6894,-6.6894,-6.6894,-6.6894,-6.6894,-6.6894,-6.6894,-6.6894,-6.6894,-6.6894,-6.6894,-6.6894,-6.6894,-6.6894,-6.6894,-6.6894,-6.6894,-6.6894,-6.6894,-6.6894,-6.6894,-6.6894,-6.6894,-6.6894,-6.6894,-6.6875,-6.6348,-6.6015,-6.5488,-6.5039,-6.4629,-6.4648,-6.4844,-6.4414,-6.4023,-6.3691,-6.3379,-6.2988,-6.2598,-6.2226,-6.1894,-6.1576,-6.1604,-6.1619,-6.1654,-6.164,-6.1679,-6.1713,-6.1707,-6.1705,-6.1713,-6.1701,-6.1698,-6.1698,-6.1698,-6.1698,-6.1698,-6.1698,-6.1698,-6.1698,-6.1698,-6.1698,-6.1698,-6.1698,-6.1854,-6.2579,-6.4062,-6.4299,-6.5897,-6.8122,-6.9235,-7.0035,-7.1226,-7.1772,-7.1909,-7.1987,-7.1995,-7.1987,-7.1998,-7.1985,-7.1989,-7.1992,-7.1992,-7.1992,-7.1992,-7.1992,-7.1992,-7.1992,-7.1992,-7.1992,-7.1992,-7.1992,-7.1992,-7.1855,-7.1172,-7.0351,-6.9531,-6.8672,-6.7812,-6.7148,-6.6894,-6.6894,-6.6894,-6.6894,-6.6894,-6.6894,-6.6894,-6.6894,-6.6894,-6.6894,-6.6894,-6.6894,-6.6894,-6.6894,-6.6894,-6.6894,-6.6894,-6.6894,-6.6894,-6.6894,-6.6894,-6.6894,-6.6894,-6.6894,-6.6894,-6.6894,-6.6894,-6.6894,-6.6894,-6.6894,-6.6894,-6.6894,-6.6894,-6.6894,-6.6894,-6.6894,-6.6894,-6.6894,-6.6894,-6.6894,-6.6894,-6.6699,-6.6445,-6.623,-6.5859,-6.5527,-6.5742,-6.582,-6.5312,-6.4883,-6.4687,-6.4355,-6.3887,-6.3418,-6.2988,-6.2656,-6.1615,-6.1625,-6.1679,-6.1716,-6.1714,-6.1713,-6.1704,-6.1707,-6.1707,-6.1701,-6.1703,-6.1698,-6.1698,-6.1698,-6.1698,-6.1698,-6.1698,-6.1698,-6.1698,-6.1698,-6.1698,-6.1698,-6.1698,-6.1854,-6.2549,-6.4094,-6.4294,-6.6151,-6.8513,-6.9508,-7.027,-7.1675,-7.1968,-7.1987,-7.1987,-7.1995,-7.1987,-7.1999,-7.1985,-7.1989,-7.1992,-7.1992,-7.1992,-7.1992,-7.1992,-7.1992,-7.1992,-7.1992,-7.1992,-7.1992,-7.1992,-7.1914,-7.1601,-7.0976,-7.0137,-6.9316,-6.8359,-6.7598,-6.707,-6.6894,-6.6894,-6.6894,-6.6894,-6.6894,-6.6894,-6.6894,-6.6894,-6.6894,-6.6894,-6.6894,-6.6894,-6.6894,-6.6894,-6.6894,-6.6894,-6.6894,-6.6894,-6.6894,-6.6894,-6.6894,-6.6894,-6.6894,-6.6894,-6.6894,-6.6894,-6.6894,-6.6894,-6.6894,-6.6894,-6.6894,-6.6894,-6.6894,-6.6894,-6.6894,-6.6894,-6.6894,-6.6894,-6.6894,-6.6894,-6.6894,-6.6894,-6.6758,-6.6582,-6.6719,-6.6621,-6.664,-6.6523,-6.6133,-6.5801,-6.5664,-6.5234,-6.4648,-6.418,-6.375,-6.3457,-6.1635,-6.168,-6.1698,-6.171,-6.1711,-6.1709,-6.1707,-6.1701,-6.1707,-6.1705,-6.1701,-6.1698,-6.1701,-6.1698,-6.1698,-6.1698,-6.1701,-6.1698,-6.1698,-6.1698,-6.1698,-6.1698,-6.1691,-6.1707,-6.2545,-6.371,-6.4294,-6.6059,-6.856,-6.9489,-7.0252,-7.1591,-7.1982,-7.1982,-7.1993,-7.1987,-7.1993,-7.1999,-7.1988,-7.1992,-7.1992,-7.1992,-7.1992,-7.1992,-7.1992,-7.1992,-7.1992,-7.1992,-7.1992,-7.1992,-7.1992,-7.1582,-7.0937,-7.0137,-6.9336,-6.8574,-6.7715,-6.7129,-6.6933,-6.6894,-6.6894,-6.6894,-6.6894,-6.6894,-6.6894,-6.6894,-6.6894,-6.6894,-6.6894,-6.6894,-6.6894,-6.6894,-6.6894,-6.6894,-6.6894,-6.6894,-6.6894,-6.6894,-6.6894,-6.6894,-6.6894,-6.6894,-6.6894,-6.6894,-6.6894,-6.6894,-6.6894,-6.6894,-6.6894,-6.6894,-6.6894,-6.6894,-6.6894,-6.6894,-6.6894,-6.6894,-6.6894,-6.6894,-6.6894,-6.6894,-6.6894,-6.6894,-6.6894,-6.6894,-6.6894,-6.6816,-6.6719,-6.6621,-6.6562,-6.6308,-6.5859,-6.5371,-6.5078,-6.4746,-6.4297,-6.168,-6.1716,-6.1708,-6.1715,-6.1701,-6.1698,-6.1698,-6.1698,-6.1698,-6.1698,-6.1701,-6.1705,-6.1705,-6.1703,-6.1707,-6.1705,-6.1701,-6.1698,-6.1698,-6.1698,-6.1698,-6.166,-6.1598,-6.1591,-6.2221,-6.312,-6.3881,-6.5528,-6.8271,-6.8942,-6.9904,-7.0934,-7.1581,-7.1893,-7.1965,-7.1985,-7.1993,-7.1998,-7.1988,-7.199,-7.199,-7.199,-7.1992,-7.1992,-7.1992,-7.1992,-7.1992,-7.1992,-7.1992,-7.1894,-7.1562,-7.0898,-7.0137,-6.9355,-6.8652,-6.8125,-6.7383,-6.6894,-6.6894,-6.6894,-6.6894,-6.6894,-6.6894,-6.6894,-6.6894,-6.6894,-6.6894,-6.6894,-6.6894,-6.6894,-6.6894,-6.6894,-6.6894,-6.6894,-6.6894,-6.6894,-6.6894,-6.6894,-6.6894,-6.6894,-6.6894,-6.6894,-6.6894,-6.6894,-6.6894,-6.6894,-6.6894,-6.6894,-6.6894,-6.6894,-6.6894,-6.6894,-6.6894,-6.6894,-6.6894,-6.6894,-6.6894,-6.6894,-6.6894,-6.6894,-6.6894,-6.6894,-6.6894,-6.6894,-6.6894,-6.6894,-6.6875,-6.6777,-6.6855,-6.6894,-6.6484,-6.6113,-6.5996,-6.5742,-6.5254,-6.1713,-6.1711,-6.1711,-6.1698,-6.1698,-6.1698,-6.1698,-6.1698,-6.1698,-6.1701,-6.1705,-6.1709,-6.1709,-6.1707,-6.1707,-6.1707,-6.1698,-6.1698,-6.1693,-6.1657,-6.1654,-6.1588,-6.1466,-6.1504,-6.1847,-6.2614,-6.3441,-6.5029,-6.7201,-6.8458,-6.9421,-7.0446,-7.1293,-7.1775,-7.1897,-7.1953,-7.198,-7.1993,-7.2002,-7.1985,-7.1984,-7.1988,-7.1991,-7.1992,-7.1992,-7.1992,-7.1992,-7.1992,-7.1992,-7.1758,-7.1211,-7.0371,-6.9531,-6.8672,-6.8144,-6.7851,-6.7246,-6.6972,-6.6894,-6.6894,-6.6894,-6.6894,-6.6894,-6.6894,-6.6894,-6.6894,-6.6894,-6.6894,-6.6894,-6.6894,-6.6894,-6.6894,-6.6894,-6.6894,-6.6894,-6.6894,-6.6894,-6.6894,-6.6894,-6.6894,-6.6894,-6.6894,-6.6894,-6.6894,-6.6894,-6.6894,-6.6894,-6.6894,-6.6894,-6.6894,-6.6894,-6.6894,-6.6894,-6.6894,-6.6894,-6.6894,-6.6894,-6.6894,-6.6894,-6.6894,-6.6894,-6.6894,-6.6894,-6.6894,-6.6894,-6.6894,-6.6894,-6.6894,-6.6894,-6.6894,-6.6894,-6.6777,-6.6504,-6.6328,-6.6015,-6.1705,-6.1705,-6.1701,-6.1698,-6.1698,-6.1698,-6.1698,-6.1701,-6.1701,-6.1707,-6.1713,-6.1707,-6.1709,-6.1711,-6.1705,-6.1701,-6.1696,-6.1671,-6.1602,-6.1537,-6.1504,-6.1412,-6.1253,-6.1214,-6.1566,-6.2208,-6.309,-6.467,-6.632,-6.7898,-6.9239,-7.0129,-7.0992,-7.173,-7.1765,-7.192,-7.1985,-7.1989,-7.1996,-7.2001,-7.2002,-7.1989,-7.1991,-7.1991,-7.1992,-7.1992,-7.1992,-7.1992,-7.1972,-7.1797,-7.1113,-7.0293,-6.9453,-6.8633,-6.7832,-6.7305,-6.6953,-6.6894,-6.6894,-6.6894,-6.6894,-6.6894,-6.6894,-6.6894,-6.6894,-6.6894,-6.6894,-6.6894,-6.6894,-6.6894,-6.6894,-6.6894,-6.6894,-6.6894,-6.6894,-6.6894,-6.6894,-6.6894,-6.6894,-6.6894,-6.6894,-6.6894,-6.6894,-6.6894,-6.6894,-6.6894,-6.6894,-6.6894,-6.6894,-6.6894,-6.6894,-6.6894,-6.6894,-6.6894,-6.6894,-6.6894,-6.6894,-6.6894,-6.6894,-6.6894,-6.6894,-6.6894,-6.6894,-6.6894,-6.6894,-6.6894,-6.6894,-6.6894,-6.6894,-6.6894,-6.6894,-6.6894,-6.6855,-6.6719,-6.6562,-6.1698,-6.1698,-6.1698,-6.1698,-6.1698,-6.1698,-6.1703,-6.1707,-6.1703,-6.1707,-6.1715,-6.1713,-6.1713,-6.1713,-6.1705,-6.166,-6.1595,-6.1588,-6.148,-6.1359,-6.1324,-6.1239,-6.112,-6.1079,-6.1311,-6.1618,-6.2356,-6.3216,-6.4984,-6.6785,-6.8362,-6.9419,-7.0367,-7.1193,-7.1605,-7.1891,-7.1976,-7.2,-7.2002,-7.1991,-7.1998,-7.1984,-7.1987,-7.1989,-7.1991,-7.1992,-7.1992,-7.1992,-7.1719,-7.1289,-7.043,-6.959,-6.875,-6.7969,-6.7246,-6.7031,-6.6914,-6.6894,-6.6894,-6.6894,-6.6894,-6.6894,-6.6894,-6.6894,-6.6894,-6.6894,-6.6894,-6.6894,-6.6894,-6.6894,-6.6894,-6.6894,-6.6894,-6.6894,-6.6894,-6.6894,-6.6894,-6.6894,-6.6894,-6.6894,-6.6894,-6.6894,-6.6894,-6.6894,-6.6894,-6.6894,-6.6894,-6.6894,-6.6894,-6.6894,-6.6894,-6.6894,-6.6894,-6.6894,-6.6894,-6.6894,-6.6894,-6.6894,-6.6894,-6.6894,-6.6894,-6.6894,-6.6894,-6.6894,-6.6894,-6.6894,-6.6894,-6.6894,-6.6894,-6.6894,-6.6894,-6.6894,-6.6894,-6.6875,-6.6719,-6.1483,-6.1698,-6.1698,-6.1698,-6.1698,-6.1698,-6.1707,-6.1715,-6.1705,-6.1709,-6.1717,-6.1699,-6.1715,-6.1688,-6.1668,-6.1588,-6.1495,-6.1466,-6.1317,-6.1211,-6.1151,-6.1062,-6.0983,-6.0943,-6.0901,-6.0812,-6.1847,-6.2552,-6.3568,-6.5254,-6.7154,-6.8605,-6.975,-7.0629,-7.1388,-7.177,-7.1914,-7.199,-7.1995,-7.2002,-7.1991,-7.1996,-7.2002,-7.1987,-7.199,-7.1992,-7.1992,-7.1992,-7.1601,-7.0781,-6.998,-6.918,-6.834,-6.7539,-6.7051,-6.6894,-6.6894,-6.6894,-6.6894,-6.6894,-6.6894,-6.6894,-6.6894,-6.6894,-6.6894,-6.6894,-6.6894,-6.6894,-6.6894,-6.6894,-6.6894,-6.6894,-6.6894,-6.6894,-6.6894,-6.6894,-6.6894,-6.6894,-6.6894,-6.6894,-6.6894,-6.6894,-6.6894,-6.6894,-6.6894,-6.6894,-6.6894,-6.6894,-6.6894,-6.6894,-6.6894,-6.6894,-6.6894,-6.6894,-6.6894,-6.6894,-6.6894,-6.6894,-6.6894,-6.6894,-6.6894,-6.6894,-6.6894,-6.6894,-6.6894,-6.6894,-6.6894,-6.6894,-6.6894,-6.6894,-6.6894,-6.6894,-6.6894,-6.6894,-6.6875,-6.0959,-6.1698,-6.1679,-6.1698,-6.1698,-6.1698,-6.1707,-6.1717,-6.1705,-6.1711,-6.1702,-6.1699,-6.1686,-6.1668,-6.158,-6.149,-6.1456,-6.1317,-6.1159,-6.1064,-6.1002,-6.0934,-6.0858,-6.0831,-6.0846,-6.0927,-6.1531,-6.1966,-6.2531,-6.3858,-6.6102,-6.8212,-6.9123,-7.0221,-7.1086,-7.1595,-7.1822,-7.192,-7.1962,-7.197,-7.1983,-7.1994,-7.1985,-7.1985,-7.199,-7.1992,-7.1992,-7.1894,-7.1445,-7.0586,-6.9726,-6.8887,-6.7988,-6.7305,-6.6914,-6.6894,-6.6894,-6.6894,-6.6894,-6.6894,-6.6894,-6.6894,-6.6894,-6.6894,-6.6894,-6.6894,-6.6894,-6.6894,-6.6894,-6.6894,-6.6894,-6.6894,-6.6894,-6.6894,-6.6894,-6.6894,-6.6894,-6.6894,-6.6894,-6.6894,-6.6894,-6.6894,-6.6894,-6.6894,-6.6894,-6.6894,-6.6894,-6.6894,-6.6894,-6.6894,-6.6894,-6.6894,-6.6894,-6.6894,-6.6894,-6.6894,-6.6894,-6.6894,-6.6894,-6.6894,-6.6894,-6.6894,-6.6894,-6.6894,-6.6894,-6.6894,-6.6894,-6.6894,-6.6894,-6.6894,-6.6894,-6.6894,-6.6894,-6.6894,-6.6894,-6.0607,-6.0939,-6.1464,-6.1698,-6.1698,-6.1698,-6.1707,-6.1715,-6.1705,-6.1703,-6.1692,-6.1618,-6.1568,-6.1526,-6.1422,-6.1311,-6.1209,-6.1213,-6.1067,-6.0963,-6.0888,-6.0864,-6.0823,-6.08,-6.08,-6.0858,-6.1204,-6.1678,-6.2216,-6.2935,-6.4109,-6.6003,-6.8058,-6.9858,-7.0806,-7.137,-7.1634,-7.1775,-7.1835,-7.1847,-7.199,-7.2,-7.1993,-7.2002,-7.1984,-7.199,-7.1914,-7.1426,-7.0781,-7.0019,-6.9199,-6.8359,-6.7656,-6.709,-6.6933,-6.6894,-6.6894,-6.6894,-6.6894,-6.6894,-6.6894,-6.6894,-6.6894,-6.6894,-6.6894,-6.6894,-6.6894,-6.6894,-6.6894,-6.6894,-6.6894,-6.6894,-6.6894,-6.6894,-6.6894,-6.6894,-6.6894,-6.6894,-6.6894,-6.6894,-6.6894,-6.6894,-6.6894,-6.6894,-6.6894,-6.6894,-6.6894,-6.6894,-6.6894,-6.6894,-6.6894,-6.6894,-6.6894,-6.6894,-6.6894,-6.6894,-6.6894,-6.6894,-6.6894,-6.6894,-6.6894,-6.6894,-6.6894,-6.6894,-6.6894,-6.6894,-6.6894,-6.6894,-6.6894,-6.6894,-6.6894,-6.6894,-6.6894,-6.6894,-6.6894,-5.9788,-6.01,-6.0956,-6.1483,-6.1679,-6.1698,-6.1679,-6.1657,-6.1679,-6.1668,-6.1631,-6.1537,-6.1471,-6.139,-6.1265,-6.1155,-6.1057,-6.1021,-6.0942,-6.0886,-6.0869,-6.0846,-6.0835,-6.0812,-6.08,-6.08,-6.0839,-6.1204,-6.1601,-6.1947,-6.307,-6.4689,-6.6588,-6.851,-7.0046,-7.1106,-7.147,-7.1615,-7.17,-7.1746,-7.1893,-7.1968,-7.1985,-7.1999,-7.1984,-7.1989,-7.1777,-7.1269,-7.041,-6.959,-6.873,-6.7832,-6.7246,-6.6894,-6.6894,-6.6894,-6.6894,-6.6894,-6.6894,-6.6894,-6.6894,-6.6894,-6.6894,-6.6894,-6.6894,-6.6894,-6.6894,-6.6894,-6.6894,-6.6894,-6.6894,-6.6894,-6.6894,-6.6894,-6.6894,-6.6894,-6.6894,-6.6894,-6.6894,-6.6894,-6.6894,-6.6894,-6.6894,-6.6894,-6.6894,-6.6894,-6.6894,-6.6894,-6.6894,-6.6894,-6.6894,-6.6894,-6.6894,-6.6894,-6.6894,-6.6894,-6.6894,-6.6894,-6.6894,-6.6894,-6.6894,-6.6894,-6.6894,-6.6894,-6.6894,-6.6894,-6.6894,-6.6894,-6.6894,-6.6894,-6.6894,-6.6894,-6.6894,-6.6894,-6.6894,-5.8402,-5.918,-6.0061,-6.0898,-6.1576,-6.1698,-6.1637,-6.1545,-6.1612,-6.1595,-6.1495,-6.1471,-6.1353,-6.1225,-6.109,-6.1002,-6.0964,-6.0899,-6.0869,-6.0869,-6.0846,-6.0846,-6.0846,-6.0835,-6.08,-6.08,-6.0819,-6.0858,-6.0966,-6.155,-6.2474,-6.3474,-6.517,-6.7166,-6.8565,-7.0348,-7.1252,-7.1481,-7.1602,-7.1665,-7.178,-7.1888,-7.1939,-7.1999,-7.1985,-7.1989,-7.1562,-7.0898,-7.0058,-6.9258,-6.8418,-6.7617,-6.7012,-6.6914,-6.6894,-6.6894,-6.6894,-6.6894,-6.6894,-6.6894,-6.6894,-6.6894,-6.6894,-6.6894,-6.6894,-6.6894,-6.6894,-6.6894,-6.6894,-6.6894,-6.6894,-6.6894,-6.6894,-6.6893,-6.6892,-6.6891,-6.689,-6.6889,-6.689,-6.689,-6.6906,-6.6894,-6.6894,-6.6894,-6.6894,-6.6894,-6.6894,-6.6894,-6.6894,-6.6894,-6.6894,-6.6894,-6.6894,-6.6894,-6.6894,-6.6894,-6.6894,-6.6894,-6.6894,-6.6894,-6.6894,-6.6894,-6.6894,-6.6894,-6.6894,-6.6894,-6.6894,-6.6894,-6.6894,-6.6894,-6.6894,-6.6894,-6.6894,-6.6894,-6.6894,-5.7958,-5.8304,-5.9183,-5.9979,-6.0746,-6.1451,-6.1628,-6.1504,-6.1422,-6.1359,-6.1305,-6.1223,-6.1147,-6.1057,-6.0983,-6.091,-6.0886,-6.0939,-6.0944,-6.0835,-6.0846,-6.0846,-6.0835,-6.0823,-6.08,-6.08,-6.08,-6.08,-6.0839,-6.1223,-6.13,-6.2089,-6.4205,-6.6532,-6.8776,-7.0452,-7.1108,-7.1279,-7.1366,-7.145,-7.1683,-7.1779,-7.1875,-7.1955,-7.1962,-7.1693,-7.119,-7.0389,-6.9511,-6.8749,-6.791,-6.7265,-6.6933,-6.6894,-6.6893,-6.6893,-6.6892,-6.6891,-6.6893,-6.6894,-6.6894,-6.6894,-6.6894,-6.6894,-6.6894,-6.6894,-6.6894,-6.6894,-6.6894,-6.6894,-6.6894,-6.6894,-6.6892,-6.6892,-6.689,-6.6888,-6.6905,-6.6905,-6.6905,-6.6905,-6.6904,-6.6902,-6.6901,-6.688,-6.6865,-6.6889,-6.6891,-6.6893,-6.6894,-6.6894,-6.6894,-6.6894,-6.6894,-6.6894,-6.6894,-6.6894,-6.6894,-6.6894,-6.6894,-6.6894,-6.6894,-6.6893,-6.6894,-6.6894,-6.6894,-6.6894,-6.6894,-6.6894,-6.6894,-6.6894,-6.6894,-6.6894,-6.6894,-6.6894,-6.6894,-5.7361,-5.7482,-5.8245,-5.8854,-5.9462,-6.0681,-6.1316,-6.1417,-6.1246,-6.1143,-6.112,-6.1037,-6.0974,-6.0923,-6.0886,-6.0846,-6.0812,-6.0869,-6.0944,-6.0835,-6.0846,-6.0846,-6.0816,-6.0793,-6.0781,-6.08,-6.08,-6.08,-6.08,-6.08,-6.1089,-6.1916,-6.3435,-6.5705,-6.7975,-6.9374,-7.0491,-7.0676,-7.0866,-7.1329,-7.1494,-7.1615,-7.1736,-7.1728,-7.1563,-7.1184,-7.0537,-6.9682,-6.8725,-6.8043,-6.7458,-6.6932,-6.6892,-6.6892,-6.689,-6.6889,-6.689,-6.6889,-6.6892,-6.6893,-6.6894,-6.6894,-6.6894,-6.6894,-6.6894,-6.6894,-6.6894,-6.6894,-6.6894,-6.6894,-6.6894,-6.6892,-6.6889,-6.6888,-6.6865,-6.686,-6.6857,-6.6856,-6.6856,-6.6877,-6.6877,-6.6877,-6.6877,-6.6856,-6.6856,-6.6859,-6.6863,-6.6887,-6.689,-6.6892,-6.6894,-6.6894,-6.6894,-6.6894,-6.6894,-6.6894,-6.6894,-6.6894,-6.6892,-6.689,-6.689,-6.689,-6.689,-6.6894,-6.6894,-6.6894,-6.6894,-6.6894,-6.6894,-6.6894,-6.6894,-6.6894,-6.6894,-6.6894,-6.6894,-5.6533,-5.667,-5.7276,-5.7604,-5.7949,-5.965,-6.0793,-6.1436,-6.115,-6.0993,-6.0983,-6.0974,-6.0913,-6.0808,-6.0793,-6.0793,-6.0793,-6.0823,-6.0854,-6.0866,-6.0835,-6.0846,-6.0846,-6.0823,-6.0812,-6.08,-6.08,-6.08,-6.08,-6.08,-6.1185,-6.1985,-6.3243,-6.4801,-6.632,-6.7911,-6.9174,-6.9707,-7.0435,-7.0816,-7.1,-7.1353,-7.1536,-7.1471,-7.1081,-7.0659,-7.0006,-6.9126,-6.8347,-6.7743,-6.7315,-6.7021,-6.6904,-6.6902,-6.6902,-6.6884,-6.6888,-6.6889,-6.689,-6.6871,-6.6891,-6.6892,-6.6893,-6.6894,-6.6894,-6.6894,-6.6894,-6.6894,-6.6894,-6.6893,-6.6892,-6.6888,-6.6862,-6.6857,-6.6815,-6.6809,-6.6822,-6.682,-6.682,-6.6822,-6.6822,-6.6822,-6.6824,-6.6822,-6.6826,-6.6828,-6.6832,-6.6856,-6.686,-6.6905,-6.6889,-6.6894,-6.6894,-6.6894,-6.6889,-6.6889,-6.689,-6.6891,-6.6888,-6.6883,-6.6883,-6.6883,-6.6863,-6.6866,-6.689,-6.6894,-6.6894,-6.6894,-6.6894,-6.6894,-6.6894,-6.6894,-6.6894,-6.6894,-6.6894,-5.6167,-5.6275,-5.6461,-5.6816,-5.7525,-5.9069,-6.0289,-6.104,-6.0942,-6.0864,-6.0864,-6.0845,-6.0842,-6.0781,-6.08,-6.08,-6.08,-6.08,-6.0812,-6.0812,-6.0812,-6.0823,-6.0823,-6.0812,-6.08,-6.08,-6.08,-6.08,-6.08,-6.08,-6.0819,-6.132,-6.2512,-6.3378,-6.4589,-6.6051,-6.7436,-6.868,-6.9611,-7.0069,-7.0416,-7.0776,-7.1079,-7.1041,-7.0528,-7.0045,-6.9342,-6.8615,-6.7863,-6.7203,-6.7056,-6.6902,-6.6904,-6.6859,-6.6834,-6.6828,-6.6834,-6.6839,-6.6841,-6.6865,-6.6887,-6.6887,-6.6889,-6.6892,-6.6894,-6.6894,-6.6894,-6.6894,-6.6892,-6.689,-6.6868,-6.6862,-6.6856,-6.683,-6.6807,-6.6802,-6.6798,-6.6798,-6.6798,-6.6798,-6.6798,-6.6798,-6.6798,-6.6798,-6.6822,-6.68,-6.682,-6.6824,-6.6828,-6.6856,-6.688,-6.688,-6.6881,-6.6881,-6.6884,-6.6904,-6.6905,-6.6885,-6.688,-6.6856,-6.6836,-6.6836,-6.6836,-6.6839,-6.6865,-6.6889,-6.6894,-6.6893,-6.6894,-6.6894,-6.6894,-6.6894,-6.6894,-6.6894,-6.6894,-5.6032,-5.6104,-5.6029,-5.643,-5.7207,-5.8115,-5.9216,-6.0284,-6.0696,-6.08,-6.08,-6.0793,-6.08,-6.08,-6.08,-6.08,-6.08,-6.08,-6.08,-6.08,-6.08,-6.08,-6.08,-6.08,-6.08,-6.08,-6.08,-6.08,-6.08,-6.08,-6.0819,-6.0916,-6.1678,-6.2493,-6.3589,-6.4878,-6.607,-6.7359,-6.8405,-6.904,-6.9524,-6.9849,-7.0106,-7.0279,-6.9704,-6.9085,-6.8633,-6.7926,-6.7276,-6.682,-6.6815,-6.6854,-6.6854,-6.6828,-6.6809,-6.6805,-6.6809,-6.6813,-6.6815,-6.6838,-6.6859,-6.686,-6.688,-6.6885,-6.689,-6.6894,-6.6894,-6.6891,-6.6889,-6.6865,-6.6841,-6.6838,-6.6813,-6.6805,-6.6802,-6.6798,-6.6798,-6.6798,-6.6798,-6.6798,-6.6798,-6.6798,-6.6798,-6.6798,-6.6798,-6.6798,-6.6798,-6.6817,-6.6822,-6.6826,-6.683,-6.683,-6.6832,-6.6854,-6.6857,-6.6878,-6.6857,-6.6857,-6.6832,-6.6826,-6.6807,-6.6807,-6.6809,-6.6832,-6.6836,-6.6863,-6.6868,-6.6891,-6.6893,-6.6894,-6.6894,-6.6894,-6.6894,-6.6894,-6.6894,-5.6013,-5.6044,-5.5938,-5.6261,-5.686,-5.706,-5.8003,-5.9415,-6.0262,-6.0723,-6.0762,-6.08,-6.08,-6.08,-6.08,-6.08,-6.08,-6.08,-6.08,-6.08,-6.08,-6.08,-6.08,-6.08,-6.08,-6.08,-6.08,-6.08,-6.08,-6.08,-6.08,-6.0839,-6.1485,-6.2224,-6.3051,-6.3974,-6.5032,-6.6032,-6.7225,-6.8091,-6.8328,-6.8431,-6.8455,-6.8607,-6.8151,-6.7561,-6.746,-6.7094,-6.6595,-6.6648,-6.6713,-6.6795,-6.68,-6.68,-6.6802,-6.6805,-6.6807,-6.6807,-6.6809,-6.6811,-6.6811,-6.6811,-6.6811,-6.6836,-6.686,-6.6887,-6.6888,-6.6887,-6.6863,-6.6839,-6.6817,-6.6811,-6.6805,-6.68,-6.6798,-6.6798,-6.6798,-6.6798,-6.6798,-6.6798,-6.6798,-6.6798,-6.6798,-6.6798,-6.6798,-6.6798,-6.6798,-6.6798,-6.6798,-6.68,-6.68,-6.6802,-6.6824,-6.6826,-6.6826,-6.6828,-6.6826,-6.6805,-6.6802,-6.68,-6.6802,-6.68,-6.68,-6.6824,-6.683,-6.6836,-6.6842,-6.6866,-6.687,-6.6892,-6.6894,-6.6894,-6.6894,-6.6894,-6.6894,-5.5688,-5.5779,-5.5768,-5.5871,-5.6099,-5.6733,-5.758,-5.8627,-5.9454,-6.0165,-6.0704,-6.0781,-6.08,-6.08,-6.08,-6.08,-6.08,-6.08,-6.08,-6.08,-6.08,-6.08,-6.08,-6.08,-6.08,-6.08,-6.08,-6.08,-6.08,-6.08,-6.08,-6.08,-6.1204,-6.1666,-6.2493,-6.332,-6.407,-6.507,-6.5955,-6.6955,-6.7417,-6.8052,-6.8411,-6.8196,-6.7737,-6.7344,-6.717,-6.6892,-6.6649,-6.661,-6.6727,-6.6792,-6.6798,-6.6798,-6.6798,-6.68,-6.6802,-6.6802,-6.6802,-6.6802,-6.6802,-6.6802,-6.6802,-6.6802,-6.6828,-6.6878,-6.6881,-6.688,-6.6857,-6.6815,-6.6809,-6.6802,-6.6798,-6.6798,-6.6798,-6.6798,-6.6798,-6.6798,-6.6798,-6.6798,-6.6798,-6.6798,-6.6798,-6.6798,-6.6798,-6.6798,-6.6798,-6.6798,-6.6798,-6.6798,-6.6798,-6.6798,-6.6798,-6.68,-6.68,-6.68,-6.68,-6.68,-6.6798,-6.6798,-6.6798,-6.6798,-6.6798,-6.6798,-6.6802,-6.6828,-6.6832,-6.6815,-6.6842,-6.6868,-6.6891,-6.6892,-6.6893,-6.6894,-6.6894,-5.5573,-5.5684,-5.5684,-5.5684,-5.578,-5.6222,-5.6915,-5.778,-5.8588,-5.9435,-6.0242,-6.0589,-6.08,-6.08,-6.08,-6.08,-6.08,-6.08,-6.08,-6.08,-6.08,-6.08,-6.08,-6.08,-6.08,-6.08,-6.08,-6.08,-6.08,-6.08,-6.08,-6.08,-6.0858,-6.1223,-6.2043,-6.2647,-6.3397,-6.457,-6.5089,-6.5763,-6.6494,-6.7071,-6.7282,-6.7108,-6.6984,-6.6769,-6.6694,-6.6463,-6.6446,-6.6445,-6.657,-6.673,-6.6787,-6.6798,-6.6798,-6.6798,-6.6798,-6.6798,-6.6798,-6.6798,-6.6798,-6.6798,-6.6798,-6.68,-6.68,-6.685,-6.685,-6.6828,-6.6828,-6.6805,-6.6802,-6.6798,-6.6798,-6.6798,-6.6798,-6.6798,-6.6798,-6.6798,-6.6798,-6.6798,-6.6798,-6.6798,-6.6798,-6.6798,-6.6798,-6.6798,-6.6798,-6.6798,-6.6798,-6.6798,-6.6798,-6.6798,-6.6798,-6.6798,-6.6798,-6.6798,-6.6798,-6.6798,-6.6798,-6.6798,-6.6798,-6.6798,-6.6798,-6.6798,-6.6798,-6.68,-6.6805,-6.6807,-6.6813,-6.6821,-6.6866,-6.6889,-6.6889,-6.6889,-6.689,-5.5573,-5.5703,-5.5684,-5.5684,-5.5684,-5.5703,-5.6233,-5.7099,-5.7953,-5.8781,-5.9646,-6.0454,-6.0742,-6.08,-6.08,-6.08,-6.08,-6.08,-6.08,-6.08,-6.08,-6.08,-6.08,-6.08,-6.08,-6.08,-6.08,-6.08,-6.08,-6.08,-6.08,-6.08,-6.0935,-6.1177,-6.1735,-6.2216,-6.2832,-6.3782,-6.4455,-6.5032,-6.5474,-6.5859,-6.6051,-6.6013,-6.5878,-6.5878,-6.5946,-6.6016,-6.6088,-6.6239,-6.6439,-6.6619,-6.6727,-6.6768,-6.6798,-6.6798,-6.6798,-6.6798,-6.6798,-6.6798,-6.6798,-6.6798,-6.6798,-6.6798,-6.6798,-6.6798,-6.6798,-6.6798,-6.6798,-6.6798,-6.6798,-6.6798,-6.6798,-6.6798,-6.6798,-6.6778,-6.6778,-6.6778,-6.6759,-6.6759,-6.6739,-6.6739,-6.6739,-6.6739,-6.6739,-6.6759,-6.6759,-6.6798,-6.6798,-6.6798,-6.6798,-6.6798,-6.6798,-6.6798,-6.6798,-6.6798,-6.6798,-6.6798,-6.6798,-6.6798,-6.6798,-6.6798,-6.6798,-6.6798,-6.6798,-6.6798,-6.68,-6.6805,-6.6809,-6.6813,-6.6818,-6.6862,-6.6862,-6.6862,-6.6862,-5.5554,-5.5684,-5.5684,-5.5684,-5.5684,-5.5684,-5.6195,-5.706,-5.7896,-5.8761,-5.9511,-6.0339,-6.08,-6.08,-6.08,-6.08,-6.08,-6.08,-6.08,-6.08,-6.0746,-6.0757,-6.0757,-6.069,-6.0769,-6.08,-6.08,-6.08,-6.08,-6.08,-6.08,-6.08,-6.08,-6.0935,-6.11,-6.162,-6.2255,-6.307,-6.3858,-6.4532,-6.4916,-6.534,-6.584,-6.5878,-6.5878,-6.5878,-6.5933,-6.603,-6.6077,-6.6214,-6.6332,-6.6457,-6.6533,-6.6597,-6.6675,-6.6798,-6.6798,-6.6798,-6.6798,-6.6798,-6.6798,-6.6798,-6.6798,-6.6798,-6.6798,-6.6798,-6.6798,-6.6798,-6.6798,-6.6798,-6.6798,-6.6798,-6.6798,-6.6798,-6.6798,-6.6719,-6.668,-6.6641,-6.6622,-6.6541,-6.6483,-6.6483,-6.6463,-6.6463,-6.6444,-6.6444,-6.6405,-6.6424,-6.6329,-6.6524,-6.6661,-6.6583,-6.6524,-6.6798,-6.6798,-6.6798,-6.6798,-6.6798,-6.6798,-6.6798,-6.6798,-6.6798,-6.6798,-6.6798,-6.6798,-6.6798,-6.68,-6.68,-6.6805,-6.6809,-6.6811,-6.6815,-6.6834,-6.6834,-6.6832]},{"header":{"parameterUnit":"m.s-1","parameterCategory":1,"la1":31.0,"la2":29.5877,"lo1":-88.7671,"lo2":-86.6584,"dy":0.0162,"dx":0.0185,"nx":115,"ny":88,"refTime":"2023-04-23T18:00:00:Z","depth":0,"parameterNumber":3,"parameterNumberName":"V-component_of_WINDS"},"data":[0.0,0.0,0.0,0.0,0.0,0.0,0.0,0.0,0.0,0.0,0.0,0.0,0.0,0.0,0.0,0.0,0.0,0.0,0.0,0.0,0.0,0.0,0.0,0.0,0.0,0.0,0.0,0.0,0.0,0.0,0.0,0.0,0.0,0.0,0.0,0.0,0.0,0.0,0.0,0.0,0.0,0.0,0.0,0.0,0.0,0.0,0.0,0.0,0.0,0.0,0.0,0.0,0.0,0.0,0.0,0.0,0.0,0.0,0.0,0.0,0.0,0.0,0.0,0.0,0.0,0.0,0.0,0.0,0.0,0.0,0.0,0.0,0.0,0.0,0.0,0.0,0.0,0.0,0.0,0.0,0.0,0.0,0.0,0.0,0.0,0.0,0.0,0.0,0.0,0.0,0.0,0.0,0.0,0.0,0.0,0.0,0.0,0.0,0.0,0.0,0.0,0.0,0.0,0.0,0.0,0.0,0.0,0.0,0.0,0.0,0.0,0.0,0.0,0.0,0.0,0.0,0.0,0.0,0.0,0.0,0.0,0.0,0.0,0.0,0.0,0.0,0.0,0.0,0.0,0.0,0.0,0.0,0.0,0.0,0.0,0.0,0.0,0.0,0.0,0.0,0.0,0.0,0.0,0.0,0.0,0.0,0.0,0.0,0.0,0.0,0.0,0.0,0.0,0.0,0.0,0.0,0.0,0.0,0.0,0.0,0.0,0.0,0.0,0.0,0.0,0.0,0.0,0.0,0.0,0.0,0.0,0.0,0.0,0.0,0.0,0.0,0.0,0.0,0.0,0.0,0.0,0.0,0.0,0.0,0.0,0.0,0.0,0.0,0.0,0.0,0.0,0.0,0.0,0.0,0.0,0.0,0.0,0.0,0.0,0.0,0.0,0.0,0.0,0.0,0.0,0.0,0.0,0.0,0.0,0.0,0.0,0.0,0.0,0.0,0.0,0.0,0.0,0.0,0.0,0.0,0.0,0.0,0.0,0.0,0.0,0.0,0.0,0.0,0.0,0.0,0.0,0.0,0.0,0.0,0.0,0.0,0.0,0.0,0.0,0.0,0.0,0.0,0.0,0.0,0.0,0.0,0.0,0.0,0.0,0.0,0.0,0.0,0.0,0.0,0.0,0.0,0.0,0.0,0.0,0.0,0.0,0.0,0.0,0.0,0.0,0.0,0.0,0.0,0.0,0.0,0.0,0.0,0.0,0.0,0.0,0.0,0.0,0.0,0.0,0.0,0.0,0.0,0.0,0.0,0.0,0.0,0.0,0.0,0.0,0.0,0.0,0.0,0.0,0.0,0.0,0.0,0.0,0.0,0.0,0.0,0.0,0.0,0.0,0.0,0.0,0.0,0.0,0.0,0.0,0.0,0.0,0.0,0.0,0.0,0.0,0.0,0.0,0.0,0.0,0.0,0.0,0.0,0.0,0.0,0.0,0.0,0.0,0.0,0.0,0.0,0.0,0.0,0.0,0.0,0.0,0.0,0.0,0.0,0.0,0.0,0.0,0.0,0.0,0.0,0.0,0.0,0.0,0.0,0.0,0.0,0.0,0.0,0.0,0.0,0.0,0.0,0.0,0.0,0.0,0.0,0.0,0.0,0.0,0.0,0.0,0.0,0.0,0.0,0.0,0.0,0.0,0.0,0.0,0.0,0.0,0.0,0.0,0.0,0.0,0.0,0.0,0.0,0.0,0.0,0.0,0.0,0.0,0.0,0.0,0.0,0.0,0.0,0.0,0.0,0.0,0.0,0.0,0.0,0.0,0.0,0.0,0.0,0.0,0.0,0.0,0.0,0.0,0.0,0.0,0.0,0.0,0.0,0.0,0.0,0.0,0.0,0.0,0.0,0.0,0.0,0.0,0.0,0.0,0.0,0.0,0.0,0.0,0.0,0.0,0.0,0.0,0.0,0.0,0.0,0.0,0.0,0.0,0.0,0.0,0.0,0.0,0.0,0.0,0.0,0.0,0.0,0.0,0.0,0.0,0.0,0.0,0.0,0.0,0.0,0.0,0.0,0.0,0.0,0.0,0.0,0.0,0.0,0.0,0.0,0.0,0.0,0.0,0.0,0.0,0.0,0.0,0.0,0.0,0.0,0.0,0.0,0.0,0.0,0.0,0.0,0.0,0.0,0.0,0.0,0.0,0.0,0.0,0.0,0.0,0.0,0.0,0.0,0.0,0.0,0.0,0.0,0.0,0.0,0.0,0.0,0.0,0.0,0.0,0.0,0.0,0.0,0.0,0.0,0.0,0.0,0.0,0.0,0.0,0.0,0.0,0.0,0.0,0.0,0.0,0.0,0.0,0.0,0.0,0.0,0.0,0.0,0.0,0.0,0.0,0.0,0.0,0.0,0.0,0.0,0.0,0.0,0.0,0.0,0.0,0.0,0.0,0.0,0.0,0.0,0.0,0.0,0.0,0.0,0.0,0.0,0.0,0.0,0.0,0.0,0.0,0.0,0.0,0.0,0.0,0.0,0.0,0.0,0.0,0.0,0.0,0.0,0.0,0.0,0.0,0.0,0.0,0.0,0.0,0.0,0.0,0.0,0.0,0.0,0.0,0.0,0.0,0.0,0.0,0.0,0.0,0.0,0.0,0.0,0.0,0.0,0.0,0.0,0.0,0.0,0.0,0.0,0.0,0.0,0.0,0.0,0.0,0.0,0.0,0.0,0.0,0.0,0.0,0.0,0.0,0.0,0.0,0.0,0.0,0.0,0.0,0.0,0.0,0.0,0.0,0.0,0.0,0.0,0.0,0.0,0.0,0.0,0.0,0.0,0.0,0.0,0.0,0.0,0.0,0.0,0.0,0.0,0.0,0.0,0.0,0.0,0.0,0.0,0.0,0.0,0.0,0.0,0.0,0.0,0.0,0.0,0.0,0.0,0.0,0.0,0.0,0.0,0.0,0.0,0.0,0.0,0.0,0.0,0.0,0.0,0.0,0.0,0.0,0.0,0.0,0.0,0.0,0.0,0.0,0.0,0.0,0.0,0.0,0.0,0.0,0.0,0.0,0.0,0.0,0.0,0.0,0.0,0.0,0.0,0.0,0.0,0.0,0.0,0.0,0.0,0.0,0.0,0.0,0.0,0.0,0.0,0.0,0.0,0.0,0.0,0.0,0.0,0.0,0.0,0.0,0.0,0.0,0.0,0.0,0.0,0.0,0.0,0.0,0.0,0.0,0.0,0.0,0.0,0.0,0.0,0.0,0.0,0.0,0.0,0.0,0.0,0.0,0.0,0.0,0.0,0.0,0.0,0.0,0.0,0.0,0.0,0.0,0.0,0.0,0.0,0.0,0.0,0.0,0.0,0.0,0.0,0.0,0.0,0.0,0.0,0.0,0.0,0.0,0.0,0.0,0.0,0.0,0.0,0.0,0.0,0.0,0.0,0.0,0.0,0.0,0.0,0.0,0.0,0.0,0.0,0.0,0.0,0.0,0.0,0.0,0.0,0.0,0.0,0.0,0.0,0.0,0.0,0.0,0.0,0.0,0.0,0.0,0.0,0.0,0.0,0.0,0.0,0.0,0.0,0.0,0.0,0.0,0.0,0.0,0.0,0.0,0.0,0.0,0.0,0.0,0.0,0.0,0.0,0.0,0.0,0.0,0.0,0.0,0.0,0.0,0.0,0.0,0.0,0.0,0.0,0.0,0.0,0.0,0.0,0.0,0.0,0.0,0.0,0.0,0.0,0.0,0.0,0.0,0.0,0.0,0.0,0.0,0.0,0.0,0.0,0.0,0.0,0.0,0.0,0.0,0.0,0.0,0.0,0.0,0.0,0.0,0.0,0.0,0.0,0.0,0.0,0.0,0.0,0.0,0.0,0.0,0.0,0.0,0.0,0.0,0.0,0.0,0.0,0.0,0.0,0.0,0.0,0.0,0.0,0.0,0.0,0.0,0.0,0.0,0.0,0.0,0.0,0.0,0.0,0.0,0.0,0.0,0.0,0.0,0.0,0.0,0.0,0.0,0.0,0.0,0.0,0.0,0.0,0.0,0.0,0.0,0.0,0.0,0.0,0.0,0.0,0.0,0.0,0.0,0.0,0.0,0.0,0.0,0.0,0.0,0.0,0.0,0.0,0.0,0.0,0.0,0.0,0.0,0.0,0.0,0.0,0.0,0.0,0.0,0.0,0.0,0.0,0.0,0.0,0.0,0.0,0.0,0.0,0.0,0.0,0.0,0.0,0.0,0.0,0.0,0.0,0.0,0.0,0.0,0.0,0.0,0.0,0.0,0.0,0.0,0.0,0.0,0.0,0.0,0.0,0.0,0.0,-0.8656,0.0,0.0,0.0,0.0,0.0,0.0,0.0,0.0,0.0,0.0,0.0,0.0,0.0,0.0,0.0,0.0,0.0,0.0,0.0,0.0,0.0,0.0,0.0,0.0,0.0,0.0,0.0,0.0,0.0,0.0,0.0,0.0,0.0,0.0,0.0,0.0,0.0,0.0,0.0,0.0,0.0,0.0,0.0,0.0,0.0,0.0,0.0,0.0,0.0,0.0,0.0,0.0,0.0,0.0,0.0,0.0,0.0,0.0,0.0,0.0,0.0,0.0,0.0,0.0,0.0,0.0,0.0,0.0,0.0,0.0,0.0,0.0,0.0,0.0,0.0,0.0,0.0,0.0,0.0,0.0,0.0,0.0,0.0,0.0,0.0,0.0,0.0,0.0,0.0,0.0,0.0,0.0,0.0,0.0,0.0,0.0,0.0,0.0,0.0,0.0,0.0,0.0,0.0,0.0,0.0,0.0,0.0,0.0,0.0,0.0,-0.9301,-0.8959,-0.9087,-0.8999,-0.8608,0.0,0.0,0.0,0.0,0.0,0.0,0.0,0.0,0.0,0.0,0.0,0.0,0.0,0.0,0.0,0.0,0.0,0.0,0.0,0.0,0.0,0.0,0.0,0.0,0.0,0.0,0.0,0.0,0.0,0.0,0.0,0.0,0.0,0.0,0.0,0.0,0.0,0.0,0.0,0.0,0.0,0.0,0.0,0.0,0.0,0.0,0.0,0.0,0.0,0.0,0.0,0.0,0.0,0.0,0.0,0.0,0.0,0.0,0.0,0.0,0.0,0.0,0.0,0.0,0.0,0.0,0.0,0.0,0.0,0.0,0.0,0.0,0.0,0.0,0.0,0.0,0.0,0.0,0.0,0.0,0.0,0.0,0.0,0.0,0.0,0.0,0.0,0.0,0.0,0.0,0.0,0.0,0.0,0.0,0.0,0.0,0.0,0.0,0.0,0.0,0.0,0.0,0.0,0.0,0.0,0.0,0.0,0.0,0.0,0.0,0.0,0.0,-0.8616,-0.8616,-0.8616,0.0,0.0,0.0,0.0,0.0,0.0,0.0,0.0,0.0,0.0,0.0,0.0,0.0,0.0,0.0,0.0,0.0,0.0,0.0,0.0,0.0,0.0,0.0,0.0,0.0,0.0,0.0,0.0,0.0,0.0,0.0,0.0,0.0,0.0,0.0,0.0,0.0,0.0,0.0,0.0,0.0,0.0,0.0,0.0,0.0,0.0,0.0,0.0,0.0,0.0,0.0,0.0,0.0,0.0,0.0,0.0,0.0,0.0,0.0,0.0,0.0,0.0,0.0,0.0,0.0,0.0,0.0,0.0,0.0,0.0,0.0,0.0,0.0,0.0,0.0,0.0,0.0,0.0,0.0,0.0,0.0,0.0,0.0,0.0,0.0,0.0,0.0,0.0,0.0,0.0,0.0,0.0,0.0,0.0,0.0,0.0,0.0,0.0,0.0,0.0,0.0,0.0,0.0,0.0,0.0,0.0,0.0,0.0,0.0,0.0,-0.8616,-0.8616,-0.8612,0.0,-0.8616,0.0,0.0,0.0,0.0,0.0,0.0,0.0,0.0,0.0,0.0,0.0,0.0,0.0,0.0,0.0,0.0,0.0,0.0,0.0,0.0,0.0,0.0,0.0,0.0,0.0,0.0,0.0,0.0,0.0,0.0,0.0,0.0,0.0,0.0,0.0,0.0,0.0,0.0,0.0,0.0,0.0,0.0,0.0,0.0,0.0,0.0,0.0,0.0,0.0,0.0,0.0,0.0,0.0,0.0,0.0,0.0,0.0,0.0,0.0,0.0,0.0,0.0,0.0,0.0,0.0,0.0,0.0,0.0,0.0,0.0,0.0,0.0,0.0,0.0,0.0,0.0,0.0,0.0,0.0,0.0,0.0,0.0,0.0,0.0,0.0,0.0,0.0,0.0,0.0,0.0,0.0,0.0,0.0,0.0,0.0,0.0,0.0,0.0,0.0,0.0,0.0,0.0,0.0,0.0,0.0,0.0,0.0,0.0,0.0,0.0,-0.8616,-0.8616,-0.8872,-0.8872,0.0,0.0,0.0,0.0,0.0,0.0,0.0,0.0,0.0,0.0,0.0,0.0,0.0,0.0,0.0,0.0,0.0,0.0,0.0,0.0,0.0,0.0,0.0,0.0,0.0,0.0,0.0,0.0,0.0,0.0,0.0,0.0,0.0,0.0,0.0,0.0,0.0,0.0,0.0,0.0,0.0,0.0,0.0,0.0,0.0,0.0,0.0,0.0,0.0,0.0,0.0,0.0,0.0,0.0,0.0,0.0,0.0,0.0,0.0,0.0,0.0,0.0,0.0,0.0,0.0,0.0,0.0,0.0,0.0,0.0,0.0,0.0,0.0,0.0,0.0,0.0,0.0,0.0,0.0,0.0,0.0,0.0,0.0,0.0,0.0,0.0,0.0,0.0,0.0,0.0,0.0,0.0,0.0,0.0,0.0,0.0,0.0,0.0,0.0,0.0,0.0,0.0,0.0,0.0,0.0,0.0,0.0,0.0,0.0,0.0,-0.874,-0.874,-0.8608,-0.8915,-0.8955,-0.8608,0.0,0.0,0.0,0.0,0.0,0.0,0.0,0.0,0.0,0.0,0.0,0.0,0.0,0.0,0.0,0.0,0.0,0.0,0.0,0.0,0.0,0.0,0.0,0.0,0.0,0.0,0.0,0.0,0.0,0.0,0.0,0.0,0.0,0.0,0.0,0.0,0.0,0.0,0.0,0.0,0.0,0.0,0.0,0.0,0.0,0.0,0.0,0.0,0.0,0.0,0.0,0.0,0.0,0.0,0.0,0.0,0.0,0.0,0.0,0.0,0.0,0.0,0.0,0.0,0.0,0.0,0.0,0.0,0.0,0.0,0.0,0.0,0.0,0.0,0.0,0.0,0.0,0.0,0.0,0.0,0.0,0.0,0.0,0.0,0.0,0.0,0.0,0.0,0.0,0.0,0.0,0.0,0.0,0.0,0.0,0.0,0.0,0.0,0.0,0.0,0.0,0.0,0.0,0.0,0.0,0.0,0.0,0.0,-0.8696,-0.9043,-0.9043,-0.8612,-0.8652,-0.8608,0.0,0.0,0.0,0.0,0.0,0.0,0.0,0.0,0.0,0.0,0.0,0.0,0.0,0.0,0.0,0.0,0.0,0.0,0.0,0.0,0.0,0.0,0.0,0.0,0.0,0.0,0.0,0.0,0.0,0.0,0.0,0.0,0.0,0.0,0.0,0.0,0.0,0.0,0.0,0.0,0.0,0.0,0.0,0.0,0.0,0.0,0.0,0.0,0.0,0.0,0.0,0.0,0.0,0.0,0.0,0.0,0.0,0.0,0.0,0.0,0.0,0.0,0.0,0.0,0.0,0.0,0.0,0.0,0.0,0.0,0.0,0.0,0.0,0.0,0.0,0.0,0.0,0.0,0.0,0.0,0.0,0.0,0.0,0.0,0.0,0.0,0.0,0.0,0.0,0.0,0.0,0.0,0.0,0.0,0.0,0.0,0.0,0.0,0.0,0.0,0.0,0.0,0.0,0.0,0.0,0.0,0.0,0.0,0.0,-0.9087,-0.8915,-0.8784,-0.8608,-0.8872,-0.8915,0.0,0.0,0.0,0.0,0.0,0.0,0.0,0.0,0.0,0.0,0.0,0.0,0.0,0.0,0.0,0.0,0.0,0.0,0.0,0.0,0.0,0.0,0.0,0.0,0.0,0.0,0.0,0.0,0.0,0.0,0.0,0.0,0.0,0.0,0.0,0.0,0.0,0.0,0.0,0.0,0.0,0.0,0.0,0.0,0.0,0.0,0.0,0.0,0.0,0.0,0.0,0.0,0.0,0.0,0.0,0.0,0.0,0.0,0.0,0.0,0.0,0.0,0.0,0.0,0.0,0.0,0.0,0.0,0.0,0.0,0.0,0.0,0.0,0.0,0.0,0.0,0.0,0.0,0.0,0.0,0.0,0.0,0.0,0.0,0.0,0.0,0.0,0.0,0.0,0.0,0.0,0.0,0.0,0.0,0.0,0.0,0.0,0.0,0.0,0.0,0.0,0.0,0.0,0.0,0.0,0.0,0.0,0.0,0.0,-0.982,0.0,-0.9126,-0.9165,-0.9082,-0.8911,0.0,0.0,0.0,0.0,0.0,0.0,0.0,0.0,0.0,0.0,0.0,0.0,0.0,0.0,0.0,0.0,0.0,0.0,0.0,0.0,0.0,0.0,0.0,0.0,0.0,0.0,0.0,0.0,0.0,0.0,0.0,0.0,0.0,0.0,0.0,0.0,0.0,0.0,0.0,0.0,0.0,0.0,0.0,0.0,0.0,0.0,0.0,0.0,0.0,0.0,0.0,0.0,0.0,0.0,0.0,0.0,0.0,0.0,0.0,0.0,0.0,0.0,0.0,0.0,0.0,0.0,0.0,0.0,0.0,0.0,0.0,0.0,0.0,0.0,0.0,0.0,0.0,0.0,0.0,0.0,0.0,0.0,0.0,0.0,0.0,0.0,0.0,0.0,0.0,0.0,0.0,0.0,0.0,0.0,0.0,0.0,0.0,0.0,0.0,0.0,0.0,0.0,0.0,0.0,0.0,0.0,0.0,0.0,-1.0337,-1.0895,-1.0491,-1.0183,-1.0226,-0.9165,-0.8612,0.0,0.0,0.0,0.0,0.0,0.0,0.0,0.0,0.0,0.0,0.0,0.0,0.0,0.0,0.0,0.0,0.0,0.0,0.0,0.0,0.0,0.0,0.0,0.0,0.0,0.0,0.0,0.0,0.0,0.0,0.0,0.0,0.0,0.0,0.0,0.0,0.0,0.0,0.0,0.0,0.0,0.0,0.0,0.0,0.0,0.0,0.0,0.0,0.0,0.0,0.0,0.0,0.0,0.0,0.0,0.0,0.0,0.0,0.0,0.0,0.0,0.0,0.0,0.0,0.0,0.0,0.0,0.0,0.0,0.0,0.0,0.0,0.0,0.0,0.0,0.0,0.0,0.0,0.0,0.0,0.0,0.0,0.0,0.0,0.0,0.0,0.0,0.0,0.0,0.0,0.0,0.0,0.0,0.0,0.0,0.0,0.0,0.0,0.0,0.0,0.0,0.0,0.0,0.0,0.0,0.0,0.0,0.0,0.0,-0.9864,-1.0149,-0.9932,-0.9165,-0.8784,-0.8616,0.0,0.0,0.0,0.0,0.0,0.0,0.0,0.0,0.0,0.0,0.0,0.0,0.0,0.0,0.0,0.0,0.0,0.0,0.0,0.0,0.0,0.0,0.0,0.0,0.0,0.0,0.0,0.0,0.0,0.0,0.0,0.0,0.0,0.0,0.0,0.0,0.0,0.0,0.0,0.0,0.0,0.0,0.0,0.0,0.0,0.0,0.0,0.0,0.0,0.0,0.0,0.0,0.0,0.0,0.0,0.0,0.0,0.0,0.0,0.0,0.0,0.0,0.0,0.0,0.0,0.0,0.0,0.0,0.0,0.0,0.0,0.0,0.0,0.0,0.0,0.0,0.0,0.0,0.0,0.0,0.0,0.0,0.0,0.0,0.0,0.0,0.0,0.0,0.0,0.0,0.0,0.0,0.0,0.0,0.0,0.0,0.0,0.0,0.0,0.0,0.0,0.0,0.0,0.0,0.0,0.0,0.0,0.0,0.0,-0.8598,-0.9813,-1.0013,-0.8972,-0.8517,-0.8382,-0.8576,0.0,0.0,0.0,0.0,0.0,0.0,0.0,0.0,0.0,0.0,0.0,0.0,0.0,0.0,0.0,0.0,0.0,0.0,0.0,0.0,0.0,0.0,0.0,0.0,0.0,0.0,0.0,0.0,0.0,0.0,0.0,0.0,0.0,0.0,0.0,0.0,0.0,0.0,0.0,0.0,0.0,0.0,0.0,0.0,0.0,0.0,0.0,0.0,0.0,0.0,0.0,0.0,0.0,0.0,0.0,0.0,0.0,0.0,0.0,0.0,0.0,0.0,0.0,0.0,0.0,0.0,0.0,0.0,0.0,0.0,0.0,0.0,0.0,0.0,0.0,0.0,0.0,0.0,0.0,0.0,0.0,0.0,0.0,0.0,0.0,0.0,0.0,0.0,0.0,0.0,0.0,0.0,0.0,0.0,0.0,0.0,0.0,0.0,0.0,0.0,0.0,0.0,0.0,0.0,0.0,0.0,0.0,0.0,-0.7063,-0.9348,-1.0141,-0.9324,-0.8303,-0.8026,0.0,0.0,0.0,0.0,0.0,0.0,0.0,0.0,0.0,0.0,0.0,0.0,0.0,0.0,0.0,0.0,0.0,0.0,0.0,0.0,0.0,0.0,0.0,0.0,0.0,0.0,0.0,0.0,0.0,0.0,0.0,0.0,0.0,0.0,0.0,0.0,0.0,0.0,0.0,0.0,0.0,0.0,0.0,0.0,0.0,0.0,0.0,0.0,0.0,0.0,0.0,0.0,0.0,0.0,0.0,0.0,0.0,0.0,0.0,0.0,0.0,0.0,0.0,0.0,0.0,0.0,0.0,0.0,0.0,0.0,0.0,0.0,0.0,0.0,0.0,0.0,0.0,0.0,0.0,0.0,0.0,0.0,0.0,0.0,0.0,0.0,0.0,0.0,0.0,0.0,0.0,0.0,0.0,0.0,0.0,0.0,0.0,0.0,0.0,0.0,0.0,0.0,0.0,0.0,0.0,0.0,0.0,0.0,0.0,-0.6216,-0.6629,-0.6719,-0.646,-0.7144,-0.7566,0.0,0.0,0.0,0.0,0.0,0.0,0.0,0.0,0.0,0.0,0.0,0.0,0.0,0.0,0.0,0.0,0.0,0.0,0.0,0.0,0.0,0.0,0.0,0.0,0.0,0.0,0.0,0.0,0.0,0.0,0.0,0.0,0.0,0.0,0.0,0.0,0.0,0.0,0.0,0.0,0.0,0.0,0.0,0.0,0.0,0.0,0.0,0.0,0.0,0.0,0.0,0.0,0.0,0.0,0.0,0.0,0.0,0.0,0.0,0.0,0.0,0.0,0.0,0.0,0.0,0.0,0.0,0.0,0.0,0.0,0.0,0.0,0.0,0.0,0.0,0.0,0.0,0.0,0.0,0.0,0.0,0.0,0.0,0.0,0.0,0.0,0.0,0.0,0.0,0.0,0.0,0.0,0.0,0.0,0.0,0.0,0.0,0.0,0.0,0.0,0.0,0.0,0.0,0.0,0.0,0.0,0.0,0.0,-0.6065,-0.5461,-0.4222,-0.3578,-0.3738,-0.5804,-0.7047,0.0,0.0,0.0,0.0,0.0,0.0,0.0,0.0,0.0,0.0,0.0,0.0,0.0,0.0,0.0,0.0,0.0,0.0,0.0,0.0,0.0,0.0,0.0,0.0,0.0,0.0,0.0,0.0,0.0,0.0,0.0,0.0,0.0,0.0,0.0,0.0,0.0,0.0,0.0,0.0,0.0,0.0,0.0,0.0,0.0,0.0,0.0,0.0,0.0,0.0,0.0,0.0,0.0,0.0,0.0,0.0,0.0,0.0,0.0,0.0,0.0,0.0,0.0,0.0,0.0,0.0,0.0,0.0,0.0,0.0,0.0,0.0,0.0,0.0,0.0,0.0,0.0,0.0,0.0,0.0,0.0,0.0,0.0,0.0,0.0,0.0,0.0,0.0,0.0,0.0,0.0,0.0,0.0,0.0,0.0,0.0,0.0,0.0,0.0,0.0,0.0,0.0,0.0,0.0,0.0,0.0,0.0,0.0,-0.4408,-0.468,-0.2231,-0.1103,-0.1506,-0.4448,-0.644,0.0,0.0,0.0,0.0,0.0,0.0,0.0,0.0,0.0,0.0,0.0,0.0,0.0,0.0,0.0,0.0,0.0,0.0,0.0,0.0,0.0,0.0,0.0,0.0,0.0,0.0,0.0,0.0,0.0,0.0,0.0,0.0,0.0,0.0,0.0,0.0,0.0,0.0,0.0,0.0,0.0,0.0,0.0,0.0,0.0,0.0,0.0,0.0,0.0,0.0,0.0,0.0,0.0,0.0,0.0,0.0,0.0,0.0,0.0,0.0,0.0,0.0,0.0,0.0,0.0,0.0,0.0,0.0,0.0,0.0,0.0,0.0,0.0,0.0,0.0,0.0,0.0,0.0,0.0,0.0,0.0,0.0,0.0,0.0,0.0,0.0,0.0,0.0,0.0,0.0,0.0,0.0,0.0,0.0,0.0,0.0,0.0,0.0,0.0,0.0,0.0,0.0,0.0,0.0,0.0,0.0,0.0,0.0,-0.3805,-0.2757,-0.1372,-0.0773,-0.11,-0.3966,-0.5705,0.0,0.0,0.0,0.0,0.0,0.0,0.0,0.0,0.0,0.0,0.0,0.0,0.0,0.0,0.0,0.0,0.0,0.0,0.0,0.0,0.0,0.0,0.0,0.0,0.0,0.0,0.0,0.0,0.0,0.0,0.0,0.0,0.0,0.0,0.0,0.0,0.0,0.0,0.0,0.0,0.0,0.0,0.0,0.0,0.0,0.0,0.0,0.0,-0.5792,0.0,0.0,0.0,0.0,0.0,0.0,0.0,0.0,0.0,0.0,0.0,0.0,0.0,0.0,0.0,0.0,0.0,0.0,0.0,0.0,0.0,0.0,0.0,0.0,0.0,0.0,0.0,0.0,0.0,0.0,0.0,0.0,0.0,0.0,0.0,0.0,0.0,0.0,0.0,0.0,0.0,0.0,0.0,0.0,0.0,0.0,0.0,0.0,0.0,0.0,0.0,0.0,0.0,0.0,0.0,0.0,0.0,0.0,0.0,-0.3593,-0.2099,-0.0904,-0.0427,-0.0838,-0.2935,-0.4584,0.0,0.0,0.0,0.0,0.0,0.0,0.0,0.0,0.0,0.0,0.0,0.0,0.0,0.0,0.0,0.0,0.0,0.0,0.0,0.0,0.0,0.0,0.0,0.0,0.0,0.0,0.0,0.0,0.0,0.0,0.0,0.0,0.0,0.0,0.0,0.0,0.0,0.0,0.0,0.0,0.0,0.0,0.0,0.0,0.0,0.0,0.0,0.0,0.0,0.0,0.0,0.0,0.0,0.0,0.0,0.0,0.0,0.0,0.0,0.0,0.0,0.0,0.0,0.0,0.0,0.0,0.0,0.0,0.0,0.0,0.0,0.0,0.0,0.0,0.0,0.0,0.0,0.0,0.0,0.0,0.0,0.0,0.0,0.0,0.0,0.0,0.0,0.0,0.0,0.0,0.0,0.0,0.0,0.0,0.0,0.0,0.0,0.0,0.0,0.0,0.0,0.0,0.0,0.0,0.0,0.0,0.0,-0.4861,-0.3492,-0.18,-0.0631,-0.0143,-0.0429,-0.1919,-0.3545,-0.5316,0.0,0.0,0.0,0.0,0.0,0.0,0.0,0.0,0.0,0.0,0.0,0.0,0.0,0.0,0.0,0.0,0.0,0.0,0.0,0.0,0.0,0.0,0.0,0.0,0.0,0.0,0.0,0.0,0.0,0.0,0.0,0.0,0.0,0.0,0.0,0.0,0.0,0.0,-0.5326,-0.5106,0.0,0.0,0.0,0.0,0.0,0.0,0.0,0.0,-0.541,0.0,0.0,0.0,0.0,0.0,0.0,0.0,0.0,0.0,0.0,0.0,0.0,0.0,0.0,0.0,0.0,0.0,0.0,0.0,0.0,0.0,0.0,0.0,0.0,0.0,0.0,0.0,0.0,0.0,0.0,0.0,0.0,0.0,0.0,0.0,0.0,0.0,0.0,0.0,0.0,0.0,0.0,0.0,0.0,0.0,0.0,0.0,0.0,0.0,0.0,0.0,0.0,0.0,0.0,0.0,0.0,-0.3782,-0.4075,-0.3016,-0.0429,-0.0145,0.0,-0.0143,-0.1888,-0.3485,-0.4864,0.0,0.0,0.0,0.0,0.0,0.0,0.0,0.0,0.0,0.0,0.0,0.0,0.0,0.0,0.0,0.0,0.0,0.0,0.0,0.0,0.0,0.0,0.0,0.0,0.0,0.0,0.0,0.0,0.0,0.0,0.0,0.0,0.0,0.0,0.0,0.0,0.0,0.0,0.0,-0.509,-0.4964,0.0,0.0,0.0,0.0,0.0,0.0,0.0,0.0,-0.5329,0.0,0.0,0.0,0.0,0.0,0.0,0.0,0.0,0.0,0.0,0.0,0.0,0.0,0.0,0.0,0.0,0.0,0.0,0.0,0.0,0.0,0.0,0.0,0.0,0.0,0.0,0.0,0.0,0.0,0.0,0.0,0.0,0.0,0.0,0.0,0.0,0.0,0.0,0.0,0.0,0.0,0.0,0.0,0.0,0.0,0.0,0.0,0.0,0.0,0.0,0.0,0.0,0.0,0.0,0.0,-0.3365,-0.3248,-0.2169,0.0,0.0,0.0,0.0,-0.1904,-0.3527,0.0,0.0,0.0,0.0,0.0,0.0,0.0,0.0,0.0,0.0,0.0,0.0,0.0,0.0,0.0,0.0,0.0,0.0,0.0,0.0,0.0,0.0,0.0,0.0,0.0,0.0,0.0,0.0,0.0,0.0,0.0,0.0,0.0,0.0,0.0,0.0,0.0,0.0,0.0,0.0,-0.5083,-0.5095,-0.5389,0.0,0.0,0.0,0.0,0.0,0.0,-0.5272,-0.519,0.0,0.0,0.0,0.0,0.0,0.0,0.0,0.0,0.0,0.0,0.0,0.0,0.0,0.0,0.0,0.0,0.0,0.0,0.0,0.0,0.0,0.0,0.0,0.0,0.0,0.0,0.0,0.0,0.0,0.0,0.0,0.0,0.0,0.0,0.0,0.0,0.0,0.0,0.0,0.0,0.0,0.0,0.0,0.0,0.0,0.0,0.0,0.0,0.0,0.0,0.0,0.0,0.0,0.0,0.0,-0.318,-0.2488,-0.1429,0.0,0.0,0.0,0.0,-0.2166,-0.376,0.0,0.0,0.0,0.0,0.0,0.0,0.0,0.0,0.0,0.0,0.0,0.0,0.0,0.0,0.0,0.0,0.0,0.0,0.0,0.0,0.0,0.0,0.0,0.0,0.0,0.0,0.0,0.0,0.0,0.0,0.0,0.0,0.0,0.0,0.0,0.0,0.0,0.0,0.0,0.0,0.0,-0.5175,-0.5355,-0.5224,0.0,0.0,0.0,0.0,-0.5165,-0.5192,0.0,0.0,0.0,0.0,0.0,0.0,0.0,0.0,0.0,0.0,0.0,0.0,0.0,0.0,0.0,0.0,0.0,0.0,0.0,0.0,0.0,0.0,0.0,0.0,0.0,0.0,0.0,0.0,0.0,0.0,0.0,0.0,0.0,0.0,0.0,0.0,0.0,0.0,0.0,0.0,0.0,0.0,0.0,0.0,0.0,0.0,0.0,0.0,0.0,0.0,0.0,0.0,0.0,0.0,0.0,0.0,-0.2466,-0.2234,-0.1429,0.0,0.0,0.0,0.0,-0.2957,-0.4627,0.0,0.0,0.0,0.0,0.0,0.0,0.0,0.0,0.0,0.0,0.0,0.0,0.0,0.0,0.0,0.0,0.0,0.0,0.0,0.0,0.0,0.0,0.0,0.0,0.0,0.0,0.0,0.0,0.0,0.0,0.0,0.0,0.0,0.0,0.0,0.0,0.0,0.0,0.0,0.0,0.0,-0.5175,-0.5355,-0.5224,-0.5106,0.0,0.0,-0.5351,-0.5349,-0.548,0.0,0.0,0.0,0.0,0.0,0.0,0.0,0.0,0.0,0.0,0.0,0.0,0.0,0.0,0.0,0.0,0.0,0.0,0.0,0.0,0.0,0.0,0.0,0.0,0.0,0.0,0.0,0.0,0.0,0.0,0.0,0.0,0.0,0.0,0.0,0.0,0.0,0.0,0.0,0.0,0.0,0.0,0.0,0.0,0.0,0.0,0.0,0.0,0.0,0.0,0.0,0.0,0.0,0.0,0.0,-0.222,-0.1895,-0.127,-0.0638,0.0,0.0,0.0,0.0,-0.3138,-0.4784,0.0,0.0,0.0,0.0,0.0,0.0,0.0,0.0,0.0,0.0,0.0,0.0,0.0,0.0,0.0,0.0,0.0,0.0,0.0,0.0,0.0,0.0,0.0,0.0,0.0,0.0,0.0,0.0,0.0,0.0,0.0,0.0,0.0,0.0,0.0,0.0,0.0,0.0,0.0,0.0,0.0,0.0,-0.5371,-0.5314,0.0,0.0,0.0,-0.5345,-0.5243,0.0,0.0,0.0,0.0,0.0,0.0,0.0,0.0,0.0,0.0,0.0,0.0,0.0,0.0,0.0,0.0,0.0,0.0,0.0,0.0,0.0,0.0,0.0,0.0,0.0,0.0,0.0,0.0,0.0,0.0,0.0,0.0,0.0,0.0,0.0,0.0,0.0,0.0,0.0,0.0,0.0,0.0,0.0,0.0,0.0,0.0,0.0,0.0,0.0,0.0,0.0,0.0,0.0,0.0,0.0,0.0,0.0,-0.1544,-0.0553,0.0,0.0,0.0,0.0,0.0,-0.2719,0.0,0.0,0.0,0.0,0.0,0.0,0.0,0.0,0.0,0.0,0.0,0.0,0.0,0.0,0.0,0.0,0.0,0.0,0.0,0.0,0.0,0.0,0.0,0.0,0.0,0.0,0.0,-0.4839,0.0,0.0,0.0,0.0,0.0,0.0,0.0,0.0,0.0,0.0,0.0,0.0,0.0,0.0,-0.5382,-0.5382,-0.5398,-0.5429,0.0,0.0,-0.5416,-0.5324,-0.5571,-0.5655,0.0,0.0,0.0,0.0,0.0,0.0,0.0,0.0,0.0,0.0,0.0,0.0,0.0,0.0,0.0,0.0,0.0,0.0,0.0,0.0,0.0,0.0,0.0,0.0,0.0,0.0,0.0,0.0,0.0,0.0,0.0,0.0,0.0,0.0,0.0,0.0,0.0,0.0,0.0,0.0,0.0,0.0,0.0,0.0,0.0,0.0,0.0,0.0,0.0,0.0,0.0,0.0,0.0,0.0,-0.1109,-0.1547,-0.0553,0.0,0.0,0.0,0.0,0.0,-0.1654,-0.3335,0.0,0.0,0.0,0.0,0.0,0.0,0.0,0.0,0.0,0.0,0.0,0.0,0.0,0.0,0.0,0.0,0.0,0.0,0.0,0.0,0.0,0.0,0.0,0.0,0.0,0.0,0.0,0.0,0.0,0.0,0.0,0.0,0.0,0.0,0.0,0.0,0.0,0.0,0.0,0.0,0.0,-0.5384,-0.5382,-0.5449,-0.5559,0.0,-0.5682,-0.5621,-0.5837,-0.6016,-0.6023,-0.5605,0.0,0.0,0.0,0.0,0.0,0.0,0.0,0.0,0.0,0.0,0.0,0.0,0.0,0.0,0.0,0.0,0.0,0.0,0.0,0.0,0.0,0.0,0.0,0.0,0.0,0.0,0.0,0.0,0.0,0.0,0.0,0.0,0.0,0.0,0.0,0.0,0.0,0.0,0.0,0.0,0.0,0.0,0.0,0.0,0.0,0.0,0.0,0.0,0.0,0.0,0.0,0.0,0.0,-0.0926,-0.1112,-0.0346,0.0,0.0,0.0,0.0,0.0,-0.1521,-0.3219,0.0,0.0,0.0,0.0,0.0,0.0,0.0,0.0,0.0,0.0,0.0,0.0,0.0,0.0,0.0,0.0,0.0,0.0,0.0,0.0,0.0,0.0,0.0,0.0,0.0,0.0,0.0,0.0,-0.485,-0.4523,-0.3897,0.0,0.0,0.0,0.0,0.0,0.0,0.0,0.0,0.0,0.0,-0.552,-0.5688,-0.5739,0.0,0.0,-0.5835,-0.5796,-0.5695,-0.559,-0.5341,-0.496,-0.4664,0.0,0.0,0.0,0.0,0.0,0.0,0.0,0.0,0.0,0.0,0.0,0.0,0.0,0.0,0.0,0.0,0.0,0.0,0.0,0.0,0.0,0.0,0.0,0.0,0.0,0.0,0.0,0.0,0.0,0.0,0.0,0.0,0.0,0.0,0.0,0.0,0.0,0.0,0.0,0.0,0.0,0.0,0.0,0.0,0.0,0.0,0.0,0.0,0.0,0.0,0.0,0.0,-0.0808,-0.0809,-0.0277,0.0,0.0,0.0,0.0,0.0,-0.1125,-0.2563,0.0,0.0,0.0,0.0,0.0,0.0,0.0,0.0,0.0,0.0,0.0,0.0,0.0,0.0,0.0,0.0,0.0,0.0,0.0,0.0,0.0,0.0,0.0,0.0,0.0,0.0,0.0,0.0,-0.4224,-0.3882,-0.3522,0.0,0.0,0.0,0.0,0.0,0.0,0.0,0.0,0.0,0.0,-0.5562,-0.5515,-0.5553,-0.5632,-0.5632,-0.5426,-0.5264,-0.5199,-0.504,-0.4915,-0.4705,0.0,0.0,0.0,0.0,0.0,0.0,0.0,0.0,0.0,0.0,0.0,0.0,0.0,0.0,0.0,0.0,0.0,0.0,0.0,0.0,0.0,0.0,0.0,0.0,0.0,0.0,0.0,-0.0855,0.0,0.0,0.0095,0.0,0.0,0.0,0.0,0.0,0.0,0.0,0.0,0.0,0.0,0.0,0.0,0.0,0.0,0.0,0.0,0.0,0.0,0.0,0.0,0.0,0.0,-0.0883,-0.0885,-0.0278,0.0,0.0,0.0,0.0,0.0,0.0,-0.0928,-0.2732,0.0,0.0,0.0,0.0,0.0,0.0,0.0,0.0,0.0,0.0,0.0,0.0,0.0,0.0,0.0,0.0,0.0,0.0,0.0,0.0,0.0,0.0,0.0,0.0,0.0,0.0,-0.2597,-0.2665,-0.2987,0.0,0.0,0.0,0.0,0.0,0.0,0.0,0.0,0.0,-0.4301,-0.5208,-0.56,-0.4737,-0.4778,-0.4951,-0.4893,-0.4407,-0.3988,-0.4164,-0.4616,-0.4986,0.0,0.0,0.0,0.0,0.0,0.0,0.0,0.0,0.0,0.0,0.0,0.0,0.0,0.0,0.0,0.0,0.0,0.0,0.0,0.0,0.0,0.0,0.0,0.0,0.0,0.0,0.0,0.0941,0.0545,0.0,0.0,0.0,0.0,0.0,0.0,0.0,0.0,0.0,0.0,0.0,-0.1706,-0.1716,0.0,0.0,0.0,0.0,0.0,0.0,0.0,0.0,0.0,0.0,0.0,0.0,-0.0884,-0.0889,-0.0348,0.0,0.0,0.0,0.0,0.0,0.0,-0.0573,-0.1716,0.0,0.0,0.0,0.0,0.0,0.0,0.0,0.0,0.0,0.0,0.0,0.0,0.0,0.0,0.0,0.0,0.0,0.0,0.0,0.0,0.0,0.0,0.0,0.0,0.0,-0.3178,0.0,0.0,0.0,0.0,0.0,0.0,0.0,0.0,0.0,0.0,-0.318,-0.3271,-0.3396,-0.4002,-0.4388,-0.4295,-0.4329,-0.4375,0.0,0.0,0.0,0.0,0.0,0.0,0.0,0.0,0.0,0.0,0.0,0.0,0.0,0.0,-0.2889,-0.2031,-0.0706,0.0299,0.006,0.0,0.0,0.0,0.0,0.0,0.0,0.0,0.0,0.0,0.0,0.0,0.0,0.0,0.0,0.1719,0.1084,0.1953,0.0,0.0,0.0,0.0,0.0,0.0,0.0,0.0,-0.1068,-0.1348,-0.1442,-0.1449,-0.1459,-0.1472,-0.1444,-0.1753,0.0,0.0,0.0,0.0,0.0,0.0,0.0,0.0,-0.1145,-0.1596,-0.0558,0.0,0.0,0.0,0.0,0.0,0.0,-0.0288,-0.0837,-0.1723,-0.242,0.0,0.0,0.0,0.0,0.0,0.0,0.0,0.0,0.0,0.0,0.0,0.0,0.0,0.0,0.0,0.0,0.0,0.0,0.0,0.0,0.0,0.0,0.0,-0.3159,0.0,0.0,0.0,0.0,0.0,0.0,0.0,0.0,0.0,-0.2563,-0.2724,-0.2801,-0.2963,-0.3496,-0.3846,-0.3696,0.0,0.0,0.0,0.0,0.0,0.0,0.0,-0.2876,-0.2791,-0.2695,-0.2495,-0.2365,-0.2636,-0.2899,-0.2899,0.0,0.0,-0.2646,-0.1337,-0.037,-0.0617,-0.0489,-0.0426,-0.0616,-0.1468,-0.2192,0.0,0.0,0.0,0.0,0.1979,0.0,0.0,0.0,0.2343,0.1819,0.0,0.1663,0.0,0.0,0.0,0.0,0.1211,0.0644,0.0,0.0,-0.0461,-0.0409,-0.1145,-0.1131,-0.1207,-0.1301,-0.2084,-0.2172,-0.1679,-0.107,0.0,0.0,0.0,0.0,0.0,0.0,-0.1612,-0.2845,-0.0981,0.0,0.0,0.0,0.0,0.0,0.0,0.0,0.0,-0.0276,-0.0402,-0.0461,-0.0986,0.0,0.0,0.0,0.0,0.0,0.0,0.0,0.0,0.0,0.0,0.0,0.0,0.0,0.0,0.0,0.0,0.0,0.0,0.0,0.0,-0.2918,0.0,0.0,0.0,0.0,0.0,0.0,0.0,0.0,0.0,-0.2017,-0.2592,-0.2836,-0.2968,-0.2887,0.0,0.0,0.0,0.0,-0.2897,-0.2678,-0.2197,-0.1805,-0.1865,-0.2373,-0.2801,-0.2945,0.0,0.0,-0.3154,-0.2961,-0.2851,-0.2848,-0.2474,-0.2432,-0.3482,-0.2479,-0.1488,-0.1488,-0.1489,-0.1485,-0.1609,-0.261,-0.3598,-0.078,0.0,0.0,0.0,0.0,0.1753,0.1903,0.1848,0.203,0.1503,0.0631,0.1523,0.0,0.0,0.0,0.0,0.0,0.0,0.0307,0.0127,-0.0133,-0.0274,-0.0352,-0.0354,-0.0356,-0.0358,-0.0636,-0.0632,-0.0493,-0.035,-0.0598,-0.132,0.0,0.0,0.0,0.0,-0.144,-0.1148,-0.0355,0.0,0.0,0.0,0.0,0.0,0.0,0.0,0.0,-0.0071,-0.0208,-0.0402,-0.0585,0.0,0.0,0.0,0.0,0.0,0.0,0.0,0.0,0.0,0.0,0.0,0.0,0.0,0.0,0.0,0.0,0.0,0.0,0.0,-0.2131,-0.2604,-0.2722,0.0,0.0,0.0,0.0,0.0,0.0,0.0,0.0,0.0,-0.2178,-0.2212,-0.2199,0.0,0.0,-0.2382,-0.211,-0.2164,-0.2213,-0.2164,-0.2044,0.0,-0.1981,-0.215,-0.2261,-0.2281,-0.2467,-0.2579,-0.2386,-0.2411,-0.2431,-0.243,-0.2249,-0.2321,-0.2568,-0.2299,-0.197,-0.1971,-0.1971,-0.1971,-0.2036,-0.2758,-0.3346,-0.1247,-0.0407,0.0397,0.0904,0.1086,0.1316,0.1457,0.1562,0.1571,0.1023,0.0179,0.0919,0.0847,0.0116,0.0832,0.0,0.0,0.0,0.0194,0.0471,0.0,-0.014,0.0,0.0,0.0,0.0,0.0,0.0,0.0,-0.0359,-0.0687,-0.0956,0.0,-0.2269,-0.1983,-0.1489,-0.1272,-0.1305,-0.0429,0.0,0.0,0.0,0.0,0.0,0.0,0.0,0.0,0.0,-0.0071,-0.0274,-0.0334,-0.0579,0.0,0.0,0.0,0.0,0.0,0.0,0.0,0.0,0.0,0.0,0.0,-0.272,-0.1835,0.0,0.0,0.0,-0.2099,-0.239,-0.268,-0.2899,0.0,0.0,0.0,0.0,0.0,0.0,0.0,-0.1844,-0.198,-0.2038,-0.1976,-0.1945,-0.193,-0.1953,-0.1924,-0.1893,-0.187,0.0,-0.1961,-0.1975,-0.2038,-0.1988,-0.2087,-0.202,-0.2018,-0.2044,-0.214,-0.2164,-0.2166,-0.2198,-0.2221,-0.2222,-0.2222,-0.2222,-0.2222,-0.2222,-0.2222,-0.2222,-0.2222,-0.2222,-0.2222,-0.2558,-0.2826,-0.1793,-0.1354,-0.029,0.0404,0.0829,0.0889,0.0904,0.0992,0.1006,0.0374,-0.0547,0.019,0.0188,-0.0299,0.0123,0.0,0.0715,-0.0067,-0.0207,0.0,0.0,0.0,0.0,0.0,0.0,0.0,0.0,0.0,0.0,-0.0773,-0.0895,-0.0412,-0.0412,-0.1212,-0.2727,-0.1279,-0.1168,-0.2409,-0.0859,0.0,0.0,0.0,0.0,0.0,0.0,0.0,0.0,0.0,0.0,0.0,-0.0271,-0.0392,-0.0443,0.0,0.0,0.0,0.0,0.0,0.0,0.0,0.0,0.0,0.0,0.0,0.0,0.0,0.0,-0.1964,-0.2532,0.0,-0.3897,-0.3317,0.0,0.0,0.0,-0.1915,-0.1971,-0.2043,-0.2043,-0.2039,0.0,0.0,-0.1984,-0.1984,-0.2005,-0.2128,-0.2128,-0.2101,-0.1984,-0.2022,-0.2044,-0.1931,-0.1927,-0.193,-0.1883,-0.1915,-0.1957,-0.2068,-0.2155,-0.2151,-0.2218,-0.222,-0.2222,-0.2222,-0.2222,-0.2222,-0.2222,-0.2222,-0.2222,-0.2222,-0.2222,-0.2222,-0.2222,-0.2222,-0.2289,-0.1679,-0.113,-0.0804,-0.037,0.0249,0.0497,0.0753,0.1021,0.1025,0.0703,0.0191,0.039,0.0263,-0.0066,0.0067,0.0135,0.0207,0.0,-0.0071,0.0,0.0,0.0,0.0,0.0,0.0,0.0,0.0,0.0,0.0,-0.0217,-0.0354,-0.0413,-0.0412,-0.0615,-0.1016,-0.1093,-0.0906,-0.0647,-0.0218,0.0,0.0,0.0,0.0,0.0,0.0,0.0,0.0,0.0,0.0,0.0,-0.007,-0.0203,-0.0386,-0.0809,0.0,0.0,0.0,0.0,0.0,0.0,0.0,0.0,0.0,-0.3028,-0.1877,0.0,-0.3069,0.0,-0.2175,-0.2362,-0.2552,-0.2409,0.0,0.0,-0.2086,-0.196,-0.1975,-0.2016,-0.2089,-0.2043,-0.2016,-0.2107,-0.2107,-0.2107,-0.213,-0.2189,-0.2119,-0.1992,-0.1979,-0.1773,-0.1673,-0.1601,-0.143,-0.1319,-0.1318,-0.1326,-0.1469,-0.1681,-0.1751,-0.1818,-0.2155,-0.2222,-0.2222,-0.2222,-0.2222,-0.2222,-0.2155,-0.2222,-0.2222,-0.2222,-0.2222,-0.2222,-0.2222,-0.2222,-0.2222,-0.1446,-0.0956,-0.0701,-0.0256,0.0257,0.0256,0.0384,0.0581,0.0584,0.0456,0.0261,0.0266,0.0068,-0.0275,-0.0278,-0.0351,-0.0496,-0.0359,-0.0289,-0.0289,-0.0073,0.0,0.0,0.0,0.0,0.0,0.0,0.0,0.0,0.0,-0.0072,-0.0212,-0.0212,-0.0212,-0.0282,-0.0817,-0.0879,-0.0415,-0.0211,-0.0143,0.0,0.0,-0.0072,-0.0142,-0.0142,-0.0282,-0.0415,-0.0415,-0.0413,-0.0407,-0.0404,-0.046,-0.0628,-0.0919,-0.1133,0.0,0.0,0.0,0.0,0.0,0.0,0.0,0.0,0.0,0.0,0.0,-0.2766,-0.1986,-0.201,-0.2053,-0.2091,-0.2025,-0.2022,-0.2016,-0.2016,-0.2026,-0.2052,-0.2085,-0.2157,-0.206,-0.2084,-0.2104,-0.217,-0.1972,-0.1917,-0.1881,-0.1769,-0.167,-0.1736,-0.1564,-0.1315,-0.1316,-0.1199,-0.1077,-0.1077,-0.1077,-0.1144,-0.1346,-0.1414,-0.1481,-0.1683,-0.1751,-0.1683,-0.1683,-0.1683,-0.1683,-0.1683,-0.1683,-0.1683,-0.1683,-0.1683,-0.1818,-0.2155,-0.2222,-0.2222,-0.0765,-0.0388,0.0065,0.0456,0.0726,0.0327,0.013,0.0065,0.0,0.0,0.0,-0.0068,-0.0276,-0.0623,-0.0637,-0.086,-0.1149,-0.0871,-0.0657,-0.0657,-0.0292,-0.0073,-0.0073,0.0,0.0,0.0,0.0,0.0,0.0,0.0,0.0,-0.0072,-0.0072,-0.0072,-0.0143,-0.0669,-0.0843,-0.0787,-0.0541,-0.028,-0.0072,-0.0072,-0.0212,-0.0478,-0.0477,-0.0603,-0.0905,-0.0903,-0.0898,-0.0887,-0.0885,-0.0875,-0.0853,-0.1078,-0.1239,0.0,-0.1495,0.0,0.0,0.0,0.0,0.0,0.0,0.0,0.0,-0.2038,-0.2042,-0.1986,-0.2098,-0.2046,-0.2003,-0.1999,-0.202,-0.2133,-0.2076,-0.2031,-0.208,-0.2087,-0.202,-0.2087,-0.2087,-0.2087,-0.2018,-0.1751,-0.1548,-0.1481,-0.1276,-0.1138,-0.1344,-0.1209,-0.1008,-0.101,-0.101,-0.0875,-0.0875,-0.0943,-0.0943,-0.101,-0.101,-0.1077,-0.1144,-0.1144,-0.1144,-0.1144,-0.1144,-0.1144,-0.1077,-0.1144,-0.1144,-0.1144,-0.1144,-0.1346,-0.1885,-0.2087,-0.2155,0.1875,0.2423,0.1966,0.1983,0.2211,0.1286,0.0675,0.0401,0.0136,0.0,0.0,-0.0349,-0.0492,-0.0639,-0.0928,-0.1152,-0.1163,-0.1094,-0.1095,-0.1095,-0.0657,-0.0511,-0.0438,-0.0146,0.0,0.0,0.0,0.0,0.0,0.0,-0.0072,-0.0348,-0.0348,-0.0479,-0.0728,0.0,0.0,0.0,-0.0348,-0.0345,-0.0347,-0.0605,-0.0724,-0.0784,-0.0783,0.0,-0.0903,-0.0903,-0.0902,-0.0899,-0.089,0.0,0.0,0.0,0.0,0.0,0.0,0.0,0.0,0.0,0.0,0.0,-0.1571,-0.1677,-0.1977,-0.2038,-0.1996,-0.2107,-0.2122,-0.2145,-0.2183,-0.2121,-0.2192,-0.2136,-0.187,-0.174,-0.1682,-0.1481,-0.1279,-0.1279,-0.1346,-0.1279,-0.1346,-0.1212,-0.1212,-0.1144,-0.0875,-0.0673,-0.0673,-0.0673,-0.0606,-0.0606,-0.0404,-0.0269,-0.0202,0.0,-0.0404,-0.0539,-0.0606,-0.0741,-0.101,-0.1077,-0.1077,-0.1077,-0.1077,-0.1077,-0.1077,-0.1077,-0.1077,-0.1077,-0.1077,-0.1144,-0.1279,-0.1548,-0.1683,0.2952,0.3255,0.3257,0.3271,0.0,0.2116,0.1437,0.1021,0.0276,-0.0139,-0.0351,-0.0494,-0.0853,-0.1217,-0.1369,-0.1595,-0.1751,-0.1604,-0.1532,-0.1459,-0.1095,-0.0876,-0.0876,-0.073,-0.0584,-0.0584,-0.0584,-0.0584,-0.0584,-0.0584,-0.065,-0.0779,-0.0779,-0.0771,-0.0756,-0.0549,-0.0347,-0.0213,-0.0347,-0.0347,-0.0212,-0.0347,-0.0544,-0.0666,-0.0666,0.0,0.0,0.0,0.0,0.0,0.0,0.0,0.0,-0.0827,0.0,-0.0709,-0.0833,-0.1031,-0.1249,-0.1384,-0.1524,-0.1882,-0.1872,-0.1968,-0.2026,-0.2111,-0.2141,-0.2171,-0.2174,-0.2055,-0.1949,-0.1885,-0.1818,-0.1683,-0.1481,-0.1346,-0.1346,-0.1212,-0.1077,-0.1077,-0.1077,-0.1077,-0.1077,-0.0943,-0.0808,-0.0808,-0.0471,0.0,-0.0269,-0.0269,-0.0269,-0.0269,-0.0135,0.0,0.0,0.0,0.0,-0.0202,-0.0269,-0.0337,-0.0539,-0.0539,-0.0539,-0.0539,-0.0539,-0.0539,-0.0539,-0.0539,-0.0539,-0.0539,-0.0539,-0.0539,-0.0606,-0.101,-0.1346,0.3985,0.3961,0.45,0.4502,0.4102,0.2941,0.2142,0.1529,0.0421,0.0,0.0,-0.0643,-0.1005,-0.1581,-0.1741,-0.1968,-0.2187,-0.1968,-0.1895,-0.1822,-0.1459,-0.1313,-0.1313,-0.1241,-0.1168,-0.1168,-0.1168,-0.1168,-0.1168,-0.1168,-0.1168,-0.1168,-0.1168,-0.1022,-0.0584,-0.0292,-0.0144,-0.0348,-0.0345,-0.0279,-0.0072,-0.0143,-0.0281,-0.0476,-0.0476,-0.0602,-0.0904,-0.0903,-0.0903,-0.0903,-0.0903,-0.084,-0.0844,-0.0845,-0.0783,-0.0723,-0.0789,-0.0997,-0.1363,-0.1571,-0.1792,-0.218,-0.2113,-0.214,-0.2104,-0.2142,-0.217,-0.2171,-0.2171,-0.1967,-0.1628,-0.156,-0.1424,-0.1153,-0.1017,-0.1017,-0.1017,-0.0949,-0.0883,-0.0881,-0.088,-0.0878,-0.0879,-0.0607,-0.0404,-0.0404,-0.0202,0.0,0.0,0.0,0.0,0.0,0.0,0.0,0.0,0.0,0.0,0.0,0.0,0.0,0.0,0.0,0.0,0.0,0.0,0.0,0.0,0.0,0.0,0.0,0.0,0.0,0.0,-0.0471,-0.0875,0.6635,0.6853,0.6384,0.5981,0.5518,0.4212,0.2901,0.1589,0.0143,-0.0359,-0.0145,-0.08,-0.1019,-0.0801,-0.1457,-0.1822,-0.1895,-0.2114,-0.226,-0.2187,-0.1895,-0.1677,-0.1677,-0.1386,-0.1168,-0.1168,-0.1168,-0.1168,-0.1168,-0.1168,-0.1168,-0.1168,-0.1168,-0.1022,-0.0657,-0.0511,-0.0364,-0.0072,-0.028,-0.0345,-0.0346,-0.0602,-0.0786,-0.0846,-0.0847,-0.0844,-0.0903,-0.0904,-0.0903,-0.0903,-0.0903,-0.0782,-0.0468,-0.0469,-0.0408,-0.0141,-0.0423,-0.0711,-0.0793,-0.1371,-0.1941,-0.2215,-0.1999,-0.1911,-0.2156,-0.2228,-0.2163,-0.2163,-0.1951,-0.1744,-0.1674,-0.1394,-0.1114,-0.1045,-0.0767,-0.0558,-0.0557,-0.0348,0.0,0.0,-0.0138,0.0,0.0,0.0,0.0,0.0,0.0,0.0,0.0,0.0,0.0,0.0,0.0,0.0,0.0,0.0,0.0,0.0,0.0,0.0,0.0,0.0,0.0,0.0,0.0,0.0,0.0,0.0,0.0,0.0,0.0,0.0,0.0,0.0,0.0,0.7326,0.7459,0.719,0.6721,0.613,0.4567,0.3257,0.2235,0.1156,0.0508,0.0292,-0.0073,-0.0365,-0.0656,-0.1166,-0.1603,-0.1822,-0.2114,-0.226,-0.226,-0.2114,-0.2041,-0.2041,-0.1896,-0.1824,-0.1824,-0.1824,-0.1824,-0.1823,-0.1824,-0.1823,-0.1751,-0.1605,-0.1313,-0.0949,-0.073,-0.0365,0.0,-0.0143,-0.0213,-0.0213,-0.0349,-0.0414,-0.0414,-0.0414,-0.0415,-0.0415,-0.0415,-0.0415,-0.0415,-0.0415,-0.0347,-0.0211,-0.0211,-0.0142,0.0,-0.0145,-0.0363,-0.0584,-0.1167,-0.1528,-0.1664,-0.1519,-0.1516,-0.165,-0.1627,-0.1684,-0.1895,-0.1613,-0.1333,-0.1333,-0.0982,-0.0702,-0.0491,-0.0351,-0.021,-0.021,-0.007,0.0,0.0,0.0,0.0,0.0,0.0,0.0,0.0,0.0,0.0,0.0,0.0,0.0,0.0,0.0,0.0,0.0,0.0,0.0,0.0,0.0,0.0,0.0,0.0,0.0,0.0,0.0,0.0,0.0,0.0,0.0,0.0,0.0,0.0,0.0,0.0,0.0,0.7529,0.7529,0.7529,0.7069,0.6292,0.4766,0.38,0.3291,0.26,0.2035,0.153,0.1093,0.0437,-0.0219,-0.0729,-0.1166,-0.1677,-0.2114,-0.226,-0.226,-0.226,-0.226,-0.226,-0.226,-0.226,-0.226,-0.226,-0.226,-0.226,-0.226,-0.226,-0.226,-0.2041,-0.1677,-0.1168,-0.0876,-0.0511,0.0,0.0,0.0,0.0,0.0,0.0,0.0,0.0,0.0,0.0,0.0,0.0,0.0,0.0,0.0,0.0,0.0,0.0,0.0,0.0,-0.0146,-0.0584,-0.0876,-0.1095,-0.1168,-0.1095,-0.1095,-0.102,-0.0931,-0.1062,-0.1416,-0.1205,-0.0992,-0.0921,-0.0638,-0.0283,0.0,0.0,0.0,0.0,0.0,0.0,0.0,0.0,0.0,0.0,0.0,0.0,0.0,0.0,0.0,0.0,0.0,0.0,0.0,0.0,0.0,0.0,0.0,0.0,0.0,0.0,0.0,0.0,0.0,0.0,0.0,0.0,0.0,0.0,0.0,0.0,0.0,0.0,0.0,0.0,0.0,0.0,0.7529,0.7529,0.7462,0.6972,0.602,0.5152,0.4819,0.4782,0.4439,0.4325,0.4075,0.2405,0.1384,0.0947,0.0219,-0.051,-0.1313,-0.1969,-0.226,-0.226,-0.226,-0.226,-0.226,-0.226,-0.226,-0.226,-0.226,-0.226,-0.226,-0.226,-0.226,-0.226,-0.226,-0.1896,-0.1241,-0.1168,-0.0803,0.0,0.0,0.0,0.0,0.0,0.0,0.0,0.0,0.0,0.0,0.0,0.0,0.0,0.0,0.0,0.0,0.0,0.0,0.0,0.0,-0.0219,-0.0511,-0.0657,-0.0803,-0.1095,-0.0876,-0.0657,-0.0657,-0.0291,-0.0436,-0.0944,-0.0872,-0.0653,-0.0582,-0.0291,0.0,0.0,0.0,0.0,0.0,0.0,0.0,0.0,0.0,0.0,0.0,0.0,0.0,0.0,0.0,0.0,0.0,0.0,0.0,0.0,0.0,0.0,0.0,0.0,0.0,0.0,0.0,0.0,0.0,0.0,0.0,0.0,0.0,0.0,0.0,0.0,0.0,0.0,0.0,0.0,0.0,0.0,0.0,0.7393,0.719,0.719,0.6877,0.6246,0.5792,0.5662,0.5653,0.5385,0.527,0.504,0.3528,0.2315,0.1458,0.0947,-0.0073,-0.1531,-0.2041,-0.226,-0.226,-0.226,-0.226,-0.226,-0.226,-0.226,-0.226,-0.226,-0.226,-0.226,-0.226,-0.226,-0.226,-0.226,-0.2042,-0.1604,-0.1313,-0.0876,-0.0365,-0.0146,0.0,0.0,0.0,0.0,0.0,0.0,0.0,0.0,0.0,0.0,0.0,0.0,0.0,0.0,0.0,0.0,0.0,0.0,-0.0073,-0.0219,-0.0219,-0.0292,-0.0511,-0.0365,-0.0219,-0.0219,-0.0073,-0.0146,-0.0365,0.0,-0.0292,-0.0511,-0.0219,0.0,0.0,0.0,0.0,0.0,0.0,0.0,0.0,0.0,0.0,0.0,0.0,0.0,0.0,0.0,0.0,0.0,0.0,0.0,0.0,0.0,0.0,0.0,0.0,0.0,0.0,0.0,0.0,0.0,0.0,0.0,0.0,0.0,0.0,0.0,0.0,0.0,0.0,0.0,0.0,0.0,0.0,0.0,0.7257,0.6987,0.6918,0.6734,0.6498,0.6326,0.6191,0.624,0.6054,0.6001,0.5827,0.4402,0.307,0.1872,0.1081,-0.0216,-0.166,-0.21,-0.2321,-0.2322,-0.2256,-0.226,-0.226,-0.226,-0.226,-0.226,-0.226,-0.226,-0.226,-0.226,-0.226,-0.226,-0.226,-0.2114,-0.1822,-0.1386,-0.1022,-0.0584,0.0,0.0,0.0,0.0,0.0,0.0,0.0,0.0,0.0,0.0,0.0,0.0,0.0,0.0,0.0,0.0,0.0,0.0,0.0,0.0,0.0,0.0,0.0,0.0,0.0,0.0,0.0,0.0,0.0,0.0,0.0,-0.0146,-0.0365,-0.0146,0.0,0.0,0.0,0.0,0.0,0.0,0.0,0.0,0.0,0.0,0.0,0.0,0.0,0.0,0.0,0.0,0.0,0.0,0.0,0.0,0.0,0.0,0.0,0.0,0.0,0.0,0.0,0.0,0.0,0.0,0.0,0.0,0.0,0.0,0.0,0.0,0.0,0.0,0.0,0.0,0.0,0.0,0.0,0.6987,0.6918,0.6652,0.6568,0.6578,0.6509,0.657,0.6643,0.6584,0.659,0.6306,0.5043,0.3641,0.1962,0.0281,-0.0913,-0.1691,-0.2138,-0.2292,-0.2295,-0.2318,-0.2259,-0.226,-0.226,-0.226,-0.226,-0.226,-0.226,-0.226,-0.226,-0.226,-0.226,-0.226,-0.2114,-0.1822,-0.1386,-0.1022,-0.0657,-0.0219,0.0,0.0,0.0,0.0,0.0,0.0,0.0,0.0,0.0,0.0,0.0,0.0,0.0,0.0,0.0,0.0,0.0,0.0,0.0,0.0,0.0,0.0,0.0,0.0,0.0,0.0,0.0,0.0,0.0,0.0,0.0,0.0,0.0,0.0,0.0,0.0,0.0,0.0,0.0,0.0,0.0,0.0,0.0,0.0,0.0,0.0,0.0,0.0,0.0,0.0,0.0,0.0,0.0,0.0,0.0,0.0,0.0,0.0,0.0,0.0,0.0,0.0,0.0,0.0,0.0,0.0,0.0,0.0,0.0,0.0,0.0,0.0,0.0,0.0,0.0,0.0,0.6851,0.6654,0.6587,0.6543,0.6502,0.6529,0.658,0.6641,0.6668,0.6103,0.5112,0.3728,0.2268,0.0682,-0.0887,-0.1725,-0.2034,-0.2186,-0.2262,-0.2265,-0.2292,-0.2306,-0.2308,-0.2324,-0.226,-0.226,-0.226,-0.226,-0.226,-0.226,-0.226,-0.226,-0.226,-0.226,-0.2041,-0.1532,-0.1095,-0.0949,-0.0365,0.0,0.0,0.0,0.0,0.0,0.0,0.0,0.0,0.0,0.0,0.0,0.0,0.0,0.0,0.0,0.0,0.0,0.0,0.0,0.0,0.0,0.0,0.0,0.0,0.0,0.0,0.0,0.0,0.0,0.0,0.0,0.0,0.0,0.0,0.0,0.0,0.0,0.0,0.0,0.0,0.0,0.0,0.0,0.0,0.0,0.0,0.0,0.0,0.0,0.0,0.0,0.0,0.0,0.0,0.0,0.0,0.0,0.0,0.0,0.0,0.0,0.0,0.0,0.0,0.0,0.0,0.0,0.0,0.0,0.0,0.0,0.0,0.0,0.0,0.0,0.0,0.6719,0.652,0.652,0.6539,0.65,0.6533,0.6564,0.659,0.6623,0.5774,0.4293,0.2928,0.1422,-0.0067,-0.1548,-0.2175,-0.2215,-0.2226,-0.2231,-0.2234,-0.2262,-0.2276,-0.2281,-0.2305,-0.2319,-0.2321,-0.2256,-0.226,-0.226,-0.226,-0.226,-0.226,-0.226,-0.226,-0.2187,-0.1605,-0.1168,-0.1022,-0.0365,0.0,0.0,0.0,0.0,0.0,0.0,0.0,0.0,0.0,0.0,0.0,0.0,0.0,0.0,0.0,0.0,0.0,0.0,0.0,0.0,0.0,0.0,0.0,0.0,0.0,0.0,0.0,0.0,0.0,0.0,0.0,0.0,0.0,0.0,0.0,0.0,0.0,0.0,0.0,0.0,0.0,0.0,0.0,0.0,0.0,0.0,0.0,0.0,0.0,0.0,0.0,0.0,0.0,0.0,0.0,0.0,0.0,0.0,0.0,0.0,0.0,0.0,0.0,0.0,0.0,0.0,0.0,0.0,0.0,0.0,0.0,0.0,0.0,0.0,0.0,0.0,0.652,0.652,0.652,0.6498,0.6551,0.6562,0.6576,0.6562,0.6435,0.5462,0.3906,0.2688,0.1143,-0.0202,-0.1615,-0.2225,-0.2166,-0.2189,-0.22,-0.2203,-0.2231,-0.2175,-0.2176,-0.2276,-0.2293,-0.2296,-0.232,-0.226,-0.226,-0.226,-0.226,-0.226,-0.226,-0.226,-0.226,-0.1605,-0.124,-0.1022,-0.0438,0.0,0.0,0.0,0.0,0.0,0.0,0.0,0.0,0.0,0.0,0.0,0.0,0.0,0.0,0.0,0.0,0.0,0.0,0.0,0.0,0.0,0.0,0.0,0.0,0.0,0.0,0.0,0.0,0.0,0.0,0.0,0.0,0.0,0.0,0.0,0.0,0.0,0.0,0.0,0.0,0.0,0.0,0.0,0.0,0.0,0.0,0.0,0.0,0.0,0.0,0.0,0.0,0.0,0.0,0.0,0.0,0.0,0.0,0.0,0.0,0.0,0.0,0.0,0.0,0.0,0.0,0.0,0.0,0.0,0.0,0.0,0.0,0.0,0.0,0.0,0.0,0.652,0.652,0.652,0.647,0.6492,0.6533,0.6541,0.6425,0.5451,0.4166,0.2685,0.1276,-0.0134,-0.1278,-0.2019,-0.2222,-0.2223,-0.2165,-0.2169,-0.2175,-0.22,-0.2214,-0.222,-0.2245,-0.2271,-0.2292,-0.232,-0.226,-0.226,-0.226,-0.226,-0.226,-0.226,-0.226,-0.2261,-0.1822,-0.1531,-0.1169,-0.0663,-0.0296,0.0,0.0,0.0,0.0,0.0,0.0,0.0,0.0,0.0,0.0,0.0,0.0,0.0,0.0,0.0,0.0,0.0,0.0,0.0,0.0,0.0,0.0,0.0,0.0,0.0,0.0,0.0,0.0,0.0,0.0,0.0,0.0,0.0,0.0,0.0,0.0,0.0,0.0,0.0,0.0,0.0,0.0,0.0,0.0,0.0,0.0,0.0,0.0,0.0,0.0,0.0,0.0,0.0,0.0,0.0,0.0,0.0,0.0,0.0,0.0,0.0,0.0,0.0,0.0,0.0,0.0,0.0,0.0,0.0,0.0,0.0,0.0,0.0,0.0,0.0,0.652,0.652,0.652,0.652,0.652,0.652,0.652,0.6317,0.4973,0.3492,0.2014,0.0605,-0.0807,-0.1952,-0.2222,-0.2222,-0.2222,-0.2222,-0.2222,-0.2224,-0.2172,-0.2183,-0.2187,-0.2214,-0.2252,-0.2287,-0.2309,-0.2323,-0.226,-0.226,-0.226,-0.226,-0.2343,-0.235,-0.2278,-0.1992,-0.1627,-0.1185,-0.082,-0.0449,0.0,0.0,0.0,0.0,0.0,0.0,0.0,0.0,0.0,0.0,0.0,0.0,0.0,0.0,0.0,0.0,0.0,0.0,0.0,0.0,0.0,0.0,0.0,0.0,0.0,0.0,0.0,0.0,0.0,0.0,0.0,0.0,0.0,0.0,0.0,0.0,0.0,0.0,0.0,0.0,0.0,0.0,0.0,0.0,0.0,0.0,0.0,0.0,0.0,0.0,0.0,0.0,0.0,0.0,0.0,0.0,0.0,0.0,0.0,0.0,0.0,0.0,0.0,0.0,0.0,0.0,0.0,0.0,0.0,0.0,0.0,0.0,0.0,0.0,0.0,0.6453,0.6453,0.6453,0.6386,0.6319,0.625,0.6116,0.5982,0.4501,0.3022,0.1745,0.0269,-0.0941,-0.2019,-0.2222,-0.2222,-0.2222,-0.2222,-0.2222,-0.2222,-0.2226,-0.2228,-0.2164,-0.2191,-0.2234,-0.2278,-0.2291,-0.2307,-0.2259,-0.2265,-0.2262,-0.2341,-0.2367,-0.238,-0.231,-0.2032,-0.1661,-0.1207,-0.0833,-0.0455,0.0,0.0,0.0,0.0,0.0,0.0,0.0,0.0,0.0,0.0,0.0,0.0,0.0,0.0,0.0,0.0,0.0,0.0,0.0,0.0,0.0,0.0,0.0,0.0,0.0,0.0,0.0,0.0,0.0,0.0,0.0,0.0,0.0,0.0,0.0,0.0,0.0,0.0,0.0,0.0,0.0,0.0,0.0,0.0,0.0,0.0,0.0,0.0,0.0,0.0,0.0,0.0,0.0,0.0,0.0,0.0,0.0,0.0,0.0,0.0,0.0,0.0,0.0,0.0,0.0,0.0,0.0,0.0,0.0,0.0,0.0,0.0,0.0,0.0,0.0,0.5716,0.5714,0.5716,0.5716,0.5582,0.4906,0.4501,0.4231,0.2149,0.1142,0.0269,-0.1009,-0.175,-0.2155,-0.2222,-0.2222,-0.2222,-0.2222,-0.2222,-0.2222,-0.2222,-0.2222,-0.2228,-0.2185,-0.222,-0.2257,-0.2279,-0.2305,-0.2333,-0.2354,-0.2365,-0.2368,-0.2396,-0.2412,-0.2338,-0.2271,-0.1893,-0.1289,-0.107,-0.0691,0.0,0.0,0.0,0.0,0.0,0.0,0.0,0.0,0.0,0.0,0.0,0.0,0.0,0.0,0.0,0.0,0.0,0.0,0.0,0.0,0.0,0.0,0.0,0.0,0.0,0.0,0.0,0.0,0.0,0.0,0.0,0.0,0.0,0.0,0.0,0.0,0.0,0.0,0.0,0.0,0.0,0.0,0.0,0.0,0.0,0.0,0.0,0.0,0.0,0.0,0.0,0.0,0.0,0.0,0.0,0.0,0.0,0.0,0.0,0.0,0.0,0.0,0.0,0.0,0.0,0.0,0.0,0.0,0.0,0.0,0.0,0.0,0.0,0.0,0.0,0.5381,0.5379,0.4908,0.4705,0.4638,0.403,0.3559,0.282,0.1411,0.0403,-0.0202,-0.1547,-0.2222,-0.2222,-0.2222,-0.2222,-0.2222,-0.2222,-0.2222,-0.2222,-0.2222,-0.2222,-0.2227,-0.2176,-0.2204,-0.2174,-0.2263,-0.2302,-0.2346,-0.237,-0.2383,-0.2401,-0.2427,-0.2442,-0.2444,-0.2457,-0.2076,-0.1387,-0.1239,-0.0855,0.0,0.0,0.0,0.0,0.0,0.0,0.0,0.0,0.0,0.0,0.0,0.0,0.0,0.0,0.0,0.0,0.0,0.0,0.0,0.0,0.0,0.0,0.0,0.0,0.0,0.0,0.0,0.0,0.0,0.0,0.0,0.0,0.0,0.0,0.0,0.0,0.0,0.0,0.0,0.0,0.0,0.0,0.0,0.0,0.0,0.0,0.0,0.0,0.0,0.0,0.0,0.0,0.0,0.0,0.0,0.0,0.0,0.0,0.0,0.0,0.0,0.0,0.0,0.0,0.0,0.0,0.0,0.0,0.0,0.0,0.0,0.0,0.0,0.0,0.0,0.518,0.5045,0.41,0.3627,0.3493,0.3359,0.2552,0.188,0.1075,0.0403,-0.0471,-0.1682,-0.2155,-0.2222,-0.2222,-0.2222,-0.2222,-0.2222,-0.2222,-0.2222,-0.2222,-0.2222,-0.2223,-0.2225,-0.2193,-0.2168,-0.2175,-0.2298,-0.2356,-0.238,-0.2401,-0.2429,-0.2459,-0.2472,-0.2477,-0.2419,-0.204,-0.141,-0.1174,-0.0784,0.0,0.0,0.0,0.0,0.0,0.0,0.0,0.0,0.0,0.0,0.0,0.0,0.0,0.0,0.0,0.0,0.0,0.0,0.0,0.0,0.0,0.0,0.0,0.0,0.0,0.0,0.0,0.0,0.0,0.0,0.0,0.0,0.0,0.0,0.0,0.0,0.0,0.0,0.0,0.0,0.0,0.0,0.0,0.0,0.0,0.0,0.0,0.0,0.0,0.0,0.0,0.0,0.0,0.0,0.0,0.0,0.0,0.0,0.0,0.0,0.0,0.0,0.0,0.0,0.0,0.0,0.0,0.0,0.0,0.0,0.0,0.0,0.0,0.0,0.0,0.4037,0.3227,0.3026,0.2419,0.1613,0.0807,0.0336,0.0,-0.0942,-0.1278,-0.175,-0.2087,-0.2222,-0.2222,-0.2222,-0.2222,-0.2222,-0.2222,-0.2222,-0.2222,-0.2222,-0.2222,-0.2222,-0.2223,-0.2189,-0.2163,-0.2175,-0.2294,-0.2363,-0.2403,-0.2429,-0.2459,-0.2485,-0.2504,-0.2505,-0.2273,-0.1807,-0.1335,-0.0942,-0.055,0.0,0.0,0.0,0.0,0.0,0.0,0.0,0.0,0.0,0.0,0.0,0.0,0.0,0.0,0.0,0.0,0.0,0.0,0.0,0.0,0.0,0.0,0.0,0.0,0.0,0.0,0.0,0.0,0.0,0.0,0.0,0.0,0.0,0.0,0.0,0.0,0.0,0.0,0.0,0.0,0.0,0.0,0.0,0.0,0.0,0.0,0.0,0.0,0.0,0.0,0.0,0.0,0.0,0.0,0.0,0.0,0.0,0.0,0.0,0.0,0.0,0.0,0.0,0.0,0.0,0.0,0.0,0.0,0.0,0.0,0.0,0.0,0.0,0.0,0.0,0.3227,0.2622,0.1614,0.0874,0.0336,-0.0269,-0.0808,-0.1212,-0.1279,-0.1751,-0.2155,-0.2222,-0.2222,-0.2222,-0.2222,-0.2222,-0.2222,-0.2222,-0.2222,-0.2222,-0.2222,-0.2222,-0.2222,-0.2228,-0.2185,-0.2237,-0.2175,-0.2301,-0.2379,-0.2418,-0.2446,-0.2487,-0.2506,-0.2511,-0.2514,-0.2278,-0.1885,-0.1414,-0.1021,-0.0628,0.0,0.0,0.0,0.0,0.0,0.0,0.0,0.0,0.0,0.0,0.0,0.0,0.0,0.0,0.0,0.0,0.0,0.0,0.0,0.0,0.0,0.0,0.0,0.0,0.0,0.0,0.0,0.0,0.0,0.0,0.0,0.0,0.0,0.0,0.0,0.0,0.0,0.0,0.0,0.0,0.0,0.0,0.0,0.0,0.0,0.0,0.0,0.0,0.0,0.0,0.0,0.0,0.0,0.0,0.0,0.0,0.0,0.0,0.0,0.0,0.0,0.0,0.0,0.0,0.0,0.0,0.0,0.0,0.0,0.0,0.0,0.0,0.0,0.0,0.0,0.2354,0.2085,0.0269,-0.0606,-0.0741,-0.0808,-0.1346,-0.1953,-0.1212,-0.1481,-0.2087,-0.2222,-0.2222,-0.2222,-0.2222,-0.2222,-0.2222,-0.2222,-0.2222,-0.2222,-0.2222,-0.2222,-0.2222,-0.2228,-0.2458,-0.2448,-0.2315,-0.231,-0.2393,-0.2427,-0.2454,-0.2503,-0.2513,-0.2514,-0.2514,-0.2278,-0.1885,-0.1335,-0.1021,-0.0628,0.0,0.0,0.0,0.0,0.0,0.0,0.0,0.0,0.0,0.0,0.0,0.0,0.0,0.0,0.0,0.0,0.0,0.0,0.0,0.0,0.0,0.0,0.0,0.0,0.0,0.0,0.0,0.0,0.0,0.0,0.0,0.0,0.0,0.0,0.0,0.0,0.0,0.0,0.0,0.0,0.0,0.0,0.0,0.0,0.0,0.0,0.0,0.0,0.0,0.0,0.0,0.0,0.0,0.0,0.0,0.0,0.0,0.0,0.0,0.0,0.0,0.0,0.0,0.0,0.0,0.0,0.0,0.0,0.0,0.0,0.0,0.0,0.0,0.0,0.0,0.0807,0.0,-0.0337,-0.101,-0.1818,-0.1885,-0.1953,-0.2155,-0.1953,-0.202,-0.2155,-0.2222,-0.2155,-0.2222,-0.2222,-0.2222,-0.2155,-0.2222,-0.2222,-0.2222,-0.2222,-0.2222,-0.2424,-0.2492,-0.3004,-0.3548,-0.3229,-0.2668,-0.2694,-0.2427,-0.2914,-0.2656,-0.2671,-0.2671,-0.2357,-0.1885,-0.1649,-0.1335,-0.0785,-0.0236,0.0,0.0,0.0,0.0,0.0,0.0,0.0,0.0,0.0,0.0,0.0,0.0,0.0,0.0,0.0,0.0,0.0,0.0,0.0,0.0,0.0,0.0,0.0,0.0,0.0,0.0,0.0,0.0,0.0,0.0,0.0,0.0,0.0,0.0,0.0,0.0,0.0,0.0,0.0,0.0,0.0,0.0,0.0,0.0,0.0,0.0,0.0,0.0,0.0,0.0,0.0,0.0,0.0,0.0,0.0,0.0,0.0,0.0,0.0,0.0,0.0,0.0,0.0,0.0,0.0,0.0,0.0,0.0,0.0,0.0,0.0,0.0,0.0,0.0,0.0,0.0,-0.0539,-0.1144,-0.1683,-0.2155,-0.2222,-0.2222,-0.2222,-0.2222,-0.2222,-0.2155,-0.202,-0.202,-0.2087,-0.1953,-0.202,-0.2155,-0.2222,-0.2222,-0.2222,-0.2222,-0.2692,-0.3161,-0.3295,-0.4214,-0.5037,-0.4817,-0.451,-0.4774,-0.4972,-0.4352,-0.3795,-0.3751,-0.3375,-0.2592,-0.1964,-0.1649,-0.1414,-0.0785,-0.0471,-0.055,-0.0471,-0.0236,0.0,0.0,0.0,0.0,0.0,0.0,0.0,0.0,0.0,0.0,0.0,0.0,0.0,0.0,0.0,0.0,0.0,0.0,0.0,0.0,0.0,0.0,0.0,0.0,0.0,0.0,0.0,0.0,0.0,0.0,0.0,0.0,0.0,0.0,0.0,0.0,0.0,0.0,0.0,0.0,0.0,0.0,0.0,0.0,0.0,0.0,0.0,0.0,0.0,0.0,0.0,0.0,0.0,0.0,0.0,0.0,0.0,0.0,0.0,0.0,0.0,0.0,0.0,0.0,0.0,0.0,0.0,0.0,0.0,0.0,0.0,0.0,-0.0808,-0.0943,-0.1818,-0.2222,-0.2222,-0.2222,-0.2222,-0.2222,-0.2222,-0.2155,-0.202,-0.1885,-0.1885,-0.1953,-0.1953,-0.1953,-0.2222,-0.2222,-0.2357,-0.2759,-0.2827,-0.3362,-0.4366,-0.4908,-0.5479,-0.6857,-0.7018,-0.705,-0.6545,-0.6742,-0.6303,-0.5544,-0.522,-0.4469,-0.3296,-0.2356,-0.2121,-0.1649,-0.1178,-0.1021,-0.1099,-0.0785,-0.0393,-0.0157,0.0,0.0,0.0,0.0,0.0,0.0,0.0,0.0,0.0,0.0,0.0,0.0,0.0,0.0,0.0,0.0,0.0,0.0,0.0,0.0,0.0,0.0,0.0,0.0,0.0,0.0,0.0,0.0,0.0,0.0,0.0,0.0,0.0,0.0,0.0,0.0,0.0,0.0,0.0,0.0,0.0,0.0,0.0,0.0,0.0,0.0,0.0,0.0,0.0,0.0,0.0,0.0,0.0,0.0,0.0,0.0,0.0,0.0,0.0,0.0,0.0,0.0,0.0,0.0,0.0,0.0,0.0,0.0,0.0,0.0,0.0,-0.202,-0.202,-0.2155,-0.2222,-0.2222,-0.2222,-0.2222,-0.2155,-0.2155,-0.1953,-0.1751,-0.1953,-0.1885,-0.1818,-0.202,-0.2155,-0.2289,-0.2423,-0.3094,-0.3899,-0.4099,-0.4833,-0.5965,-0.6164,-0.7083,-0.8259,-0.8586,-0.7941,-0.763,-0.7586,-0.7354,-0.6907,-0.5821,-0.4859,-0.4311,-0.2747,-0.1964,-0.1807,-0.1492,-0.1257,-0.1178,-0.0628,-0.0393,-0.0393,0.0,0.0,0.0,0.0,0.0,0.0,0.0,0.0,0.0,0.0,0.0,0.0,0.0,0.0,0.0,0.0,0.0,0.0,0.0,0.0,0.0,0.0,0.0,0.0,0.0,0.0,0.0,0.0,0.0,0.0,0.0,0.0,0.0,0.0,0.0,0.0,0.0,0.0,0.0,0.0,0.0,0.0,0.0,0.0,0.0,0.0,0.0,0.0,0.0,0.0,0.0,0.0,0.0,0.0,0.0,0.0,0.0,0.0,0.0,0.0,0.0,0.0,0.0,0.0,0.0,0.0,0.0,0.0,0.0,0.0,0.0,-0.2222,-0.2222,-0.2222,-0.2222,-0.2222,-0.2222,-0.2087,-0.1953,-0.2087,-0.1953,-0.1683,-0.1751,-0.1751,-0.1751,-0.202,-0.2692,-0.3228,-0.3362,-0.4164,-0.5233,-0.5635,-0.6301,-0.7369,-0.7702,-0.848,-0.9484,-0.9946,-1.0012,-0.9422,-0.9386,-0.9532,-0.837,-0.7086,-0.5759,-0.5243,-0.2982,-0.2278,-0.2121,-0.2043,-0.1728,-0.1414,-0.1099,-0.0864,-0.0628,-0.0393,-0.0236,0.0,0.0,0.0,0.0,0.0,0.0,0.0,0.0,0.0,0.0,0.0,0.0,0.0,0.0,0.0,0.0,0.0,0.0,0.0,0.0,0.0,0.0,0.0,0.0,0.0,0.0,0.0,0.0,0.0,0.0,0.0,0.0,0.0,0.0,0.0,0.0,0.0,0.0,0.0,0.0,0.0,0.0,0.0,0.0,0.0,0.0,0.0,0.0,0.0,0.0,0.0,0.0,0.0,0.0,0.0,0.0,0.0,0.0,0.0,0.0,0.0,0.0,0.0,0.0,0.0,0.0,0.0,0.0,0.0,-0.2214,-0.2222,-0.2222,-0.2222,-0.2222,-0.2222,-0.1953,-0.1683,-0.202,-0.1885,-0.1616,-0.1548,-0.1683,-0.1952,-0.249,-0.3362,-0.4233,-0.4635,-0.5702,-0.6569,-0.7102,-0.7836,-0.8706,-0.9244,-0.9646,-1.0654,-1.0627,-1.0678,-1.0994,-1.1213,-1.0862,-1.0177,-0.8719,-0.7579,-0.601,-0.4232,-0.2904,-0.2435,-0.2278,-0.2043,-0.1728,-0.1492,-0.1178,-0.0864,-0.055,0.0,0.0,0.0,0.0,0.0,0.0,0.0,0.0,0.0,0.0,0.0,0.0,0.0,0.0,0.0,0.0,0.0,0.0,0.0,0.0,0.0,0.0,0.0,0.0,0.0,0.0,0.0,0.0,0.0,0.0,0.0,0.0,0.0,0.0,0.0,0.0,0.0,0.0,0.0,0.0,0.0,0.0,0.0,0.0,0.0,0.0,0.0,0.0,0.0,0.0,0.0,0.0,0.0,0.0,0.0,0.0,0.0,0.0,0.0,0.0,0.0,0.0,0.0,0.0,0.0,0.0,0.0,0.0,0.0,0.0,-0.2129,-0.2222,-0.2221,-0.2222,-0.2222,-0.2222,-0.1953,-0.1616,-0.202,-0.1818,-0.1414,-0.1548,-0.2019,-0.249,-0.3497,-0.43,-0.45,-0.5702,-0.7036,-0.7971,-0.8573,-0.9175,-0.9911,-1.0316,-1.0455,-1.0675,-1.085,-1.0857,-1.1026,-1.126,-1.1581,-1.1644,-0.9868,-0.9635,-0.8414,-0.6106,-0.4,-0.3219,-0.267,-0.2435,-0.2042,-0.1571,-0.1021,-0.1021,-0.055,0.0,0.0,0.0,0.0,0.0,0.0,0.0,0.0,0.0,0.0,0.0,0.0,0.0,0.0,0.0,0.0,0.0,0.0,0.0,0.0,0.0,0.0,0.0,0.0,0.0,0.0,0.0,0.0,0.0,0.0,0.0,0.0,0.0,0.0,0.0,0.0,0.0,0.0,0.0,0.0,0.0,0.0,0.0,0.0,0.0,0.0,0.0,0.0,0.0,0.0,0.0,0.0,0.0,0.0,0.0,0.0,0.0,0.0,0.0,0.0,0.0,0.0,0.0,0.0,0.0,0.0,0.0,0.0,0.0,0.0,-0.2116,-0.2128,-0.2213,-0.2222,-0.2222,-0.2222,-0.1953,-0.1683,-0.202,-0.2087,-0.1818,-0.2758,-0.3361,-0.3763,-0.4699,-0.5971,-0.6771,-0.6907,-0.8243,-0.9247,-0.9848,-1.0117,-1.0588,-1.0721,-1.0721,-1.0731,-1.0792,-1.0806,-1.09,-1.1097,-1.1304,-1.1119,-1.0399,-0.9973,-0.8929,-0.7816,-0.5874,-0.4469,-0.3765,-0.353,-0.2435,-0.2121,-0.1649,-0.1178,-0.1099,-0.0471,0.0,0.0,0.0,0.0,0.0,0.0,0.0,0.0,0.0,0.0,0.0,0.0,0.0,0.0,0.0,0.0,0.0,0.0,0.0,0.0,0.0,0.0,0.0,0.0,0.0,0.0,0.0,0.0,0.0,0.0,0.0,0.0,0.0,0.0,0.0,0.0,0.0,0.0,0.0,0.0,0.0,0.0,0.0,0.0,0.0,0.0,0.0,0.0,0.0,0.0,0.0,0.0,0.0,0.0,0.0,0.0,0.0,0.0,0.0,0.0,0.0,0.0,0.0,0.0,0.0,0.0,0.0,0.0,0.0,-0.2088,-0.2099,-0.2195,-0.2214,-0.2221,-0.2222,-0.2221,-0.2288,-0.2221,-0.249,-0.2893,-0.3899,-0.4568,-0.5101,-0.6237,-0.7238,-0.8174,-0.8576,-0.938,-0.9984,-1.0323,-1.0455,-1.0522,-1.0654,-1.0721,-1.0721,-1.0727,-1.0792,-1.0793,-1.0853,-1.1121,-1.1043,-1.0695,-1.0545,-1.0312,-0.9046,-0.7433,-0.6108,-0.5014,-0.4624,-0.3375,-0.2513,-0.1964,-0.1335,-0.1099,-0.0628,0.0,0.0,0.0,0.0,0.0,0.0,0.0,0.0,0.0,0.0,0.0,0.0,0.0,0.0,0.0,0.0,0.0,0.0,0.0,0.0,0.0,0.0,0.0,0.0,0.0,0.0,0.0,0.0,0.0,0.0,0.0,0.0,0.0,0.0,0.0,0.0,0.0,0.0,0.0,0.0,0.0,0.0,0.0,0.0,0.0,0.0,0.0,0.0,0.0,0.0,0.0,0.0,0.0,0.0,0.0,0.0,0.0,0.0,0.0,0.0,0.0,0.0,0.0,0.0,0.0,0.0,0.0,0.0,0.0,-0.2039,-0.2131,-0.2097,-0.2193,-0.2352,-0.2222,-0.2759,-0.3427,-0.2892,-0.3228,-0.4233,-0.4568,-0.53,-0.6435,-0.7772,-0.8573,-0.8975,-0.9782,-1.0323,-1.0323,-1.0455,-1.0455,-1.0455,-1.0522,-1.0721,-1.0721,-1.0724,-1.0731,-1.0681,-1.0853,-1.1016,-1.1192,-1.1125,-1.139,-1.1782,-1.067,-0.9143,-0.7513,-0.6028,-0.5483,-0.439,-0.306,-0.2198,-0.1335,-0.1021,-0.0628,0.0,0.0,0.0,0.0,0.0,0.0,0.0,0.0,0.0,0.0,0.0,0.0,0.0,0.0,0.0,0.0,0.0,0.0,0.0,0.0,0.0,0.0,0.0,0.0,0.0,0.0,0.0,-0.0438,-0.0511,-0.0657,-0.0803,-0.0876,-0.0803,-0.0803,-0.1022,0.0,0.0,0.0,0.0,0.0,0.0,0.0,0.0,0.0,0.0,0.0,0.0,0.0,0.0,0.0,0.0,0.0,0.0,0.0,0.0,0.0,0.0,0.0,0.0,0.0,0.0,0.0,0.0,0.0,0.0,0.0,0.0,0.0,0.0,-0.2404,-0.2036,-0.2067,-0.2684,-0.3383,-0.2549,-0.296,-0.4099,-0.4699,-0.5233,-0.5835,-0.6637,-0.7305,-0.8174,-0.8978,-0.9715,-0.9984,-0.9652,-0.9994,-1.0522,-1.0455,-1.0455,-1.0522,-1.0588,-1.0721,-1.0721,-1.0721,-1.0721,-1.0727,-1.0795,-1.0809,-1.0948,-1.1321,-1.1731,-1.205,-1.1632,-1.0865,-0.9384,-0.8368,-0.7431,-0.5248,-0.4076,-0.2902,-0.157,-0.1256,-0.0939,-0.0466,-0.0384,-0.0379,-0.0375,-0.0222,0.0,0.0,0.0,-0.0365,-0.0438,-0.0584,-0.0657,-0.0438,0.0,0.0,0.0,0.0,0.0,0.0,0.0,0.0,0.0,0.0,0.0,0.0,0.0,-0.0511,-0.0584,-0.073,-0.0949,-0.1095,-0.1095,-0.1095,-0.1095,-0.1168,-0.1241,-0.1314,-0.1386,-0.1167,-0.0876,-0.0657,-0.0438,0.0,0.0,0.0,0.0,0.0,0.0,0.0,0.0,0.0,0.0,0.0,0.0,0.0,-0.0365,0.0,0.0,0.0,0.0,0.0,0.0,0.0,0.0,0.0,0.0,0.0,0.0,0.0,-0.263,-0.207,-0.2543,-0.3278,-0.3897,-0.2716,-0.2945,-0.4497,-0.6235,-0.7169,-0.7369,-0.8171,-0.8909,-0.9377,-0.9984,-1.0455,-1.0654,-1.0323,-0.9994,-1.0522,-1.0455,-1.0455,-1.0518,-1.0651,-1.0717,-1.0721,-1.0721,-1.0721,-1.0721,-1.0721,-1.0772,-1.0917,-1.1185,-1.1586,-1.1986,-1.1921,-1.1875,-1.072,-0.996,-0.8837,-0.7199,-0.5872,-0.4466,-0.3132,-0.2343,-0.1942,-0.1154,-0.0836,-0.0825,-0.0742,-0.0589,-0.0365,-0.0511,-0.0584,-0.0803,-0.0876,-0.0803,-0.0876,-0.0584,-0.0438,0.0,0.0,-0.0073,0.0,0.0,0.0,0.0,0.0,0.0,0.0,0.0,-0.0584,-0.0876,-0.0949,-0.1167,-0.1386,-0.1532,-0.1605,-0.1605,-0.1532,-0.1532,-0.1532,-0.1532,-0.1605,-0.1605,-0.1459,-0.124,-0.1022,-0.0803,-0.0511,-0.0292,0.0,0.0,0.0,0.0,0.0,0.0,0.0,-0.0511,-0.0803,-0.0803,-0.0803,-0.0803,0.0,0.0,0.0,0.0,0.0,0.0,0.0,0.0,0.0,0.0,0.0,0.0,-0.2777,-0.235,-0.3503,-0.4154,-0.3989,-0.3387,-0.3585,-0.4768,-0.7441,-0.864,-0.8706,-0.8773,-0.9443,-1.0449,-1.0651,-1.0651,-1.0651,-1.0588,-1.0525,-1.0459,-1.0522,-1.0455,-1.0455,-1.0588,-1.0654,-1.0721,-1.0721,-1.0721,-1.0721,-1.0721,-1.0789,-1.086,-1.1151,-1.1426,-1.1694,-1.1898,-1.2042,-1.1587,-1.0998,-1.0031,-0.8796,-0.7972,-0.6337,-0.4919,-0.3958,-0.3008,-0.2139,-0.1433,-0.1268,-0.1182,-0.1102,-0.117,-0.1168,-0.1241,-0.1241,-0.1167,-0.0949,-0.0876,-0.0803,-0.0729,-0.0657,-0.0584,-0.0365,0.0,0.0,0.0,0.0,0.0,-0.0219,-0.0438,-0.0584,-0.0949,-0.1313,-0.1532,-0.1677,-0.1895,-0.2115,-0.2187,-0.2187,-0.2115,-0.2115,-0.2115,-0.2042,-0.2115,-0.1969,-0.1896,-0.175,-0.1605,-0.1386,-0.1095,-0.0876,0.0,0.0,0.0,-0.0876,-0.0876,-0.0803,-0.0657,-0.0949,-0.124,-0.124,-0.124,-0.124,-0.1094,-0.0803,0.0,0.0,0.0,0.0,0.0,0.0,0.0,0.0,0.0,0.0,-0.5594,-0.4862,-0.5188,-0.5972,-0.6999,-0.7711,-0.787,-0.7698,-0.938,-1.0117,-1.0117,-1.0114,-1.025,-1.0717,-1.0721,-1.0721,-1.0721,-1.0721,-1.0654,-1.0654,-1.0654,-1.0588,-1.0588,-1.0654,-1.0721,-1.0721,-1.0721,-1.0721,-1.0721,-1.0721,-1.0724,-1.0812,-1.1023,-1.1175,-1.1389,-1.1647,-1.1891,-1.2033,-1.1571,-1.0941,-1.021,-0.9318,-0.7784,-0.6606,-0.5241,-0.4284,-0.3558,-0.2246,-0.1925,-0.176,-0.139,-0.1241,-0.1168,-0.1459,-0.1677,-0.1896,-0.1677,-0.1458,-0.1386,-0.1167,-0.1022,-0.1022,-0.0876,-0.0511,0.0,0.0,0.0,0.0,-0.0511,-0.073,-0.0948,-0.1313,-0.1605,-0.1823,-0.1968,-0.2114,-0.226,-0.226,-0.226,-0.226,-0.226,-0.226,-0.226,-0.226,-0.2115,-0.2187,-0.2187,-0.2042,-0.1896,-0.1605,-0.1386,-0.1386,-0.1313,-0.1313,-0.1167,-0.1168,-0.1095,-0.1095,-0.1386,-0.1605,-0.1604,-0.1604,-0.1604,-0.1458,-0.1167,-0.0876,0.0,-0.0365,-0.0292,-0.0073,0.0,0.0,0.0,0.0,0.0,-0.6818,-0.602,-0.6508,-0.7554,-0.8869,-0.9856,-0.9909,-0.9548,-1.0293,-1.0721,-1.0721,-1.0651,-1.0721,-1.0721,-1.0721,-1.0721,-1.0721,-1.0721,-1.0721,-1.0721,-1.0721,-1.0721,-1.0721,-1.0721,-1.0721,-1.0721,-1.0721,-1.0721,-1.0721,-1.0721,-1.0724,-1.0741,-1.0806,-1.1019,-1.1212,-1.144,-1.165,-1.1877,-1.1908,-1.1553,-1.1011,-1.0439,-0.9463,-0.8085,-0.6635,-0.612,-0.5176,-0.3708,-0.3011,-0.2698,-0.2333,-0.1678,-0.1678,-0.1896,-0.1895,-0.2041,-0.1895,-0.175,-0.1677,-0.1531,-0.1459,-0.1386,-0.1386,-0.1095,-0.0803,0.0,0.0,-0.0657,-0.0876,-0.1167,-0.1386,-0.1531,-0.175,-0.2041,-0.2114,-0.226,-0.226,-0.226,-0.226,-0.226,-0.226,-0.226,-0.226,-0.226,-0.226,-0.226,-0.226,-0.226,-0.2115,-0.1969,-0.1823,-0.1823,-0.175,-0.1678,-0.1532,-0.1459,-0.1532,-0.1532,-0.175,-0.1969,-0.1968,-0.1968,-0.1895,-0.175,-0.1604,-0.124,-0.0948,-0.0657,-0.0438,-0.0292,-0.0073,0.0,0.0,0.0,0.0,-0.7126,-0.6385,-0.7551,-0.8722,-0.9898,-0.9997,-1.0162,-1.0477,-1.0626,-1.0707,-1.0714,-1.0721,-1.0721,-1.0721,-1.0721,-1.0721,-1.0721,-1.0721,-1.0721,-1.0721,-1.0721,-1.0721,-1.0721,-1.0721,-1.0721,-1.0721,-1.0721,-1.0721,-1.0721,-1.0721,-1.0721,-1.0727,-1.0772,-1.0972,-1.1118,-1.128,-1.1467,-1.1643,-1.1853,-1.1777,-1.1894,-1.1759,-1.1379,-1.0024,-0.9199,-0.8595,-0.709,-0.5796,-0.4657,-0.4149,-0.335,-0.2333,-0.2187,-0.2187,-0.2114,-0.2041,-0.1968,-0.1968,-0.1895,-0.1822,-0.1822,-0.1822,-0.1822,-0.1604,-0.1386,-0.1022,-0.0949,-0.1022,-0.124,-0.1458,-0.1604,-0.1822,-0.2041,-0.2187,-0.226,-0.226,-0.226,-0.226,-0.226,-0.226,-0.226,-0.226,-0.226,-0.226,-0.226,-0.226,-0.226,-0.226,-0.226,-0.2187,-0.2187,-0.2114,-0.2042,-0.1969,-0.1969,-0.1896,-0.1969,-0.2041,-0.2114,-0.2187,-0.2114,-0.2187,-0.2187,-0.2042,-0.1823,-0.1604,-0.1313,-0.1094,-0.0802,-0.0511,-0.0292,-0.0146,0.0,0.0,0.0,-0.9569,-0.8897,-0.9207,-0.9538,-0.9829,-0.994,-1.0088,-1.0337,-1.0483,-1.0609,-1.0704,-1.0717,-1.0721,-1.0721,-1.0721,-1.0721,-1.0721,-1.0721,-1.0721,-1.0721,-1.0721,-1.0721,-1.0721,-1.0721,-1.0721,-1.0721,-1.0721,-1.0721,-1.0721,-1.0721,-1.0721,-1.0721,-1.0792,-1.0873,-1.1019,-1.1165,-1.1297,-1.1474,-1.163,-1.1806,-1.1887,-1.1999,-1.1755,-1.103,-1.0426,-0.9614,-0.8099,-0.6294,-0.5245,-0.4439,-0.3059,-0.2405,-0.226,-0.226,-0.226,-0.2187,-0.2114,-0.2114,-0.2114,-0.2114,-0.2114,-0.2114,-0.2114,-0.2114,-0.1896,-0.1459,-0.1313,-0.1386,-0.1532,-0.1677,-0.1895,-0.2114,-0.226,-0.226,-0.226,-0.226,-0.226,-0.226,-0.226,-0.226,-0.226,-0.226,-0.226,-0.226,-0.226,-0.226,-0.226,-0.226,-0.226,-0.226,-0.226,-0.226,-0.226,-0.2187,-0.2187,-0.2187,-0.2187,-0.2187,-0.226,-0.226,-0.226,-0.226,-0.226,-0.226,-0.2114,-0.1896,-0.175,-0.1677,-0.1313,-0.0948,-0.0657,-0.0511,-0.0438,0.0,0.0,-1.0425,-0.9819,-0.9819,-0.9819,-0.9836,-0.9914,-1.0036,-1.0188,-1.0331,-1.048,-1.0622,-1.0683,-1.0721,-1.0721,-1.0721,-1.0721,-1.0721,-1.0721,-1.0721,-1.0721,-1.0721,-1.0721,-1.0721,-1.0721,-1.0721,-1.0721,-1.0721,-1.0721,-1.0721,-1.0721,-1.0721,-1.0721,-1.0731,-1.0795,-1.087,-1.1046,-1.1179,-1.1385,-1.1477,-1.1596,-1.1725,-1.1826,-1.1864,-1.1381,-1.1059,-1.0426,-0.9744,-0.8087,-0.7204,-0.6032,-0.4728,-0.2986,-0.2551,-0.226,-0.226,-0.226,-0.226,-0.226,-0.226,-0.226,-0.226,-0.226,-0.226,-0.2187,-0.2187,-0.1824,-0.1824,-0.1896,-0.1896,-0.2041,-0.2114,-0.226,-0.226,-0.226,-0.226,-0.226,-0.226,-0.226,-0.226,-0.226,-0.226,-0.226,-0.226,-0.226,-0.226,-0.226,-0.226,-0.226,-0.226,-0.226,-0.226,-0.226,-0.226,-0.226,-0.226,-0.226,-0.226,-0.226,-0.226,-0.226,-0.226,-0.226,-0.226,-0.226,-0.226,-0.2187,-0.2041,-0.1968,-0.175,-0.1385,-0.1094,-0.0876,-0.0876,-0.0876,-0.0803,-1.0425,-0.9822,-0.9819,-0.9819,-0.9819,-0.9822,-0.9852,-1.0004,-1.0219,-1.0365,-1.0517,-1.066,-1.0711,-1.0721,-1.0721,-1.0721,-1.0721,-1.0721,-1.0721,-1.0721,-1.0721,-1.0721,-1.0721,-1.0721,-1.0721,-1.0721,-1.0721,-1.0721,-1.0721,-1.0721,-1.0721,-1.0721,-1.0744,-1.0718,-1.0816,-1.09,-1.1008,-1.1246,-1.1365,-1.1467,-1.1545,-1.1613,-1.1647,-1.164,-1.1616,-1.1616,-1.1109,-1.0308,-0.9435,-0.7986,-0.6105,-0.4293,-0.3059,-0.255,-0.226,-0.226,-0.226,-0.226,-0.226,-0.226,-0.226,-0.226,-0.226,-0.226,-0.226,-0.226,-0.226,-0.226,-0.226,-0.226,-0.226,-0.226,-0.226,-0.226,-0.226,-0.2259,-0.2259,-0.2259,-0.2258,-0.2258,-0.2258,-0.2258,-0.2258,-0.2258,-0.2258,-0.2258,-0.2258,-0.226,-0.226,-0.226,-0.226,-0.226,-0.226,-0.226,-0.226,-0.226,-0.226,-0.226,-0.226,-0.226,-0.226,-0.226,-0.226,-0.226,-0.226,-0.226,-0.2187,-0.2041,-0.1895,-0.175,-0.1531,-0.1313,-0.1313,-0.1313,-0.1313,-1.0422,-0.9819,-0.9819,-0.9819,-0.9819,-0.9819,-0.9845,-0.9997,-1.0209,-1.0361,-1.0493,-1.0639,-1.0721,-1.0721,-1.0721,-1.0721,-1.0721,-1.0721,-1.0721,-1.0721,-1.0916,-1.085,-1.085,-1.1111,-1.0784,-1.0721,-1.0721,-1.0721,-1.0721,-1.0721,-1.0721,-1.0721,-1.0721,-1.0744,-1.0705,-1.0796,-1.0907,-1.1121,-1.126,-1.1379,-1.1447,-1.1521,-1.1609,-1.1616,-1.1616,-1.1616,-1.1181,-1.0089,-0.9507,-0.835,-0.6606,-0.4939,-0.3778,-0.2908,-0.2401,-0.226,-0.226,-0.226,-0.226,-0.226,-0.226,-0.226,-0.226,-0.226,-0.226,-0.226,-0.226,-0.226,-0.226,-0.226,-0.226,-0.226,-0.226,-0.226,-0.226,-0.2257,-0.2256,-0.2254,-0.2254,-0.2324,-0.2322,-0.2322,-0.2321,-0.2321,-0.232,-0.232,-0.2319,-0.232,-0.2244,-0.225,-0.2255,-0.2252,-0.225,-0.226,-0.226,-0.226,-0.226,-0.226,-0.226,-0.226,-0.226,-0.226,-0.226,-0.226,-0.226,-0.226,-0.2187,-0.2187,-0.2041,-0.1895,-0.1822,-0.1677,-0.1677,-0.1677,-0.175]}]]